<?xml version="1.0" encoding="UTF-8" standalone="no" ?>
<gpx xmlns="http://www.topografix.com/GPX/1/1" xmlns:xsi="http://www.w3.org/2001/XMLSchema-instance" xsi:schemaLocation="http://www.topografix.com/GPX/1/1 http://www.topografix.com/GPX/1/1/gpx.xsd" version="1.1" creator="VisuGPX - https://www.visugpx.com">
  <metadata>
    <name>Grand Eulier retour par Casserousse</name>
    <desc><![CDATA[Trace AlpineQuest 06/02/2025 09:58:54]]></desc>
  </metadata>
  <trk>
    <name><![CDATA[visugpx_sKHEBeHjF6_1]]></name>
    <extensions>
      <line xmlns="http://www.topografix.com/GPX/gpx_style/0/2">
        <color>0000FF</color>
        <width>4</width>
      </line>
    </extensions>
    <trkseg>
      <trkpt lat="45.14043" lon="5.88862">
        <ele>1396.592</ele>
        <time>2025-02-06T08:58:54Z</time>
      </trkpt>
      <trkpt lat="45.14043" lon="5.88863">
        <ele>1400.249</ele>
        <time>2025-02-06T08:59:15Z</time>
      </trkpt>
      <trkpt lat="45.14043" lon="5.88863">
        <ele>1400.245</ele>
        <time>2025-02-06T08:59:35Z</time>
      </trkpt>
      <trkpt lat="45.14043" lon="5.88863">
        <ele>1399.8</ele>
        <time>2025-02-06T08:59:55Z</time>
      </trkpt>
      <trkpt lat="45.14043" lon="5.88863">
        <ele>1402.512</ele>
        <time>2025-02-06T09:00:16Z</time>
      </trkpt>
      <trkpt lat="45.14043" lon="5.88863">
        <ele>1401.188</ele>
        <time>2025-02-06T09:00:36Z</time>
      </trkpt>
      <trkpt lat="45.14043" lon="5.88863">
        <ele>1400.526</ele>
        <time>2025-02-06T09:00:56Z</time>
      </trkpt>
      <trkpt lat="45.14043" lon="5.88863">
        <ele>1400.517</ele>
        <time>2025-02-06T09:01:16Z</time>
      </trkpt>
      <trkpt lat="45.14043" lon="5.88863">
        <ele>1400.367</ele>
        <time>2025-02-06T09:01:36Z</time>
      </trkpt>
      <trkpt lat="45.14042" lon="5.88861">
        <ele>1398.281</ele>
        <time>2025-02-06T09:01:57Z</time>
      </trkpt>
      <trkpt lat="45.14042" lon="5.88861">
        <ele>1398.659</ele>
        <time>2025-02-06T09:02:18Z</time>
      </trkpt>
      <trkpt lat="45.14038" lon="5.88864">
        <ele>1400.187</ele>
        <time>2025-02-06T09:02:36Z</time>
      </trkpt>
      <trkpt lat="45.14034" lon="5.8887">
        <ele>1400.588</ele>
        <time>2025-02-06T09:02:40Z</time>
      </trkpt>
      <trkpt lat="45.14031" lon="5.88874">
        <ele>1401.698</ele>
        <time>2025-02-06T09:02:45Z</time>
      </trkpt>
      <trkpt lat="45.14026" lon="5.88878">
        <ele>1400.112</ele>
        <time>2025-02-06T09:02:52Z</time>
      </trkpt>
      <trkpt lat="45.14022" lon="5.8888">
        <ele>1400.604</ele>
        <time>2025-02-06T09:02:59Z</time>
      </trkpt>
      <trkpt lat="45.14018" lon="5.88883">
        <ele>1402.759</ele>
        <time>2025-02-06T09:03:04Z</time>
      </trkpt>
      <trkpt lat="45.14014" lon="5.88887">
        <ele>1401.479</ele>
        <time>2025-02-06T09:03:10Z</time>
      </trkpt>
      <trkpt lat="45.1401" lon="5.88891">
        <ele>1401.44</ele>
        <time>2025-02-06T09:03:16Z</time>
      </trkpt>
      <trkpt lat="45.14007" lon="5.88895">
        <ele>1402.132</ele>
        <time>2025-02-06T09:03:22Z</time>
      </trkpt>
      <trkpt lat="45.14002" lon="5.88899">
        <ele>1401.48</ele>
        <time>2025-02-06T09:03:28Z</time>
      </trkpt>
      <trkpt lat="45.13999" lon="5.88903">
        <ele>1403.398</ele>
        <time>2025-02-06T09:03:33Z</time>
      </trkpt>
      <trkpt lat="45.13995" lon="5.88908">
        <ele>1403.294</ele>
        <time>2025-02-06T09:03:39Z</time>
      </trkpt>
      <trkpt lat="45.13992" lon="5.88911">
        <ele>1402.868</ele>
        <time>2025-02-06T09:03:45Z</time>
      </trkpt>
      <trkpt lat="45.13988" lon="5.88916">
        <ele>1404.112</ele>
        <time>2025-02-06T09:03:51Z</time>
      </trkpt>
      <trkpt lat="45.13985" lon="5.88921">
        <ele>1406.898</ele>
        <time>2025-02-06T09:03:57Z</time>
      </trkpt>
      <trkpt lat="45.13981" lon="5.88924">
        <ele>1409.197</ele>
        <time>2025-02-06T09:04:03Z</time>
      </trkpt>
      <trkpt lat="45.13977" lon="5.88928">
        <ele>1408.009</ele>
        <time>2025-02-06T09:04:08Z</time>
      </trkpt>
      <trkpt lat="45.13972" lon="5.8893">
        <ele>1408.851</ele>
        <time>2025-02-06T09:04:13Z</time>
      </trkpt>
      <trkpt lat="45.13968" lon="5.88929">
        <ele>1409.334</ele>
        <time>2025-02-06T09:04:18Z</time>
      </trkpt>
      <trkpt lat="45.13965" lon="5.88924">
        <ele>1406.722</ele>
        <time>2025-02-06T09:04:24Z</time>
      </trkpt>
      <trkpt lat="45.13963" lon="5.88917">
        <ele>1407.169</ele>
        <time>2025-02-06T09:04:30Z</time>
      </trkpt>
      <trkpt lat="45.1396" lon="5.88912">
        <ele>1408.026</ele>
        <time>2025-02-06T09:04:39Z</time>
      </trkpt>
      <trkpt lat="45.13957" lon="5.88907">
        <ele>1407.758</ele>
        <time>2025-02-06T09:04:51Z</time>
      </trkpt>
      <trkpt lat="45.13955" lon="5.88901">
        <ele>1405.566</ele>
        <time>2025-02-06T09:04:58Z</time>
      </trkpt>
      <trkpt lat="45.13955" lon="5.88901">
        <ele>1407.238</ele>
        <time>2025-02-06T09:05:17Z</time>
      </trkpt>
      <trkpt lat="45.13955" lon="5.88901">
        <ele>1411.174</ele>
        <time>2025-02-06T09:05:36Z</time>
      </trkpt>
      <trkpt lat="45.13956" lon="5.88896">
        <ele>1412.295</ele>
        <time>2025-02-06T09:05:46Z</time>
      </trkpt>
      <trkpt lat="45.13956" lon="5.8889">
        <ele>1414.625</ele>
        <time>2025-02-06T09:05:54Z</time>
      </trkpt>
      <trkpt lat="45.13954" lon="5.88884">
        <ele>1416.593</ele>
        <time>2025-02-06T09:06:03Z</time>
      </trkpt>
      <trkpt lat="45.13955" lon="5.88877">
        <ele>1418.529</ele>
        <time>2025-02-06T09:06:11Z</time>
      </trkpt>
      <trkpt lat="45.13954" lon="5.88872">
        <ele>1421.097</ele>
        <time>2025-02-06T09:06:18Z</time>
      </trkpt>
      <trkpt lat="45.13954" lon="5.88867">
        <ele>1417.177</ele>
        <time>2025-02-06T09:06:27Z</time>
      </trkpt>
      <trkpt lat="45.13958" lon="5.88864">
        <ele>1417.066</ele>
        <time>2025-02-06T09:06:34Z</time>
      </trkpt>
      <trkpt lat="45.13958" lon="5.88857">
        <ele>1418.415</ele>
        <time>2025-02-06T09:06:44Z</time>
      </trkpt>
      <trkpt lat="45.13956" lon="5.88851">
        <ele>1419.888</ele>
        <time>2025-02-06T09:06:54Z</time>
      </trkpt>
      <trkpt lat="45.13956" lon="5.88851">
        <ele>1419.909</ele>
        <time>2025-02-06T09:07:14Z</time>
      </trkpt>
      <trkpt lat="45.13956" lon="5.88851">
        <ele>1421.423</ele>
        <time>2025-02-06T09:07:35Z</time>
      </trkpt>
      <trkpt lat="45.13956" lon="5.88851">
        <ele>1421.178</ele>
        <time>2025-02-06T09:07:56Z</time>
      </trkpt>
      <trkpt lat="45.13956" lon="5.88851">
        <ele>1421.245</ele>
        <time>2025-02-06T09:08:16Z</time>
      </trkpt>
      <trkpt lat="45.13956" lon="5.88851">
        <ele>1420.213</ele>
        <time>2025-02-06T09:08:37Z</time>
      </trkpt>
      <trkpt lat="45.13956" lon="5.88851">
        <ele>1420.74</ele>
        <time>2025-02-06T09:08:57Z</time>
      </trkpt>
      <trkpt lat="45.13955" lon="5.88852">
        <ele>1420.897</ele>
        <time>2025-02-06T09:09:17Z</time>
      </trkpt>
      <trkpt lat="45.13954" lon="5.88851">
        <ele>1421.775</ele>
        <time>2025-02-06T09:09:38Z</time>
      </trkpt>
      <trkpt lat="45.1395" lon="5.88849">
        <ele>1420.586</ele>
        <time>2025-02-06T09:09:47Z</time>
      </trkpt>
      <trkpt lat="45.13945" lon="5.88847">
        <ele>1419.91</ele>
        <time>2025-02-06T09:09:57Z</time>
      </trkpt>
      <trkpt lat="45.13941" lon="5.88844">
        <ele>1420.41</ele>
        <time>2025-02-06T09:10:05Z</time>
      </trkpt>
      <trkpt lat="45.13937" lon="5.88844">
        <ele>1423.682</ele>
        <time>2025-02-06T09:10:11Z</time>
      </trkpt>
      <trkpt lat="45.13933" lon="5.88842">
        <ele>1425.449</ele>
        <time>2025-02-06T09:10:22Z</time>
      </trkpt>
      <trkpt lat="45.13929" lon="5.88842">
        <ele>1426.482</ele>
        <time>2025-02-06T09:10:31Z</time>
      </trkpt>
      <trkpt lat="45.13924" lon="5.88839">
        <ele>1427.559</ele>
        <time>2025-02-06T09:10:44Z</time>
      </trkpt>
      <trkpt lat="45.1392" lon="5.8884">
        <ele>1430.082</ele>
        <time>2025-02-06T09:10:53Z</time>
      </trkpt>
      <trkpt lat="45.13916" lon="5.88839">
        <ele>1432.385</ele>
        <time>2025-02-06T09:11:04Z</time>
      </trkpt>
      <trkpt lat="45.13913" lon="5.88836">
        <ele>1432.215</ele>
        <time>2025-02-06T09:11:25Z</time>
      </trkpt>
      <trkpt lat="45.1391" lon="5.88836">
        <ele>1434.117</ele>
        <time>2025-02-06T09:11:45Z</time>
      </trkpt>
      <trkpt lat="45.1391" lon="5.88836">
        <ele>1434.096</ele>
        <time>2025-02-06T09:12:05Z</time>
      </trkpt>
      <trkpt lat="45.1391" lon="5.88836">
        <ele>1434.682</ele>
        <time>2025-02-06T09:12:26Z</time>
      </trkpt>
      <trkpt lat="45.1391" lon="5.88836">
        <ele>1434.747</ele>
        <time>2025-02-06T09:12:47Z</time>
      </trkpt>
      <trkpt lat="45.13909" lon="5.88837">
        <ele>1434.038</ele>
        <time>2025-02-06T09:13:07Z</time>
      </trkpt>
      <trkpt lat="45.13909" lon="5.88837">
        <ele>1431.281</ele>
        <time>2025-02-06T09:13:27Z</time>
      </trkpt>
      <trkpt lat="45.13909" lon="5.88837">
        <ele>1431.292</ele>
        <time>2025-02-06T09:13:48Z</time>
      </trkpt>
      <trkpt lat="45.13909" lon="5.88837">
        <ele>1429.988</ele>
        <time>2025-02-06T09:14:09Z</time>
      </trkpt>
      <trkpt lat="45.13909" lon="5.88837">
        <ele>1430.055</ele>
        <time>2025-02-06T09:14:30Z</time>
      </trkpt>
      <trkpt lat="45.13909" lon="5.88837">
        <ele>1429.971</ele>
        <time>2025-02-06T09:14:51Z</time>
      </trkpt>
      <trkpt lat="45.13909" lon="5.88837">
        <ele>1429.986</ele>
        <time>2025-02-06T09:15:12Z</time>
      </trkpt>
      <trkpt lat="45.13909" lon="5.88837">
        <ele>1430.408</ele>
        <time>2025-02-06T09:15:33Z</time>
      </trkpt>
      <trkpt lat="45.13908" lon="5.88834">
        <ele>1432.927</ele>
        <time>2025-02-06T09:15:54Z</time>
      </trkpt>
      <trkpt lat="45.13907" lon="5.88828">
        <ele>1436.444</ele>
        <time>2025-02-06T09:16:00Z</time>
      </trkpt>
      <trkpt lat="45.13903" lon="5.88824">
        <ele>1437.228</ele>
        <time>2025-02-06T09:16:09Z</time>
      </trkpt>
      <trkpt lat="45.13901" lon="5.88819">
        <ele>1440.17</ele>
        <time>2025-02-06T09:16:15Z</time>
      </trkpt>
      <trkpt lat="45.13901" lon="5.88812">
        <ele>1441.612</ele>
        <time>2025-02-06T09:16:26Z</time>
      </trkpt>
      <trkpt lat="45.13901" lon="5.88806">
        <ele>1441.323</ele>
        <time>2025-02-06T09:16:36Z</time>
      </trkpt>
      <trkpt lat="45.139" lon="5.888">
        <ele>1443.459</ele>
        <time>2025-02-06T09:16:45Z</time>
      </trkpt>
      <trkpt lat="45.13898" lon="5.88794">
        <ele>1443.788</ele>
        <time>2025-02-06T09:16:52Z</time>
      </trkpt>
      <trkpt lat="45.13896" lon="5.88788">
        <ele>1443.705</ele>
        <time>2025-02-06T09:17:01Z</time>
      </trkpt>
      <trkpt lat="45.13893" lon="5.88783">
        <ele>1443.299</ele>
        <time>2025-02-06T09:17:10Z</time>
      </trkpt>
      <trkpt lat="45.1389" lon="5.88779">
        <ele>1445.708</ele>
        <time>2025-02-06T09:17:18Z</time>
      </trkpt>
      <trkpt lat="45.13887" lon="5.88774">
        <ele>1444.204</ele>
        <time>2025-02-06T09:17:29Z</time>
      </trkpt>
      <trkpt lat="45.13883" lon="5.88771">
        <ele>1445.778</ele>
        <time>2025-02-06T09:17:43Z</time>
      </trkpt>
      <trkpt lat="45.13879" lon="5.88771">
        <ele>1447.485</ele>
        <time>2025-02-06T09:17:53Z</time>
      </trkpt>
      <trkpt lat="45.13875" lon="5.88768">
        <ele>1447.652</ele>
        <time>2025-02-06T09:18:05Z</time>
      </trkpt>
      <trkpt lat="45.1387" lon="5.88766">
        <ele>1447.898</ele>
        <time>2025-02-06T09:18:14Z</time>
      </trkpt>
      <trkpt lat="45.13865" lon="5.88767">
        <ele>1448.533</ele>
        <time>2025-02-06T09:18:26Z</time>
      </trkpt>
      <trkpt lat="45.13861" lon="5.88768">
        <ele>1450.2</ele>
        <time>2025-02-06T09:18:36Z</time>
      </trkpt>
      <trkpt lat="45.13857" lon="5.8877">
        <ele>1450.318</ele>
        <time>2025-02-06T09:18:47Z</time>
      </trkpt>
      <trkpt lat="45.13852" lon="5.88771">
        <ele>1452.144</ele>
        <time>2025-02-06T09:18:57Z</time>
      </trkpt>
      <trkpt lat="45.13848" lon="5.8877">
        <ele>1454.288</ele>
        <time>2025-02-06T09:19:07Z</time>
      </trkpt>
      <trkpt lat="45.13844" lon="5.8877">
        <ele>1456.723</ele>
        <time>2025-02-06T09:19:15Z</time>
      </trkpt>
      <trkpt lat="45.13839" lon="5.88769">
        <ele>1456.537</ele>
        <time>2025-02-06T09:19:24Z</time>
      </trkpt>
      <trkpt lat="45.13837" lon="5.88762">
        <ele>1457.933</ele>
        <time>2025-02-06T09:19:35Z</time>
      </trkpt>
      <trkpt lat="45.13837" lon="5.88757">
        <ele>1461.698</ele>
        <time>2025-02-06T09:19:42Z</time>
      </trkpt>
      <trkpt lat="45.13834" lon="5.88755">
        <ele>1461.247</ele>
        <time>2025-02-06T09:20:02Z</time>
      </trkpt>
      <trkpt lat="45.13829" lon="5.88756">
        <ele>1461.957</ele>
        <time>2025-02-06T09:20:10Z</time>
      </trkpt>
      <trkpt lat="45.13825" lon="5.88757">
        <ele>1465.785</ele>
        <time>2025-02-06T09:20:17Z</time>
      </trkpt>
      <trkpt lat="45.1382" lon="5.88758">
        <ele>1466.074</ele>
        <time>2025-02-06T09:20:27Z</time>
      </trkpt>
      <trkpt lat="45.13816" lon="5.88759">
        <ele>1466.992</ele>
        <time>2025-02-06T09:20:37Z</time>
      </trkpt>
      <trkpt lat="45.13811" lon="5.88758">
        <ele>1465.622</ele>
        <time>2025-02-06T09:20:46Z</time>
      </trkpt>
      <trkpt lat="45.13806" lon="5.88758">
        <ele>1468.222</ele>
        <time>2025-02-06T09:20:54Z</time>
      </trkpt>
      <trkpt lat="45.13802" lon="5.88757">
        <ele>1467.763</ele>
        <time>2025-02-06T09:21:05Z</time>
      </trkpt>
      <trkpt lat="45.13797" lon="5.88755">
        <ele>1466.948</ele>
        <time>2025-02-06T09:21:24Z</time>
      </trkpt>
      <trkpt lat="45.13794" lon="5.88756">
        <ele>1470.855</ele>
        <time>2025-02-06T09:21:30Z</time>
      </trkpt>
      <trkpt lat="45.1379" lon="5.88758">
        <ele>1472.916</ele>
        <time>2025-02-06T09:21:38Z</time>
      </trkpt>
      <trkpt lat="45.13785" lon="5.88758">
        <ele>1473.217</ele>
        <time>2025-02-06T09:21:49Z</time>
      </trkpt>
      <trkpt lat="45.13781" lon="5.88755">
        <ele>1473.951</ele>
        <time>2025-02-06T09:22:01Z</time>
      </trkpt>
      <trkpt lat="45.13776" lon="5.88755">
        <ele>1472.911</ele>
        <time>2025-02-06T09:22:19Z</time>
      </trkpt>
      <trkpt lat="45.13775" lon="5.88755">
        <ele>1472.643</ele>
        <time>2025-02-06T09:22:40Z</time>
      </trkpt>
      <trkpt lat="45.13773" lon="5.8876">
        <ele>1474.318</ele>
        <time>2025-02-06T09:23:00Z</time>
      </trkpt>
      <trkpt lat="45.1377" lon="5.88765">
        <ele>1476.64</ele>
        <time>2025-02-06T09:23:05Z</time>
      </trkpt>
      <trkpt lat="45.13766" lon="5.88766">
        <ele>1478.276</ele>
        <time>2025-02-06T09:23:18Z</time>
      </trkpt>
      <trkpt lat="45.13766" lon="5.88766">
        <ele>1478.479</ele>
        <time>2025-02-06T09:23:39Z</time>
      </trkpt>
      <trkpt lat="45.13766" lon="5.88766">
        <ele>1480.893</ele>
        <time>2025-02-06T09:23:59Z</time>
      </trkpt>
      <trkpt lat="45.13766" lon="5.88766">
        <ele>1483.258</ele>
        <time>2025-02-06T09:24:14Z</time>
      </trkpt>
      <trkpt lat="45.13757" lon="5.88756">
        <ele>1481.916</ele>
        <time>2025-02-06T09:24:34Z</time>
      </trkpt>
      <trkpt lat="45.13753" lon="5.88758">
        <ele>1484.509</ele>
        <time>2025-02-06T09:24:47Z</time>
      </trkpt>
      <trkpt lat="45.13751" lon="5.88763">
        <ele>1485.857</ele>
        <time>2025-02-06T09:24:57Z</time>
      </trkpt>
      <trkpt lat="45.13747" lon="5.88763">
        <ele>1488.865</ele>
        <time>2025-02-06T09:25:06Z</time>
      </trkpt>
      <trkpt lat="45.13745" lon="5.88758">
        <ele>1491.087</ele>
        <time>2025-02-06T09:25:11Z</time>
      </trkpt>
      <trkpt lat="45.13741" lon="5.88757">
        <ele>1488.89</ele>
        <time>2025-02-06T09:25:27Z</time>
      </trkpt>
      <trkpt lat="45.13738" lon="5.88759">
        <ele>1490.456</ele>
        <time>2025-02-06T09:25:48Z</time>
      </trkpt>
      <trkpt lat="45.13736" lon="5.88763">
        <ele>1493.349</ele>
        <time>2025-02-06T09:25:58Z</time>
      </trkpt>
      <trkpt lat="45.13732" lon="5.88768">
        <ele>1493.504</ele>
        <time>2025-02-06T09:26:11Z</time>
      </trkpt>
      <trkpt lat="45.13728" lon="5.88769">
        <ele>1494.825</ele>
        <time>2025-02-06T09:26:29Z</time>
      </trkpt>
      <trkpt lat="45.13728" lon="5.8877">
        <ele>1494.917</ele>
        <time>2025-02-06T09:26:49Z</time>
      </trkpt>
      <trkpt lat="45.13728" lon="5.8877">
        <ele>1495.102</ele>
        <time>2025-02-06T09:27:10Z</time>
      </trkpt>
      <trkpt lat="45.13724" lon="5.88772">
        <ele>1497.873</ele>
        <time>2025-02-06T09:27:22Z</time>
      </trkpt>
      <trkpt lat="45.1372" lon="5.88777">
        <ele>1499.088</ele>
        <time>2025-02-06T09:27:34Z</time>
      </trkpt>
      <trkpt lat="45.13716" lon="5.88776">
        <ele>1499.941</ele>
        <time>2025-02-06T09:27:54Z</time>
      </trkpt>
      <trkpt lat="45.13711" lon="5.88776">
        <ele>1501.038</ele>
        <time>2025-02-06T09:28:04Z</time>
      </trkpt>
      <trkpt lat="45.13706" lon="5.88777">
        <ele>1503.121</ele>
        <time>2025-02-06T09:28:10Z</time>
      </trkpt>
      <trkpt lat="45.13702" lon="5.88778">
        <ele>1505.234</ele>
        <time>2025-02-06T09:28:20Z</time>
      </trkpt>
      <trkpt lat="45.13697" lon="5.88777">
        <ele>1506.058</ele>
        <time>2025-02-06T09:28:35Z</time>
      </trkpt>
      <trkpt lat="45.13693" lon="5.88776">
        <ele>1507.424</ele>
        <time>2025-02-06T09:28:49Z</time>
      </trkpt>
      <trkpt lat="45.13689" lon="5.88775">
        <ele>1510.132</ele>
        <time>2025-02-06T09:29:00Z</time>
      </trkpt>
      <trkpt lat="45.13685" lon="5.88775">
        <ele>1507.511</ele>
        <time>2025-02-06T09:29:09Z</time>
      </trkpt>
      <trkpt lat="45.1368" lon="5.88773">
        <ele>1508.554</ele>
        <time>2025-02-06T09:29:20Z</time>
      </trkpt>
      <trkpt lat="45.13676" lon="5.88772">
        <ele>1508.181</ele>
        <time>2025-02-06T09:29:30Z</time>
      </trkpt>
      <trkpt lat="45.13672" lon="5.8877">
        <ele>1510.543</ele>
        <time>2025-02-06T09:29:37Z</time>
      </trkpt>
      <trkpt lat="45.13667" lon="5.8877">
        <ele>1511.357</ele>
        <time>2025-02-06T09:29:50Z</time>
      </trkpt>
      <trkpt lat="45.13663" lon="5.8877">
        <ele>1514.75</ele>
        <time>2025-02-06T09:29:59Z</time>
      </trkpt>
      <trkpt lat="45.13659" lon="5.8877">
        <ele>1516.548</ele>
        <time>2025-02-06T09:30:13Z</time>
      </trkpt>
      <trkpt lat="45.13654" lon="5.88771">
        <ele>1517.765</ele>
        <time>2025-02-06T09:30:23Z</time>
      </trkpt>
      <trkpt lat="45.1365" lon="5.88772">
        <ele>1516.149</ele>
        <time>2025-02-06T09:30:34Z</time>
      </trkpt>
      <trkpt lat="45.13645" lon="5.88773">
        <ele>1517.706</ele>
        <time>2025-02-06T09:30:44Z</time>
      </trkpt>
      <trkpt lat="45.13641" lon="5.88773">
        <ele>1519.774</ele>
        <time>2025-02-06T09:30:53Z</time>
      </trkpt>
      <trkpt lat="45.13637" lon="5.88771">
        <ele>1519.596</ele>
        <time>2025-02-06T09:31:11Z</time>
      </trkpt>
      <trkpt lat="45.13632" lon="5.88771">
        <ele>1521.399</ele>
        <time>2025-02-06T09:31:24Z</time>
      </trkpt>
      <trkpt lat="45.13628" lon="5.88771">
        <ele>1523.748</ele>
        <time>2025-02-06T09:31:33Z</time>
      </trkpt>
      <trkpt lat="45.13624" lon="5.88772">
        <ele>1521.363</ele>
        <time>2025-02-06T09:31:44Z</time>
      </trkpt>
      <trkpt lat="45.13619" lon="5.88772">
        <ele>1520.29</ele>
        <time>2025-02-06T09:31:55Z</time>
      </trkpt>
      <trkpt lat="45.13616" lon="5.88772">
        <ele>1523.481</ele>
        <time>2025-02-06T09:32:04Z</time>
      </trkpt>
      <trkpt lat="45.13611" lon="5.88773">
        <ele>1523.866</ele>
        <time>2025-02-06T09:32:21Z</time>
      </trkpt>
      <trkpt lat="45.13606" lon="5.88772">
        <ele>1525.82</ele>
        <time>2025-02-06T09:32:33Z</time>
      </trkpt>
      <trkpt lat="45.13602" lon="5.88773">
        <ele>1524.744</ele>
        <time>2025-02-06T09:32:44Z</time>
      </trkpt>
      <trkpt lat="45.13598" lon="5.88769">
        <ele>1526.145</ele>
        <time>2025-02-06T09:32:52Z</time>
      </trkpt>
      <trkpt lat="45.13594" lon="5.88767">
        <ele>1528.368</ele>
        <time>2025-02-06T09:33:09Z</time>
      </trkpt>
      <trkpt lat="45.13589" lon="5.88768">
        <ele>1530.235</ele>
        <time>2025-02-06T09:33:27Z</time>
      </trkpt>
      <trkpt lat="45.13585" lon="5.8877">
        <ele>1531.06</ele>
        <time>2025-02-06T09:33:40Z</time>
      </trkpt>
      <trkpt lat="45.13581" lon="5.88769">
        <ele>1534.648</ele>
        <time>2025-02-06T09:33:54Z</time>
      </trkpt>
      <trkpt lat="45.13578" lon="5.88765">
        <ele>1535.753</ele>
        <time>2025-02-06T09:34:07Z</time>
      </trkpt>
      <trkpt lat="45.13573" lon="5.88766">
        <ele>1537.218</ele>
        <time>2025-02-06T09:34:23Z</time>
      </trkpt>
      <trkpt lat="45.13569" lon="5.88767">
        <ele>1539.723</ele>
        <time>2025-02-06T09:34:39Z</time>
      </trkpt>
      <trkpt lat="45.13564" lon="5.88767">
        <ele>1540.316</ele>
        <time>2025-02-06T09:34:55Z</time>
      </trkpt>
      <trkpt lat="45.1356" lon="5.88768">
        <ele>1542.093</ele>
        <time>2025-02-06T09:35:08Z</time>
      </trkpt>
      <trkpt lat="45.13556" lon="5.88769">
        <ele>1544.916</ele>
        <time>2025-02-06T09:35:19Z</time>
      </trkpt>
      <trkpt lat="45.13552" lon="5.88769">
        <ele>1546.754</ele>
        <time>2025-02-06T09:35:31Z</time>
      </trkpt>
      <trkpt lat="45.13548" lon="5.88768">
        <ele>1548.734</ele>
        <time>2025-02-06T09:35:49Z</time>
      </trkpt>
      <trkpt lat="45.13543" lon="5.88767">
        <ele>1549.544</ele>
        <time>2025-02-06T09:36:01Z</time>
      </trkpt>
      <trkpt lat="45.13539" lon="5.88767">
        <ele>1551.342</ele>
        <time>2025-02-06T09:36:11Z</time>
      </trkpt>
      <trkpt lat="45.13535" lon="5.88769">
        <ele>1553.329</ele>
        <time>2025-02-06T09:36:25Z</time>
      </trkpt>
      <trkpt lat="45.1353" lon="5.88769">
        <ele>1555.055</ele>
        <time>2025-02-06T09:36:34Z</time>
      </trkpt>
      <trkpt lat="45.13526" lon="5.88769">
        <ele>1556.292</ele>
        <time>2025-02-06T09:36:50Z</time>
      </trkpt>
      <trkpt lat="45.13521" lon="5.88766">
        <ele>1555.116</ele>
        <time>2025-02-06T09:37:03Z</time>
      </trkpt>
      <trkpt lat="45.1352" lon="5.88767">
        <ele>1555.644</ele>
        <time>2025-02-06T09:37:24Z</time>
      </trkpt>
      <trkpt lat="45.13519" lon="5.88769">
        <ele>1560.327</ele>
        <time>2025-02-06T09:37:33Z</time>
      </trkpt>
      <trkpt lat="45.13515" lon="5.88766">
        <ele>1560.662</ele>
        <time>2025-02-06T09:37:49Z</time>
      </trkpt>
      <trkpt lat="45.1351" lon="5.88764">
        <ele>1561.19</ele>
        <time>2025-02-06T09:37:59Z</time>
      </trkpt>
      <trkpt lat="45.13506" lon="5.88762">
        <ele>1562.363</ele>
        <time>2025-02-06T09:38:05Z</time>
      </trkpt>
      <trkpt lat="45.13502" lon="5.88759">
        <ele>1562.213</ele>
        <time>2025-02-06T09:38:19Z</time>
      </trkpt>
      <trkpt lat="45.13497" lon="5.88759">
        <ele>1564.369</ele>
        <time>2025-02-06T09:38:32Z</time>
      </trkpt>
      <trkpt lat="45.13493" lon="5.8876">
        <ele>1565.871</ele>
        <time>2025-02-06T09:38:41Z</time>
      </trkpt>
      <trkpt lat="45.13488" lon="5.88758">
        <ele>1565.977</ele>
        <time>2025-02-06T09:38:50Z</time>
      </trkpt>
      <trkpt lat="45.13484" lon="5.88756">
        <ele>1564.022</ele>
        <time>2025-02-06T09:39:06Z</time>
      </trkpt>
      <trkpt lat="45.13481" lon="5.88755">
        <ele>1568.631</ele>
        <time>2025-02-06T09:39:16Z</time>
      </trkpt>
      <trkpt lat="45.13476" lon="5.88755">
        <ele>1568.365</ele>
        <time>2025-02-06T09:39:24Z</time>
      </trkpt>
      <trkpt lat="45.13471" lon="5.88753">
        <ele>1567.834</ele>
        <time>2025-02-06T09:39:37Z</time>
      </trkpt>
      <trkpt lat="45.13467" lon="5.88754">
        <ele>1568.851</ele>
        <time>2025-02-06T09:39:50Z</time>
      </trkpt>
      <trkpt lat="45.13462" lon="5.88754">
        <ele>1569.056</ele>
        <time>2025-02-06T09:39:57Z</time>
      </trkpt>
      <trkpt lat="45.13457" lon="5.88754">
        <ele>1570.691</ele>
        <time>2025-02-06T09:40:11Z</time>
      </trkpt>
      <trkpt lat="45.13453" lon="5.88753">
        <ele>1571.438</ele>
        <time>2025-02-06T09:40:25Z</time>
      </trkpt>
      <trkpt lat="45.13449" lon="5.88755">
        <ele>1575.061</ele>
        <time>2025-02-06T09:40:38Z</time>
      </trkpt>
      <trkpt lat="45.13448" lon="5.88752">
        <ele>1579.135</ele>
        <time>2025-02-06T09:40:53Z</time>
      </trkpt>
      <trkpt lat="45.13444" lon="5.8875">
        <ele>1576.19</ele>
        <time>2025-02-06T09:41:01Z</time>
      </trkpt>
      <trkpt lat="45.13439" lon="5.8875">
        <ele>1576.65</ele>
        <time>2025-02-06T09:41:21Z</time>
      </trkpt>
      <trkpt lat="45.13435" lon="5.8875">
        <ele>1576.799</ele>
        <time>2025-02-06T09:41:31Z</time>
      </trkpt>
      <trkpt lat="45.13431" lon="5.88751">
        <ele>1580.063</ele>
        <time>2025-02-06T09:41:50Z</time>
      </trkpt>
      <trkpt lat="45.13427" lon="5.88751">
        <ele>1582.353</ele>
        <time>2025-02-06T09:42:00Z</time>
      </trkpt>
      <trkpt lat="45.13423" lon="5.88754">
        <ele>1584.007</ele>
        <time>2025-02-06T09:42:19Z</time>
      </trkpt>
      <trkpt lat="45.13418" lon="5.88752">
        <ele>1585.785</ele>
        <time>2025-02-06T09:42:32Z</time>
      </trkpt>
      <trkpt lat="45.13415" lon="5.8875">
        <ele>1588.663</ele>
        <time>2025-02-06T09:42:46Z</time>
      </trkpt>
      <trkpt lat="45.1341" lon="5.88749">
        <ele>1589.397</ele>
        <time>2025-02-06T09:43:04Z</time>
      </trkpt>
      <trkpt lat="45.13407" lon="5.88751">
        <ele>1592.531</ele>
        <time>2025-02-06T09:43:24Z</time>
      </trkpt>
      <trkpt lat="45.13403" lon="5.8875">
        <ele>1595.792</ele>
        <time>2025-02-06T09:43:34Z</time>
      </trkpt>
      <trkpt lat="45.134" lon="5.8875">
        <ele>1597.268</ele>
        <time>2025-02-06T09:43:54Z</time>
      </trkpt>
      <trkpt lat="45.13395" lon="5.88752">
        <ele>1598.503</ele>
        <time>2025-02-06T09:44:12Z</time>
      </trkpt>
      <trkpt lat="45.13391" lon="5.88752">
        <ele>1601.286</ele>
        <time>2025-02-06T09:44:28Z</time>
      </trkpt>
      <trkpt lat="45.1339" lon="5.88753">
        <ele>1604.206</ele>
        <time>2025-02-06T09:44:48Z</time>
      </trkpt>
      <trkpt lat="45.13385" lon="5.88756">
        <ele>1604.794</ele>
        <time>2025-02-06T09:45:07Z</time>
      </trkpt>
      <trkpt lat="45.13382" lon="5.88757">
        <ele>1607.994</ele>
        <time>2025-02-06T09:45:20Z</time>
      </trkpt>
      <trkpt lat="45.13378" lon="5.88759">
        <ele>1610.862</ele>
        <time>2025-02-06T09:45:27Z</time>
      </trkpt>
      <trkpt lat="45.13374" lon="5.88754">
        <ele>1611.577</ele>
        <time>2025-02-06T09:45:43Z</time>
      </trkpt>
      <trkpt lat="45.1337" lon="5.88755">
        <ele>1611.997</ele>
        <time>2025-02-06T09:45:50Z</time>
      </trkpt>
      <trkpt lat="45.13366" lon="5.88756">
        <ele>1609.592</ele>
        <time>2025-02-06T09:46:05Z</time>
      </trkpt>
      <trkpt lat="45.13361" lon="5.88758">
        <ele>1610.845</ele>
        <time>2025-02-06T09:46:18Z</time>
      </trkpt>
      <trkpt lat="45.13361" lon="5.88763">
        <ele>1614.567</ele>
        <time>2025-02-06T09:46:29Z</time>
      </trkpt>
      <trkpt lat="45.13356" lon="5.88761">
        <ele>1615.821</ele>
        <time>2025-02-06T09:46:40Z</time>
      </trkpt>
      <trkpt lat="45.13355" lon="5.88763">
        <ele>1620.625</ele>
        <time>2025-02-06T09:46:47Z</time>
      </trkpt>
      <trkpt lat="45.13351" lon="5.88762">
        <ele>1619.476</ele>
        <time>2025-02-06T09:46:56Z</time>
      </trkpt>
      <trkpt lat="45.13349" lon="5.88757">
        <ele>1622.621</ele>
        <time>2025-02-06T09:47:06Z</time>
      </trkpt>
      <trkpt lat="45.13346" lon="5.88753">
        <ele>1624.787</ele>
        <time>2025-02-06T09:47:17Z</time>
      </trkpt>
      <trkpt lat="45.13342" lon="5.88757">
        <ele>1627.64</ele>
        <time>2025-02-06T09:47:35Z</time>
      </trkpt>
      <trkpt lat="45.13338" lon="5.88758">
        <ele>1625.736</ele>
        <time>2025-02-06T09:47:46Z</time>
      </trkpt>
      <trkpt lat="45.13334" lon="5.88755">
        <ele>1627.285</ele>
        <time>2025-02-06T09:47:57Z</time>
      </trkpt>
      <trkpt lat="45.13329" lon="5.88756">
        <ele>1627.123</ele>
        <time>2025-02-06T09:48:17Z</time>
      </trkpt>
      <trkpt lat="45.13324" lon="5.88756">
        <ele>1628.231</ele>
        <time>2025-02-06T09:48:28Z</time>
      </trkpt>
      <trkpt lat="45.1332" lon="5.88756">
        <ele>1629.539</ele>
        <time>2025-02-06T09:48:45Z</time>
      </trkpt>
      <trkpt lat="45.13319" lon="5.88761">
        <ele>1632.633</ele>
        <time>2025-02-06T09:48:59Z</time>
      </trkpt>
      <trkpt lat="45.13318" lon="5.88767">
        <ele>1633.009</ele>
        <time>2025-02-06T09:49:14Z</time>
      </trkpt>
      <trkpt lat="45.13317" lon="5.88774">
        <ele>1632.07</ele>
        <time>2025-02-06T09:49:22Z</time>
      </trkpt>
      <trkpt lat="45.13314" lon="5.88778">
        <ele>1629.536</ele>
        <time>2025-02-06T09:49:29Z</time>
      </trkpt>
      <trkpt lat="45.13313" lon="5.88785">
        <ele>1627.675</ele>
        <time>2025-02-06T09:49:39Z</time>
      </trkpt>
      <trkpt lat="45.13312" lon="5.88792">
        <ele>1627.1</ele>
        <time>2025-02-06T09:49:49Z</time>
      </trkpt>
      <trkpt lat="45.13311" lon="5.88798">
        <ele>1625.751</ele>
        <time>2025-02-06T09:49:55Z</time>
      </trkpt>
      <trkpt lat="45.13311" lon="5.88804">
        <ele>1626.537</ele>
        <time>2025-02-06T09:50:03Z</time>
      </trkpt>
      <trkpt lat="45.13312" lon="5.88812">
        <ele>1625.926</ele>
        <time>2025-02-06T09:50:13Z</time>
      </trkpt>
      <trkpt lat="45.13313" lon="5.88818">
        <ele>1627.514</ele>
        <time>2025-02-06T09:50:20Z</time>
      </trkpt>
      <trkpt lat="45.13312" lon="5.88824">
        <ele>1628.069</ele>
        <time>2025-02-06T09:50:40Z</time>
      </trkpt>
      <trkpt lat="45.13312" lon="5.88824">
        <ele>1628.247</ele>
        <time>2025-02-06T09:51:01Z</time>
      </trkpt>
      <trkpt lat="45.13312" lon="5.88824">
        <ele>1628.591</ele>
        <time>2025-02-06T09:51:21Z</time>
      </trkpt>
      <trkpt lat="45.13312" lon="5.88828">
        <ele>1628.57</ele>
        <time>2025-02-06T09:51:31Z</time>
      </trkpt>
      <trkpt lat="45.13314" lon="5.88834">
        <ele>1628.658</ele>
        <time>2025-02-06T09:51:37Z</time>
      </trkpt>
      <trkpt lat="45.13317" lon="5.88839">
        <ele>1628.805</ele>
        <time>2025-02-06T09:51:55Z</time>
      </trkpt>
      <trkpt lat="45.13321" lon="5.88844">
        <ele>1630.38</ele>
        <time>2025-02-06T09:52:02Z</time>
      </trkpt>
      <trkpt lat="45.13324" lon="5.88849">
        <ele>1630.853</ele>
        <time>2025-02-06T09:52:09Z</time>
      </trkpt>
      <trkpt lat="45.13328" lon="5.88854">
        <ele>1631.627</ele>
        <time>2025-02-06T09:52:16Z</time>
      </trkpt>
      <trkpt lat="45.13332" lon="5.88859">
        <ele>1631.303</ele>
        <time>2025-02-06T09:52:23Z</time>
      </trkpt>
      <trkpt lat="45.13336" lon="5.88864">
        <ele>1631.252</ele>
        <time>2025-02-06T09:52:29Z</time>
      </trkpt>
      <trkpt lat="45.13339" lon="5.88869">
        <ele>1632.924</ele>
        <time>2025-02-06T09:52:37Z</time>
      </trkpt>
      <trkpt lat="45.13343" lon="5.88874">
        <ele>1633.243</ele>
        <time>2025-02-06T09:52:43Z</time>
      </trkpt>
      <trkpt lat="45.13346" lon="5.88879">
        <ele>1634.038</ele>
        <time>2025-02-06T09:52:50Z</time>
      </trkpt>
      <trkpt lat="45.13349" lon="5.88885">
        <ele>1633.569</ele>
        <time>2025-02-06T09:52:57Z</time>
      </trkpt>
      <trkpt lat="45.13352" lon="5.88891">
        <ele>1634.072</ele>
        <time>2025-02-06T09:53:06Z</time>
      </trkpt>
      <trkpt lat="45.13354" lon="5.88896">
        <ele>1634.322</ele>
        <time>2025-02-06T09:53:15Z</time>
      </trkpt>
      <trkpt lat="45.13354" lon="5.88903">
        <ele>1633.305</ele>
        <time>2025-02-06T09:53:22Z</time>
      </trkpt>
      <trkpt lat="45.13357" lon="5.88907">
        <ele>1635.563</ele>
        <time>2025-02-06T09:53:30Z</time>
      </trkpt>
      <trkpt lat="45.1336" lon="5.88912">
        <ele>1636.705</ele>
        <time>2025-02-06T09:53:38Z</time>
      </trkpt>
      <trkpt lat="45.13362" lon="5.88919">
        <ele>1634.976</ele>
        <time>2025-02-06T09:53:46Z</time>
      </trkpt>
      <trkpt lat="45.13363" lon="5.88925">
        <ele>1635.139</ele>
        <time>2025-02-06T09:53:57Z</time>
      </trkpt>
      <trkpt lat="45.13363" lon="5.88932">
        <ele>1636.249</ele>
        <time>2025-02-06T09:54:07Z</time>
      </trkpt>
      <trkpt lat="45.13362" lon="5.88937">
        <ele>1633.133</ele>
        <time>2025-02-06T09:54:12Z</time>
      </trkpt>
      <trkpt lat="45.13363" lon="5.88943">
        <ele>1635.586</ele>
        <time>2025-02-06T09:54:17Z</time>
      </trkpt>
      <trkpt lat="45.13365" lon="5.88948">
        <ele>1638.395</ele>
        <time>2025-02-06T09:54:23Z</time>
      </trkpt>
      <trkpt lat="45.13365" lon="5.88955">
        <ele>1638.438</ele>
        <time>2025-02-06T09:54:32Z</time>
      </trkpt>
      <trkpt lat="45.13364" lon="5.88958">
        <ele>1642.883</ele>
        <time>2025-02-06T09:54:44Z</time>
      </trkpt>
      <trkpt lat="45.13364" lon="5.88963">
        <ele>1646.281</ele>
        <time>2025-02-06T09:54:51Z</time>
      </trkpt>
      <trkpt lat="45.13365" lon="5.88967">
        <ele>1648.704</ele>
        <time>2025-02-06T09:55:11Z</time>
      </trkpt>
      <trkpt lat="45.13367" lon="5.88974">
        <ele>1648.272</ele>
        <time>2025-02-06T09:55:24Z</time>
      </trkpt>
      <trkpt lat="45.13368" lon="5.8898">
        <ele>1648.292</ele>
        <time>2025-02-06T09:55:41Z</time>
      </trkpt>
      <trkpt lat="45.13369" lon="5.88986">
        <ele>1650.413</ele>
        <time>2025-02-06T09:55:58Z</time>
      </trkpt>
      <trkpt lat="45.13372" lon="5.8899">
        <ele>1648.939</ele>
        <time>2025-02-06T09:56:16Z</time>
      </trkpt>
      <trkpt lat="45.13374" lon="5.88995">
        <ele>1649.229</ele>
        <time>2025-02-06T09:56:36Z</time>
      </trkpt>
      <trkpt lat="45.13376" lon="5.89">
        <ele>1651.542</ele>
        <time>2025-02-06T09:56:45Z</time>
      </trkpt>
      <trkpt lat="45.13377" lon="5.89002">
        <ele>1656.859</ele>
        <time>2025-02-06T09:56:50Z</time>
      </trkpt>
      <trkpt lat="45.13378" lon="5.89007">
        <ele>1653.216</ele>
        <time>2025-02-06T09:57:06Z</time>
      </trkpt>
      <trkpt lat="45.13377" lon="5.89008">
        <ele>1653.519</ele>
        <time>2025-02-06T09:57:27Z</time>
      </trkpt>
      <trkpt lat="45.13375" lon="5.89014">
        <ele>1652.736</ele>
        <time>2025-02-06T09:57:48Z</time>
      </trkpt>
      <trkpt lat="45.13373" lon="5.89015">
        <ele>1654.251</ele>
        <time>2025-02-06T09:58:08Z</time>
      </trkpt>
      <trkpt lat="45.13371" lon="5.89016">
        <ele>1652.766</ele>
        <time>2025-02-06T09:58:28Z</time>
      </trkpt>
      <trkpt lat="45.13368" lon="5.89011">
        <ele>1654.913</ele>
        <time>2025-02-06T09:58:47Z</time>
      </trkpt>
      <trkpt lat="45.13366" lon="5.89004">
        <ele>1654.631</ele>
        <time>2025-02-06T09:58:55Z</time>
      </trkpt>
      <trkpt lat="45.13363" lon="5.89">
        <ele>1657.517</ele>
        <time>2025-02-06T09:59:02Z</time>
      </trkpt>
      <trkpt lat="45.13359" lon="5.88995">
        <ele>1657.707</ele>
        <time>2025-02-06T09:59:10Z</time>
      </trkpt>
      <trkpt lat="45.13356" lon="5.88992">
        <ele>1659.441</ele>
        <time>2025-02-06T09:59:23Z</time>
      </trkpt>
      <trkpt lat="45.13357" lon="5.88996">
        <ele>1659.658</ele>
        <time>2025-02-06T09:59:43Z</time>
      </trkpt>
      <trkpt lat="45.13359" lon="5.89001">
        <ele>1660.101</ele>
        <time>2025-02-06T09:59:50Z</time>
      </trkpt>
      <trkpt lat="45.13362" lon="5.89006">
        <ele>1659.893</ele>
        <time>2025-02-06T09:59:57Z</time>
      </trkpt>
      <trkpt lat="45.13363" lon="5.89013">
        <ele>1660.565</ele>
        <time>2025-02-06T10:00:05Z</time>
      </trkpt>
      <trkpt lat="45.13361" lon="5.89018">
        <ele>1660.991</ele>
        <time>2025-02-06T10:00:16Z</time>
      </trkpt>
      <trkpt lat="45.13359" lon="5.89024">
        <ele>1660.02</ele>
        <time>2025-02-06T10:00:26Z</time>
      </trkpt>
      <trkpt lat="45.13356" lon="5.89026">
        <ele>1663.867</ele>
        <time>2025-02-06T10:00:33Z</time>
      </trkpt>
      <trkpt lat="45.13353" lon="5.89031">
        <ele>1663.48</ele>
        <time>2025-02-06T10:00:42Z</time>
      </trkpt>
      <trkpt lat="45.13349" lon="5.89035">
        <ele>1664.509</ele>
        <time>2025-02-06T10:00:50Z</time>
      </trkpt>
      <trkpt lat="45.13346" lon="5.89039">
        <ele>1665.769</ele>
        <time>2025-02-06T10:00:55Z</time>
      </trkpt>
      <trkpt lat="45.13342" lon="5.89038">
        <ele>1662.601</ele>
        <time>2025-02-06T10:01:01Z</time>
      </trkpt>
      <trkpt lat="45.13341" lon="5.89032">
        <ele>1661.724</ele>
        <time>2025-02-06T10:01:09Z</time>
      </trkpt>
      <trkpt lat="45.1334" lon="5.89027">
        <ele>1664.686</ele>
        <time>2025-02-06T10:01:20Z</time>
      </trkpt>
      <trkpt lat="45.13341" lon="5.8902">
        <ele>1662.737</ele>
        <time>2025-02-06T10:01:26Z</time>
      </trkpt>
      <trkpt lat="45.13343" lon="5.89014">
        <ele>1663.911</ele>
        <time>2025-02-06T10:01:31Z</time>
      </trkpt>
      <trkpt lat="45.13345" lon="5.89007">
        <ele>1665.098</ele>
        <time>2025-02-06T10:01:37Z</time>
      </trkpt>
      <trkpt lat="45.13344" lon="5.89001">
        <ele>1666.158</ele>
        <time>2025-02-06T10:01:47Z</time>
      </trkpt>
      <trkpt lat="45.1334" lon="5.89">
        <ele>1666.737</ele>
        <time>2025-02-06T10:02:06Z</time>
      </trkpt>
      <trkpt lat="45.13339" lon="5.89005">
        <ele>1664.924</ele>
        <time>2025-02-06T10:02:14Z</time>
      </trkpt>
      <trkpt lat="45.13337" lon="5.89012">
        <ele>1666.534</ele>
        <time>2025-02-06T10:02:26Z</time>
      </trkpt>
      <trkpt lat="45.13334" lon="5.89014">
        <ele>1670.144</ele>
        <time>2025-02-06T10:02:35Z</time>
      </trkpt>
      <trkpt lat="45.13331" lon="5.89017">
        <ele>1670.711</ele>
        <time>2025-02-06T10:02:55Z</time>
      </trkpt>
      <trkpt lat="45.13331" lon="5.89017">
        <ele>1671.778</ele>
        <time>2025-02-06T10:03:15Z</time>
      </trkpt>
      <trkpt lat="45.13331" lon="5.89018">
        <ele>1672.827</ele>
        <time>2025-02-06T10:03:35Z</time>
      </trkpt>
      <trkpt lat="45.13331" lon="5.89025">
        <ele>1675.155</ele>
        <time>2025-02-06T10:03:44Z</time>
      </trkpt>
      <trkpt lat="45.13329" lon="5.89032">
        <ele>1673.631</ele>
        <time>2025-02-06T10:03:51Z</time>
      </trkpt>
      <trkpt lat="45.1333" lon="5.89038">
        <ele>1674.442</ele>
        <time>2025-02-06T10:03:55Z</time>
      </trkpt>
      <trkpt lat="45.13329" lon="5.89046">
        <ele>1674.737</ele>
        <time>2025-02-06T10:04:00Z</time>
      </trkpt>
      <trkpt lat="45.13328" lon="5.89053">
        <ele>1674</ele>
        <time>2025-02-06T10:04:03Z</time>
      </trkpt>
      <trkpt lat="45.13326" lon="5.89059">
        <ele>1674.331</ele>
        <time>2025-02-06T10:04:07Z</time>
      </trkpt>
      <trkpt lat="45.13324" lon="5.89064">
        <ele>1673.31</ele>
        <time>2025-02-06T10:04:12Z</time>
      </trkpt>
      <trkpt lat="45.13323" lon="5.89071">
        <ele>1671.684</ele>
        <time>2025-02-06T10:04:18Z</time>
      </trkpt>
      <trkpt lat="45.13319" lon="5.89076">
        <ele>1670.249</ele>
        <time>2025-02-06T10:04:24Z</time>
      </trkpt>
      <trkpt lat="45.13317" lon="5.89081">
        <ele>1670.761</ele>
        <time>2025-02-06T10:04:31Z</time>
      </trkpt>
      <trkpt lat="45.13312" lon="5.89082">
        <ele>1670.84</ele>
        <time>2025-02-06T10:04:41Z</time>
      </trkpt>
      <trkpt lat="45.13312" lon="5.89082">
        <ele>1668.961</ele>
        <time>2025-02-06T10:04:57Z</time>
      </trkpt>
      <trkpt lat="45.13312" lon="5.89082">
        <ele>1667.886</ele>
        <time>2025-02-06T10:05:04Z</time>
      </trkpt>
      <trkpt lat="45.13312" lon="5.89082">
        <ele>1667.794</ele>
        <time>2025-02-06T10:05:20Z</time>
      </trkpt>
      <trkpt lat="45.13312" lon="5.89082">
        <ele>1665.403</ele>
        <time>2025-02-06T10:05:39Z</time>
      </trkpt>
      <trkpt lat="45.13315" lon="5.89091">
        <ele>1665.817</ele>
        <time>2025-02-06T10:05:51Z</time>
      </trkpt>
      <trkpt lat="45.13314" lon="5.89097">
        <ele>1663.881</ele>
        <time>2025-02-06T10:06:07Z</time>
      </trkpt>
      <trkpt lat="45.13314" lon="5.89103">
        <ele>1665.32</ele>
        <time>2025-02-06T10:06:12Z</time>
      </trkpt>
      <trkpt lat="45.13315" lon="5.8911">
        <ele>1665.637</ele>
        <time>2025-02-06T10:06:20Z</time>
      </trkpt>
      <trkpt lat="45.13316" lon="5.89116">
        <ele>1667.11</ele>
        <time>2025-02-06T10:06:29Z</time>
      </trkpt>
      <trkpt lat="45.13318" lon="5.89123">
        <ele>1667.253</ele>
        <time>2025-02-06T10:06:39Z</time>
      </trkpt>
      <trkpt lat="45.13319" lon="5.89129">
        <ele>1668.11</ele>
        <time>2025-02-06T10:06:47Z</time>
      </trkpt>
      <trkpt lat="45.13322" lon="5.89134">
        <ele>1669.596</ele>
        <time>2025-02-06T10:06:55Z</time>
      </trkpt>
      <trkpt lat="45.13326" lon="5.89139">
        <ele>1670.553</ele>
        <time>2025-02-06T10:07:02Z</time>
      </trkpt>
      <trkpt lat="45.13329" lon="5.89142">
        <ele>1672.048</ele>
        <time>2025-02-06T10:07:08Z</time>
      </trkpt>
      <trkpt lat="45.13333" lon="5.89146">
        <ele>1672.873</ele>
        <time>2025-02-06T10:07:16Z</time>
      </trkpt>
      <trkpt lat="45.13337" lon="5.8915">
        <ele>1672.088</ele>
        <time>2025-02-06T10:07:25Z</time>
      </trkpt>
      <trkpt lat="45.13341" lon="5.89154">
        <ele>1671.801</ele>
        <time>2025-02-06T10:07:33Z</time>
      </trkpt>
      <trkpt lat="45.13344" lon="5.89159">
        <ele>1671.665</ele>
        <time>2025-02-06T10:07:54Z</time>
      </trkpt>
      <trkpt lat="45.13345" lon="5.89162">
        <ele>1672.466</ele>
        <time>2025-02-06T10:08:14Z</time>
      </trkpt>
      <trkpt lat="45.13348" lon="5.89168">
        <ele>1671.883</ele>
        <time>2025-02-06T10:08:25Z</time>
      </trkpt>
      <trkpt lat="45.13351" lon="5.89172">
        <ele>1669.208</ele>
        <time>2025-02-06T10:08:33Z</time>
      </trkpt>
      <trkpt lat="45.13352" lon="5.89178">
        <ele>1669.625</ele>
        <time>2025-02-06T10:08:39Z</time>
      </trkpt>
      <trkpt lat="45.13352" lon="5.89183">
        <ele>1672.902</ele>
        <time>2025-02-06T10:08:46Z</time>
      </trkpt>
      <trkpt lat="45.13352" lon="5.8919">
        <ele>1674.158</ele>
        <time>2025-02-06T10:08:56Z</time>
      </trkpt>
      <trkpt lat="45.13353" lon="5.89196">
        <ele>1675.441</ele>
        <time>2025-02-06T10:09:04Z</time>
      </trkpt>
      <trkpt lat="45.13354" lon="5.89202">
        <ele>1673.264</ele>
        <time>2025-02-06T10:09:13Z</time>
      </trkpt>
      <trkpt lat="45.13352" lon="5.89207">
        <ele>1675.526</ele>
        <time>2025-02-06T10:09:18Z</time>
      </trkpt>
      <trkpt lat="45.13353" lon="5.89213">
        <ele>1678.971</ele>
        <time>2025-02-06T10:09:24Z</time>
      </trkpt>
      <trkpt lat="45.13354" lon="5.89218">
        <ele>1681.873</ele>
        <time>2025-02-06T10:09:31Z</time>
      </trkpt>
      <trkpt lat="45.13357" lon="5.89222">
        <ele>1679.853</ele>
        <time>2025-02-06T10:09:41Z</time>
      </trkpt>
      <trkpt lat="45.13361" lon="5.89226">
        <ele>1681.635</ele>
        <time>2025-02-06T10:09:51Z</time>
      </trkpt>
      <trkpt lat="45.13364" lon="5.89231">
        <ele>1682.769</ele>
        <time>2025-02-06T10:10:02Z</time>
      </trkpt>
      <trkpt lat="45.13365" lon="5.89237">
        <ele>1682.459</ele>
        <time>2025-02-06T10:10:16Z</time>
      </trkpt>
      <trkpt lat="45.13366" lon="5.89242">
        <ele>1686.025</ele>
        <time>2025-02-06T10:10:24Z</time>
      </trkpt>
      <trkpt lat="45.13368" lon="5.89247">
        <ele>1688.698</ele>
        <time>2025-02-06T10:10:31Z</time>
      </trkpt>
      <trkpt lat="45.1337" lon="5.89251">
        <ele>1685.441</ele>
        <time>2025-02-06T10:10:39Z</time>
      </trkpt>
      <trkpt lat="45.13373" lon="5.89256">
        <ele>1686.711</ele>
        <time>2025-02-06T10:10:50Z</time>
      </trkpt>
      <trkpt lat="45.13376" lon="5.89261">
        <ele>1686.926</ele>
        <time>2025-02-06T10:11:02Z</time>
      </trkpt>
      <trkpt lat="45.13378" lon="5.89267">
        <ele>1687.524</ele>
        <time>2025-02-06T10:11:12Z</time>
      </trkpt>
      <trkpt lat="45.13377" lon="5.89272">
        <ele>1691.028</ele>
        <time>2025-02-06T10:11:24Z</time>
      </trkpt>
      <trkpt lat="45.13379" lon="5.89278">
        <ele>1692.242</ele>
        <time>2025-02-06T10:11:43Z</time>
      </trkpt>
      <trkpt lat="45.13381" lon="5.89282">
        <ele>1697.92</ele>
        <time>2025-02-06T10:12:01Z</time>
      </trkpt>
      <trkpt lat="45.13384" lon="5.89287">
        <ele>1696.944</ele>
        <time>2025-02-06T10:12:09Z</time>
      </trkpt>
      <trkpt lat="45.13387" lon="5.89292">
        <ele>1696.934</ele>
        <time>2025-02-06T10:12:24Z</time>
      </trkpt>
      <trkpt lat="45.13392" lon="5.89293">
        <ele>1699.267</ele>
        <time>2025-02-06T10:12:32Z</time>
      </trkpt>
      <trkpt lat="45.13396" lon="5.89294">
        <ele>1697.097</ele>
        <time>2025-02-06T10:12:38Z</time>
      </trkpt>
      <trkpt lat="45.13396" lon="5.89301">
        <ele>1698.346</ele>
        <time>2025-02-06T10:12:52Z</time>
      </trkpt>
      <trkpt lat="45.13399" lon="5.89306">
        <ele>1696.642</ele>
        <time>2025-02-06T10:13:00Z</time>
      </trkpt>
      <trkpt lat="45.13401" lon="5.89312">
        <ele>1695.313</ele>
        <time>2025-02-06T10:13:07Z</time>
      </trkpt>
      <trkpt lat="45.13402" lon="5.89318">
        <ele>1696.041</ele>
        <time>2025-02-06T10:13:14Z</time>
      </trkpt>
      <trkpt lat="45.13404" lon="5.89325">
        <ele>1698.311</ele>
        <time>2025-02-06T10:13:20Z</time>
      </trkpt>
      <trkpt lat="45.13404" lon="5.89331">
        <ele>1695.996</ele>
        <time>2025-02-06T10:13:27Z</time>
      </trkpt>
      <trkpt lat="45.13404" lon="5.89337">
        <ele>1698.077</ele>
        <time>2025-02-06T10:13:34Z</time>
      </trkpt>
      <trkpt lat="45.13405" lon="5.89343">
        <ele>1699.906</ele>
        <time>2025-02-06T10:13:42Z</time>
      </trkpt>
      <trkpt lat="45.13409" lon="5.89348">
        <ele>1702.412</ele>
        <time>2025-02-06T10:13:50Z</time>
      </trkpt>
      <trkpt lat="45.13412" lon="5.89351">
        <ele>1700.78</ele>
        <time>2025-02-06T10:13:57Z</time>
      </trkpt>
      <trkpt lat="45.13415" lon="5.89356">
        <ele>1702.1</ele>
        <time>2025-02-06T10:14:04Z</time>
      </trkpt>
      <trkpt lat="45.13418" lon="5.89361">
        <ele>1704.391</ele>
        <time>2025-02-06T10:14:13Z</time>
      </trkpt>
      <trkpt lat="45.13421" lon="5.89364">
        <ele>1705.692</ele>
        <time>2025-02-06T10:14:22Z</time>
      </trkpt>
      <trkpt lat="45.13425" lon="5.89368">
        <ele>1704.966</ele>
        <time>2025-02-06T10:14:29Z</time>
      </trkpt>
      <trkpt lat="45.13428" lon="5.89373">
        <ele>1705.403</ele>
        <time>2025-02-06T10:14:39Z</time>
      </trkpt>
      <trkpt lat="45.13429" lon="5.89379">
        <ele>1707.038</ele>
        <time>2025-02-06T10:14:49Z</time>
      </trkpt>
      <trkpt lat="45.1343" lon="5.89386">
        <ele>1707.257</ele>
        <time>2025-02-06T10:14:56Z</time>
      </trkpt>
      <trkpt lat="45.13432" lon="5.89391">
        <ele>1710.169</ele>
        <time>2025-02-06T10:15:04Z</time>
      </trkpt>
      <trkpt lat="45.13431" lon="5.89397">
        <ele>1708.329</ele>
        <time>2025-02-06T10:15:14Z</time>
      </trkpt>
      <trkpt lat="45.13432" lon="5.89404">
        <ele>1707.765</ele>
        <time>2025-02-06T10:15:26Z</time>
      </trkpt>
      <trkpt lat="45.13433" lon="5.8941">
        <ele>1709.518</ele>
        <time>2025-02-06T10:15:34Z</time>
      </trkpt>
      <trkpt lat="45.13434" lon="5.89415">
        <ele>1712.346</ele>
        <time>2025-02-06T10:15:43Z</time>
      </trkpt>
      <trkpt lat="45.13436" lon="5.89421">
        <ele>1712.652</ele>
        <time>2025-02-06T10:15:56Z</time>
      </trkpt>
      <trkpt lat="45.13436" lon="5.89428">
        <ele>1710.199</ele>
        <time>2025-02-06T10:16:07Z</time>
      </trkpt>
      <trkpt lat="45.13437" lon="5.89434">
        <ele>1712.544</ele>
        <time>2025-02-06T10:16:15Z</time>
      </trkpt>
      <trkpt lat="45.13438" lon="5.89439">
        <ele>1716.237</ele>
        <time>2025-02-06T10:16:22Z</time>
      </trkpt>
      <trkpt lat="45.1344" lon="5.89444">
        <ele>1720.743</ele>
        <time>2025-02-06T10:16:30Z</time>
      </trkpt>
      <trkpt lat="45.1344" lon="5.89451">
        <ele>1721.326</ele>
        <time>2025-02-06T10:16:39Z</time>
      </trkpt>
      <trkpt lat="45.13441" lon="5.89456">
        <ele>1724.16</ele>
        <time>2025-02-06T10:16:45Z</time>
      </trkpt>
      <trkpt lat="45.13442" lon="5.89462">
        <ele>1726.264</ele>
        <time>2025-02-06T10:16:53Z</time>
      </trkpt>
      <trkpt lat="45.13441" lon="5.89468">
        <ele>1723.96</ele>
        <time>2025-02-06T10:17:01Z</time>
      </trkpt>
      <trkpt lat="45.1344" lon="5.89473">
        <ele>1727.87</ele>
        <time>2025-02-06T10:17:08Z</time>
      </trkpt>
      <trkpt lat="45.13444" lon="5.89473">
        <ele>1725.46</ele>
        <time>2025-02-06T10:17:16Z</time>
      </trkpt>
      <trkpt lat="45.13449" lon="5.89473">
        <ele>1727.825</ele>
        <time>2025-02-06T10:17:25Z</time>
      </trkpt>
      <trkpt lat="45.13451" lon="5.89479">
        <ele>1726.029</ele>
        <time>2025-02-06T10:17:39Z</time>
      </trkpt>
      <trkpt lat="45.13448" lon="5.89485">
        <ele>1724.294</ele>
        <time>2025-02-06T10:17:46Z</time>
      </trkpt>
      <trkpt lat="45.13447" lon="5.89487">
        <ele>1729.326</ele>
        <time>2025-02-06T10:17:51Z</time>
      </trkpt>
      <trkpt lat="45.13451" lon="5.89491">
        <ele>1731.021</ele>
        <time>2025-02-06T10:18:09Z</time>
      </trkpt>
      <trkpt lat="45.13455" lon="5.8949">
        <ele>1732.037</ele>
        <time>2025-02-06T10:18:21Z</time>
      </trkpt>
      <trkpt lat="45.13459" lon="5.89492">
        <ele>1734.537</ele>
        <time>2025-02-06T10:18:32Z</time>
      </trkpt>
      <trkpt lat="45.13463" lon="5.89493">
        <ele>1735.435</ele>
        <time>2025-02-06T10:18:42Z</time>
      </trkpt>
      <trkpt lat="45.13464" lon="5.895">
        <ele>1732.789</ele>
        <time>2025-02-06T10:18:53Z</time>
      </trkpt>
      <trkpt lat="45.13462" lon="5.89506">
        <ele>1733.824</ele>
        <time>2025-02-06T10:19:00Z</time>
      </trkpt>
      <trkpt lat="45.13462" lon="5.89509">
        <ele>1735.235</ele>
        <time>2025-02-06T10:19:21Z</time>
      </trkpt>
      <trkpt lat="45.13462" lon="5.89514">
        <ele>1733.266</ele>
        <time>2025-02-06T10:19:41Z</time>
      </trkpt>
      <trkpt lat="45.13459" lon="5.89514">
        <ele>1737.869</ele>
        <time>2025-02-06T10:19:49Z</time>
      </trkpt>
      <trkpt lat="45.13456" lon="5.89518">
        <ele>1739.151</ele>
        <time>2025-02-06T10:20:07Z</time>
      </trkpt>
      <trkpt lat="45.13455" lon="5.89524">
        <ele>1738.753</ele>
        <time>2025-02-06T10:20:21Z</time>
      </trkpt>
      <trkpt lat="45.13458" lon="5.89528">
        <ele>1738.554</ele>
        <time>2025-02-06T10:20:31Z</time>
      </trkpt>
      <trkpt lat="45.13461" lon="5.89534">
        <ele>1741.538</ele>
        <time>2025-02-06T10:20:41Z</time>
      </trkpt>
      <trkpt lat="45.13465" lon="5.89536">
        <ele>1744.644</ele>
        <time>2025-02-06T10:20:50Z</time>
      </trkpt>
      <trkpt lat="45.13465" lon="5.89536">
        <ele>1746.305</ele>
        <time>2025-02-06T10:21:10Z</time>
      </trkpt>
      <trkpt lat="45.13465" lon="5.89536">
        <ele>1749.635</ele>
        <time>2025-02-06T10:21:19Z</time>
      </trkpt>
      <trkpt lat="45.13465" lon="5.89536">
        <ele>1750.956</ele>
        <time>2025-02-06T10:21:40Z</time>
      </trkpt>
      <trkpt lat="45.13465" lon="5.89536">
        <ele>1750.818</ele>
        <time>2025-02-06T10:21:46Z</time>
      </trkpt>
      <trkpt lat="45.13465" lon="5.89536">
        <ele>1752.011</ele>
        <time>2025-02-06T10:21:53Z</time>
      </trkpt>
      <trkpt lat="45.13465" lon="5.89536">
        <ele>1748.605</ele>
        <time>2025-02-06T10:22:04Z</time>
      </trkpt>
      <trkpt lat="45.13465" lon="5.89536">
        <ele>1748.355</ele>
        <time>2025-02-06T10:22:09Z</time>
      </trkpt>
      <trkpt lat="45.1347" lon="5.89552">
        <ele>1751.648</ele>
        <time>2025-02-06T10:22:15Z</time>
      </trkpt>
      <trkpt lat="45.13466" lon="5.89555">
        <ele>1751.419</ele>
        <time>2025-02-06T10:22:25Z</time>
      </trkpt>
      <trkpt lat="45.13464" lon="5.89561">
        <ele>1749.264</ele>
        <time>2025-02-06T10:22:32Z</time>
      </trkpt>
      <trkpt lat="45.1346" lon="5.89561">
        <ele>1753.276</ele>
        <time>2025-02-06T10:22:41Z</time>
      </trkpt>
      <trkpt lat="45.13456" lon="5.89565">
        <ele>1754.3</ele>
        <time>2025-02-06T10:22:47Z</time>
      </trkpt>
      <trkpt lat="45.13452" lon="5.89566">
        <ele>1756.62</ele>
        <time>2025-02-06T10:22:58Z</time>
      </trkpt>
      <trkpt lat="45.13456" lon="5.89568">
        <ele>1758.462</ele>
        <time>2025-02-06T10:23:19Z</time>
      </trkpt>
      <trkpt lat="45.1346" lon="5.89567">
        <ele>1761.132</ele>
        <time>2025-02-06T10:23:27Z</time>
      </trkpt>
      <trkpt lat="45.13465" lon="5.89567">
        <ele>1761.517</ele>
        <time>2025-02-06T10:23:41Z</time>
      </trkpt>
      <trkpt lat="45.13469" lon="5.89572">
        <ele>1761.34</ele>
        <time>2025-02-06T10:23:58Z</time>
      </trkpt>
      <trkpt lat="45.13472" lon="5.89576">
        <ele>1763.359</ele>
        <time>2025-02-06T10:24:12Z</time>
      </trkpt>
      <trkpt lat="45.13471" lon="5.89582">
        <ele>1762.199</ele>
        <time>2025-02-06T10:24:24Z</time>
      </trkpt>
      <trkpt lat="45.13468" lon="5.89588">
        <ele>1763.177</ele>
        <time>2025-02-06T10:24:36Z</time>
      </trkpt>
      <trkpt lat="45.13472" lon="5.89592">
        <ele>1762.365</ele>
        <time>2025-02-06T10:24:50Z</time>
      </trkpt>
      <trkpt lat="45.13472" lon="5.89592">
        <ele>1764.978</ele>
        <time>2025-02-06T10:25:03Z</time>
      </trkpt>
      <trkpt lat="45.13472" lon="5.89592">
        <ele>1770.335</ele>
        <time>2025-02-06T10:25:12Z</time>
      </trkpt>
      <trkpt lat="45.13472" lon="5.89592">
        <ele>1767.924</ele>
        <time>2025-02-06T10:25:25Z</time>
      </trkpt>
      <trkpt lat="45.13474" lon="5.89604">
        <ele>1767.809</ele>
        <time>2025-02-06T10:25:32Z</time>
      </trkpt>
      <trkpt lat="45.13471" lon="5.89609">
        <ele>1767.792</ele>
        <time>2025-02-06T10:25:42Z</time>
      </trkpt>
      <trkpt lat="45.13475" lon="5.89612">
        <ele>1768.882</ele>
        <time>2025-02-06T10:25:59Z</time>
      </trkpt>
      <trkpt lat="45.13478" lon="5.89616">
        <ele>1771.467</ele>
        <time>2025-02-06T10:26:11Z</time>
      </trkpt>
      <trkpt lat="45.13479" lon="5.89621">
        <ele>1773.619</ele>
        <time>2025-02-06T10:26:25Z</time>
      </trkpt>
      <trkpt lat="45.13478" lon="5.89628">
        <ele>1773.177</ele>
        <time>2025-02-06T10:26:37Z</time>
      </trkpt>
      <trkpt lat="45.13473" lon="5.89629">
        <ele>1770.748</ele>
        <time>2025-02-06T10:26:52Z</time>
      </trkpt>
      <trkpt lat="45.13469" lon="5.89627">
        <ele>1772.674</ele>
        <time>2025-02-06T10:27:08Z</time>
      </trkpt>
      <trkpt lat="45.13468" lon="5.89625">
        <ele>1775.902</ele>
        <time>2025-02-06T10:27:28Z</time>
      </trkpt>
      <trkpt lat="45.13464" lon="5.89626">
        <ele>1776.834</ele>
        <time>2025-02-06T10:27:48Z</time>
      </trkpt>
      <trkpt lat="45.13459" lon="5.89626">
        <ele>1777.19</ele>
        <time>2025-02-06T10:28:01Z</time>
      </trkpt>
      <trkpt lat="45.13454" lon="5.89628">
        <ele>1776.375</ele>
        <time>2025-02-06T10:28:10Z</time>
      </trkpt>
      <trkpt lat="45.13451" lon="5.89631">
        <ele>1778.33</ele>
        <time>2025-02-06T10:28:19Z</time>
      </trkpt>
      <trkpt lat="45.13446" lon="5.89633">
        <ele>1780.096</ele>
        <time>2025-02-06T10:28:33Z</time>
      </trkpt>
      <trkpt lat="45.13442" lon="5.89634">
        <ele>1782.227</ele>
        <time>2025-02-06T10:28:46Z</time>
      </trkpt>
      <trkpt lat="45.13437" lon="5.89637">
        <ele>1784.816</ele>
        <time>2025-02-06T10:28:56Z</time>
      </trkpt>
      <trkpt lat="45.13433" lon="5.89639">
        <ele>1785.189</ele>
        <time>2025-02-06T10:29:09Z</time>
      </trkpt>
      <trkpt lat="45.13436" lon="5.89644">
        <ele>1784.539</ele>
        <time>2025-02-06T10:29:23Z</time>
      </trkpt>
      <trkpt lat="45.13436" lon="5.89651">
        <ele>1784.026</ele>
        <time>2025-02-06T10:29:38Z</time>
      </trkpt>
      <trkpt lat="45.13436" lon="5.89657">
        <ele>1784.27</ele>
        <time>2025-02-06T10:29:50Z</time>
      </trkpt>
      <trkpt lat="45.13438" lon="5.89663">
        <ele>1784.735</ele>
        <time>2025-02-06T10:30:11Z</time>
      </trkpt>
      <trkpt lat="45.1344" lon="5.8967">
        <ele>1785.029</ele>
        <time>2025-02-06T10:30:18Z</time>
      </trkpt>
      <trkpt lat="45.13441" lon="5.89673">
        <ele>1784.813</ele>
        <time>2025-02-06T10:30:38Z</time>
      </trkpt>
      <trkpt lat="45.13443" lon="5.89679">
        <ele>1784.328</ele>
        <time>2025-02-06T10:30:54Z</time>
      </trkpt>
      <trkpt lat="45.13446" lon="5.89685">
        <ele>1784.219</ele>
        <time>2025-02-06T10:31:00Z</time>
      </trkpt>
      <trkpt lat="45.13449" lon="5.8969">
        <ele>1784.853</ele>
        <time>2025-02-06T10:31:06Z</time>
      </trkpt>
      <trkpt lat="45.13451" lon="5.89696">
        <ele>1784.378</ele>
        <time>2025-02-06T10:31:10Z</time>
      </trkpt>
      <trkpt lat="45.13454" lon="5.89701">
        <ele>1782.732</ele>
        <time>2025-02-06T10:31:12Z</time>
      </trkpt>
      <trkpt lat="45.13457" lon="5.89708">
        <ele>1782.615</ele>
        <time>2025-02-06T10:31:14Z</time>
      </trkpt>
      <trkpt lat="45.13459" lon="5.89717">
        <ele>1781.327</ele>
        <time>2025-02-06T10:31:17Z</time>
      </trkpt>
      <trkpt lat="45.13462" lon="5.89726">
        <ele>1780.415</ele>
        <time>2025-02-06T10:31:19Z</time>
      </trkpt>
      <trkpt lat="45.13463" lon="5.89728">
        <ele>1779.43</ele>
        <time>2025-02-06T10:31:39Z</time>
      </trkpt>
      <trkpt lat="45.13463" lon="5.89728">
        <ele>1776.55</ele>
        <time>2025-02-06T10:31:51Z</time>
      </trkpt>
      <trkpt lat="45.13463" lon="5.89728">
        <ele>1777.796</ele>
        <time>2025-02-06T10:32:02Z</time>
      </trkpt>
      <trkpt lat="45.13463" lon="5.89728">
        <ele>1776.736</ele>
        <time>2025-02-06T10:32:23Z</time>
      </trkpt>
      <trkpt lat="45.13463" lon="5.89728">
        <ele>1779.249</ele>
        <time>2025-02-06T10:32:44Z</time>
      </trkpt>
      <trkpt lat="45.13463" lon="5.8973">
        <ele>1779.466</ele>
        <time>2025-02-06T10:33:05Z</time>
      </trkpt>
      <trkpt lat="45.13465" lon="5.89736">
        <ele>1780.169</ele>
        <time>2025-02-06T10:33:19Z</time>
      </trkpt>
      <trkpt lat="45.13469" lon="5.89741">
        <ele>1780.928</ele>
        <time>2025-02-06T10:33:24Z</time>
      </trkpt>
      <trkpt lat="45.1347" lon="5.89747">
        <ele>1782.962</ele>
        <time>2025-02-06T10:33:29Z</time>
      </trkpt>
      <trkpt lat="45.13474" lon="5.89751">
        <ele>1781.626</ele>
        <time>2025-02-06T10:33:35Z</time>
      </trkpt>
      <trkpt lat="45.13478" lon="5.89755">
        <ele>1781.515</ele>
        <time>2025-02-06T10:33:41Z</time>
      </trkpt>
      <trkpt lat="45.13481" lon="5.8976">
        <ele>1782.029</ele>
        <time>2025-02-06T10:33:49Z</time>
      </trkpt>
      <trkpt lat="45.13485" lon="5.89764">
        <ele>1780.808</ele>
        <time>2025-02-06T10:33:55Z</time>
      </trkpt>
      <trkpt lat="45.13489" lon="5.89769">
        <ele>1780.237</ele>
        <time>2025-02-06T10:34:02Z</time>
      </trkpt>
      <trkpt lat="45.13492" lon="5.89773">
        <ele>1781.398</ele>
        <time>2025-02-06T10:34:08Z</time>
      </trkpt>
      <trkpt lat="45.13496" lon="5.89779">
        <ele>1779.929</ele>
        <time>2025-02-06T10:34:14Z</time>
      </trkpt>
      <trkpt lat="45.13498" lon="5.89785">
        <ele>1781.344</ele>
        <time>2025-02-06T10:34:19Z</time>
      </trkpt>
      <trkpt lat="45.13502" lon="5.8979">
        <ele>1779.465</ele>
        <time>2025-02-06T10:34:24Z</time>
      </trkpt>
      <trkpt lat="45.13503" lon="5.89797">
        <ele>1780.552</ele>
        <time>2025-02-06T10:34:31Z</time>
      </trkpt>
      <trkpt lat="45.13504" lon="5.89803">
        <ele>1780.722</ele>
        <time>2025-02-06T10:34:40Z</time>
      </trkpt>
      <trkpt lat="45.13503" lon="5.89809">
        <ele>1779.345</ele>
        <time>2025-02-06T10:34:54Z</time>
      </trkpt>
      <trkpt lat="45.13506" lon="5.89815">
        <ele>1778.807</ele>
        <time>2025-02-06T10:35:01Z</time>
      </trkpt>
      <trkpt lat="45.13511" lon="5.89816">
        <ele>1777.654</ele>
        <time>2025-02-06T10:35:10Z</time>
      </trkpt>
      <trkpt lat="45.13516" lon="5.89818">
        <ele>1778.868</ele>
        <time>2025-02-06T10:35:18Z</time>
      </trkpt>
      <trkpt lat="45.13518" lon="5.89818">
        <ele>1778.158</ele>
        <time>2025-02-06T10:35:38Z</time>
      </trkpt>
      <trkpt lat="45.13519" lon="5.89817">
        <ele>1776.979</ele>
        <time>2025-02-06T10:35:59Z</time>
      </trkpt>
      <trkpt lat="45.13519" lon="5.89817">
        <ele>1776.171</ele>
        <time>2025-02-06T10:36:20Z</time>
      </trkpt>
      <trkpt lat="45.13522" lon="5.89822">
        <ele>1773.863</ele>
        <time>2025-02-06T10:36:30Z</time>
      </trkpt>
      <trkpt lat="45.13521" lon="5.89824">
        <ele>1773.046</ele>
        <time>2025-02-06T10:36:50Z</time>
      </trkpt>
      <trkpt lat="45.13522" lon="5.89829">
        <ele>1769.317</ele>
        <time>2025-02-06T10:37:07Z</time>
      </trkpt>
      <trkpt lat="45.13524" lon="5.89836">
        <ele>1771.633</ele>
        <time>2025-02-06T10:37:24Z</time>
      </trkpt>
      <trkpt lat="45.13526" lon="5.89835">
        <ele>1771.573</ele>
        <time>2025-02-06T10:37:44Z</time>
      </trkpt>
      <trkpt lat="45.13528" lon="5.8984">
        <ele>1769.126</ele>
        <time>2025-02-06T10:37:57Z</time>
      </trkpt>
      <trkpt lat="45.1353" lon="5.89842">
        <ele>1764.73</ele>
        <time>2025-02-06T10:38:14Z</time>
      </trkpt>
      <trkpt lat="45.13528" lon="5.89848">
        <ele>1764.931</ele>
        <time>2025-02-06T10:38:26Z</time>
      </trkpt>
      <trkpt lat="45.13526" lon="5.89848">
        <ele>1764.811</ele>
        <time>2025-02-06T10:38:46Z</time>
      </trkpt>
      <trkpt lat="45.13523" lon="5.89848">
        <ele>1760.809</ele>
        <time>2025-02-06T10:39:06Z</time>
      </trkpt>
      <trkpt lat="45.13519" lon="5.8985">
        <ele>1761.91</ele>
        <time>2025-02-06T10:39:20Z</time>
      </trkpt>
      <trkpt lat="45.13514" lon="5.89846">
        <ele>1760.263</ele>
        <time>2025-02-06T10:39:33Z</time>
      </trkpt>
      <trkpt lat="45.13514" lon="5.89844">
        <ele>1754.659</ele>
        <time>2025-02-06T10:39:43Z</time>
      </trkpt>
      <trkpt lat="45.13511" lon="5.89849">
        <ele>1752.742</ele>
        <time>2025-02-06T10:39:49Z</time>
      </trkpt>
      <trkpt lat="45.13507" lon="5.89852">
        <ele>1753.521</ele>
        <time>2025-02-06T10:39:51Z</time>
      </trkpt>
      <trkpt lat="45.13502" lon="5.89856">
        <ele>1751.299</ele>
        <time>2025-02-06T10:39:55Z</time>
      </trkpt>
      <trkpt lat="45.13501" lon="5.89861">
        <ele>1754.916</ele>
        <time>2025-02-06T10:39:59Z</time>
      </trkpt>
      <trkpt lat="45.13502" lon="5.89867">
        <ele>1756.695</ele>
        <time>2025-02-06T10:40:06Z</time>
      </trkpt>
      <trkpt lat="45.13502" lon="5.89867">
        <ele>1757.321</ele>
        <time>2025-02-06T10:40:27Z</time>
      </trkpt>
      <trkpt lat="45.13502" lon="5.89867">
        <ele>1758.077</ele>
        <time>2025-02-06T10:40:47Z</time>
      </trkpt>
      <trkpt lat="45.13502" lon="5.89867">
        <ele>1759.652</ele>
        <time>2025-02-06T10:41:07Z</time>
      </trkpt>
      <trkpt lat="45.13504" lon="5.89865">
        <ele>1758.522</ele>
        <time>2025-02-06T10:41:28Z</time>
      </trkpt>
      <trkpt lat="45.13504" lon="5.89863">
        <ele>1753.042</ele>
        <time>2025-02-06T10:41:36Z</time>
      </trkpt>
      <trkpt lat="45.13513" lon="5.89926">
        <ele>1747.2</ele>
      </trkpt>
      <trkpt lat="45.13516" lon="5.89992">
        <ele>1751.6</ele>
      </trkpt>
      <trkpt lat="45.1351" lon="5.90088">
        <ele>1768.9</ele>
      </trkpt>
      <trkpt lat="45.13506" lon="5.90149">
        <ele>1789.5</ele>
      </trkpt>
      <trkpt lat="45.13484" lon="5.90153">
        <ele>1792.4</ele>
      </trkpt>
      <trkpt lat="45.13477" lon="5.90185">
        <ele>1797.2</ele>
      </trkpt>
      <trkpt lat="45.13477" lon="5.90236">
        <ele>1795.894</ele>
        <time>2025-02-06T11:04:11Z</time>
      </trkpt>
      <trkpt lat="45.13479" lon="5.90235">
        <ele>1797.753</ele>
        <time>2025-02-06T11:04:32Z</time>
      </trkpt>
      <trkpt lat="45.13479" lon="5.90235">
        <ele>1797.004</ele>
        <time>2025-02-06T11:04:53Z</time>
      </trkpt>
      <trkpt lat="45.13478" lon="5.90242">
        <ele>1797.734</ele>
        <time>2025-02-06T11:05:09Z</time>
      </trkpt>
      <trkpt lat="45.13478" lon="5.90248">
        <ele>1798.981</ele>
        <time>2025-02-06T11:05:15Z</time>
      </trkpt>
      <trkpt lat="45.13478" lon="5.90255">
        <ele>1798.655</ele>
        <time>2025-02-06T11:05:20Z</time>
      </trkpt>
      <trkpt lat="45.13478" lon="5.90262">
        <ele>1799.826</ele>
        <time>2025-02-06T11:05:26Z</time>
      </trkpt>
      <trkpt lat="45.13478" lon="5.90268">
        <ele>1799.508</ele>
        <time>2025-02-06T11:05:32Z</time>
      </trkpt>
      <trkpt lat="45.13477" lon="5.90276">
        <ele>1798.804</ele>
        <time>2025-02-06T11:05:39Z</time>
      </trkpt>
      <trkpt lat="45.13476" lon="5.90282">
        <ele>1799.182</ele>
        <time>2025-02-06T11:05:45Z</time>
      </trkpt>
      <trkpt lat="45.13475" lon="5.90289">
        <ele>1799.742</ele>
        <time>2025-02-06T11:05:52Z</time>
      </trkpt>
      <trkpt lat="45.13475" lon="5.90296">
        <ele>1799.225</ele>
        <time>2025-02-06T11:05:59Z</time>
      </trkpt>
      <trkpt lat="45.13475" lon="5.90304">
        <ele>1798.9</ele>
        <time>2025-02-06T11:06:06Z</time>
      </trkpt>
      <trkpt lat="45.13475" lon="5.9031">
        <ele>1797.685</ele>
        <time>2025-02-06T11:06:13Z</time>
      </trkpt>
      <trkpt lat="45.13474" lon="5.90316">
        <ele>1797.022</ele>
        <time>2025-02-06T11:06:20Z</time>
      </trkpt>
      <trkpt lat="45.13476" lon="5.90322">
        <ele>1799.213</ele>
        <time>2025-02-06T11:06:27Z</time>
      </trkpt>
      <trkpt lat="45.13478" lon="5.90329">
        <ele>1797.818</ele>
        <time>2025-02-06T11:06:34Z</time>
      </trkpt>
      <trkpt lat="45.13478" lon="5.90336">
        <ele>1797.111</ele>
        <time>2025-02-06T11:06:41Z</time>
      </trkpt>
      <trkpt lat="45.13478" lon="5.90343">
        <ele>1796.528</ele>
        <time>2025-02-06T11:06:48Z</time>
      </trkpt>
      <trkpt lat="45.13478" lon="5.9035">
        <ele>1796.826</ele>
        <time>2025-02-06T11:06:55Z</time>
      </trkpt>
      <trkpt lat="45.13477" lon="5.90356">
        <ele>1795.788</ele>
        <time>2025-02-06T11:07:02Z</time>
      </trkpt>
      <trkpt lat="45.13476" lon="5.90363">
        <ele>1796.452</ele>
        <time>2025-02-06T11:07:10Z</time>
      </trkpt>
      <trkpt lat="45.13475" lon="5.90369">
        <ele>1798.427</ele>
        <time>2025-02-06T11:07:18Z</time>
      </trkpt>
      <trkpt lat="45.13474" lon="5.90375">
        <ele>1799.491</ele>
        <time>2025-02-06T11:07:26Z</time>
      </trkpt>
      <trkpt lat="45.13473" lon="5.90382">
        <ele>1799.012</ele>
        <time>2025-02-06T11:07:33Z</time>
      </trkpt>
      <trkpt lat="45.13473" lon="5.90388">
        <ele>1797.994</ele>
        <time>2025-02-06T11:07:41Z</time>
      </trkpt>
      <trkpt lat="45.13471" lon="5.90395">
        <ele>1798.365</ele>
        <time>2025-02-06T11:07:49Z</time>
      </trkpt>
      <trkpt lat="45.1347" lon="5.90401">
        <ele>1799.733</ele>
        <time>2025-02-06T11:07:57Z</time>
      </trkpt>
      <trkpt lat="45.1347" lon="5.90408">
        <ele>1800.52</ele>
        <time>2025-02-06T11:08:12Z</time>
      </trkpt>
      <trkpt lat="45.13472" lon="5.90414">
        <ele>1801.145</ele>
        <time>2025-02-06T11:08:19Z</time>
      </trkpt>
      <trkpt lat="45.13474" lon="5.9042">
        <ele>1802.617</ele>
        <time>2025-02-06T11:08:27Z</time>
      </trkpt>
      <trkpt lat="45.13477" lon="5.90425">
        <ele>1805.267</ele>
        <time>2025-02-06T11:08:36Z</time>
      </trkpt>
      <trkpt lat="45.1348" lon="5.9043">
        <ele>1805.232</ele>
        <time>2025-02-06T11:08:45Z</time>
      </trkpt>
      <trkpt lat="45.13485" lon="5.9043">
        <ele>1806.017</ele>
        <time>2025-02-06T11:09:03Z</time>
      </trkpt>
      <trkpt lat="45.13486" lon="5.90435">
        <ele>1802.823</ele>
        <time>2025-02-06T11:09:08Z</time>
      </trkpt>
      <trkpt lat="45.13489" lon="5.90438">
        <ele>1806.9</ele>
        <time>2025-02-06T11:09:16Z</time>
      </trkpt>
      <trkpt lat="45.1349" lon="5.90441">
        <ele>1811.015</ele>
        <time>2025-02-06T11:09:24Z</time>
      </trkpt>
      <trkpt lat="45.13487" lon="5.90446">
        <ele>1810.077</ele>
        <time>2025-02-06T11:09:32Z</time>
      </trkpt>
      <trkpt lat="45.13483" lon="5.9045">
        <ele>1810.069</ele>
        <time>2025-02-06T11:09:42Z</time>
      </trkpt>
      <trkpt lat="45.13479" lon="5.90454">
        <ele>1810.812</ele>
        <time>2025-02-06T11:09:56Z</time>
      </trkpt>
      <trkpt lat="45.13479" lon="5.9046">
        <ele>1812.98</ele>
        <time>2025-02-06T11:10:10Z</time>
      </trkpt>
      <trkpt lat="45.13479" lon="5.90466">
        <ele>1813.517</ele>
        <time>2025-02-06T11:10:20Z</time>
      </trkpt>
      <trkpt lat="45.13478" lon="5.90472">
        <ele>1815.523</ele>
        <time>2025-02-06T11:10:29Z</time>
      </trkpt>
      <trkpt lat="45.13476" lon="5.90476">
        <ele>1818.656</ele>
        <time>2025-02-06T11:10:38Z</time>
      </trkpt>
      <trkpt lat="45.13473" lon="5.90481">
        <ele>1818.962</ele>
        <time>2025-02-06T11:10:48Z</time>
      </trkpt>
      <trkpt lat="45.1347" lon="5.90486">
        <ele>1820.373</ele>
        <time>2025-02-06T11:11:03Z</time>
      </trkpt>
      <trkpt lat="45.13468" lon="5.90492">
        <ele>1820.655</ele>
        <time>2025-02-06T11:11:17Z</time>
      </trkpt>
      <trkpt lat="45.13469" lon="5.90499">
        <ele>1817.636</ele>
        <time>2025-02-06T11:11:27Z</time>
      </trkpt>
      <trkpt lat="45.1347" lon="5.90505">
        <ele>1819.292</ele>
        <time>2025-02-06T11:11:36Z</time>
      </trkpt>
      <trkpt lat="45.13472" lon="5.90511">
        <ele>1818.53</ele>
        <time>2025-02-06T11:11:46Z</time>
      </trkpt>
      <trkpt lat="45.13472" lon="5.90517">
        <ele>1820.307</ele>
        <time>2025-02-06T11:11:56Z</time>
      </trkpt>
      <trkpt lat="45.13473" lon="5.90523">
        <ele>1821.369</ele>
        <time>2025-02-06T11:12:08Z</time>
      </trkpt>
      <trkpt lat="45.13473" lon="5.9053">
        <ele>1821.583</ele>
        <time>2025-02-06T11:12:22Z</time>
      </trkpt>
      <trkpt lat="45.13476" lon="5.90536">
        <ele>1822.377</ele>
        <time>2025-02-06T11:12:36Z</time>
      </trkpt>
      <trkpt lat="45.13476" lon="5.90542">
        <ele>1822.555</ele>
        <time>2025-02-06T11:12:47Z</time>
      </trkpt>
      <trkpt lat="45.13473" lon="5.90546">
        <ele>1819.964</ele>
        <time>2025-02-06T11:12:55Z</time>
      </trkpt>
      <trkpt lat="45.1347" lon="5.9055">
        <ele>1823.743</ele>
        <time>2025-02-06T11:13:04Z</time>
      </trkpt>
      <trkpt lat="45.13468" lon="5.90553">
        <ele>1827.321</ele>
        <time>2025-02-06T11:13:16Z</time>
      </trkpt>
      <trkpt lat="45.13468" lon="5.90553">
        <ele>1825.625</ele>
        <time>2025-02-06T11:13:29Z</time>
      </trkpt>
      <trkpt lat="45.13468" lon="5.90553">
        <ele>1826.355</ele>
        <time>2025-02-06T11:13:39Z</time>
      </trkpt>
      <trkpt lat="45.13468" lon="5.90553">
        <ele>1826.594</ele>
        <time>2025-02-06T11:13:59Z</time>
      </trkpt>
      <trkpt lat="45.13468" lon="5.90553">
        <ele>1828.559</ele>
        <time>2025-02-06T11:14:04Z</time>
      </trkpt>
      <trkpt lat="45.1347" lon="5.90561">
        <ele>1828.126</ele>
        <time>2025-02-06T11:14:11Z</time>
      </trkpt>
      <trkpt lat="45.13467" lon="5.90564">
        <ele>1831.882</ele>
        <time>2025-02-06T11:14:16Z</time>
      </trkpt>
      <trkpt lat="45.13465" lon="5.9057">
        <ele>1833.231</ele>
        <time>2025-02-06T11:14:31Z</time>
      </trkpt>
      <trkpt lat="45.13462" lon="5.90574">
        <ele>1834.523</ele>
        <time>2025-02-06T11:14:45Z</time>
      </trkpt>
      <trkpt lat="45.1346" lon="5.90579">
        <ele>1838.242</ele>
        <time>2025-02-06T11:14:56Z</time>
      </trkpt>
      <trkpt lat="45.13459" lon="5.90585">
        <ele>1838.973</ele>
        <time>2025-02-06T11:15:09Z</time>
      </trkpt>
      <trkpt lat="45.13457" lon="5.90591">
        <ele>1839.594</ele>
        <time>2025-02-06T11:15:20Z</time>
      </trkpt>
      <trkpt lat="45.13457" lon="5.90596">
        <ele>1843.878</ele>
        <time>2025-02-06T11:15:26Z</time>
      </trkpt>
      <trkpt lat="45.13457" lon="5.90603">
        <ele>1844.537</ele>
        <time>2025-02-06T11:15:37Z</time>
      </trkpt>
      <trkpt lat="45.13457" lon="5.90609">
        <ele>1846.273</ele>
        <time>2025-02-06T11:15:47Z</time>
      </trkpt>
      <trkpt lat="45.13458" lon="5.90616">
        <ele>1845.778</ele>
        <time>2025-02-06T11:15:59Z</time>
      </trkpt>
      <trkpt lat="45.13454" lon="5.90621">
        <ele>1844.831</ele>
        <time>2025-02-06T11:16:09Z</time>
      </trkpt>
      <trkpt lat="45.13452" lon="5.90624">
        <ele>1845.215</ele>
        <time>2025-02-06T11:16:30Z</time>
      </trkpt>
      <trkpt lat="45.13449" lon="5.90625">
        <ele>1844.248</ele>
        <time>2025-02-06T11:16:50Z</time>
      </trkpt>
      <trkpt lat="45.13446" lon="5.90631">
        <ele>1846.382</ele>
        <time>2025-02-06T11:17:01Z</time>
      </trkpt>
      <trkpt lat="45.13445" lon="5.90637">
        <ele>1846.984</ele>
        <time>2025-02-06T11:17:14Z</time>
      </trkpt>
      <trkpt lat="45.13446" lon="5.90643">
        <ele>1848.693</ele>
        <time>2025-02-06T11:17:24Z</time>
      </trkpt>
      <trkpt lat="45.13444" lon="5.90648">
        <ele>1852.734</ele>
        <time>2025-02-06T11:17:32Z</time>
      </trkpt>
      <trkpt lat="45.13446" lon="5.90654">
        <ele>1852.063</ele>
        <time>2025-02-06T11:17:49Z</time>
      </trkpt>
      <trkpt lat="45.13445" lon="5.90657">
        <ele>1857.062</ele>
        <time>2025-02-06T11:17:52Z</time>
      </trkpt>
      <trkpt lat="45.13447" lon="5.9066">
        <ele>1861.177</ele>
        <time>2025-02-06T11:18:00Z</time>
      </trkpt>
      <trkpt lat="45.13449" lon="5.90667">
        <ele>1861.847</ele>
        <time>2025-02-06T11:18:18Z</time>
      </trkpt>
      <trkpt lat="45.13449" lon="5.90673">
        <ele>1862.13</ele>
        <time>2025-02-06T11:18:32Z</time>
      </trkpt>
      <trkpt lat="45.13447" lon="5.90678">
        <ele>1859.093</ele>
        <time>2025-02-06T11:18:44Z</time>
      </trkpt>
      <trkpt lat="45.13449" lon="5.90683">
        <ele>1856.246</ele>
        <time>2025-02-06T11:19:02Z</time>
      </trkpt>
      <trkpt lat="45.13449" lon="5.90683">
        <ele>1855.543</ele>
        <time>2025-02-06T11:19:13Z</time>
      </trkpt>
      <trkpt lat="45.13449" lon="5.90683">
        <ele>1850.792</ele>
        <time>2025-02-06T11:19:19Z</time>
      </trkpt>
      <trkpt lat="45.13449" lon="5.90683">
        <ele>1855.861</ele>
        <time>2025-02-06T11:19:29Z</time>
      </trkpt>
      <trkpt lat="45.13449" lon="5.90683">
        <ele>1857.555</ele>
        <time>2025-02-06T11:19:50Z</time>
      </trkpt>
      <trkpt lat="45.1344" lon="5.90694">
        <ele>1857.295</ele>
        <time>2025-02-06T11:20:10Z</time>
      </trkpt>
      <trkpt lat="45.13436" lon="5.90695">
        <ele>1860.459</ele>
        <time>2025-02-06T11:20:28Z</time>
      </trkpt>
      <trkpt lat="45.13436" lon="5.90695">
        <ele>1862.851</ele>
        <time>2025-02-06T11:20:44Z</time>
      </trkpt>
      <trkpt lat="45.13436" lon="5.90697">
        <ele>1864.685</ele>
        <time>2025-02-06T11:21:03Z</time>
      </trkpt>
      <trkpt lat="45.13433" lon="5.90702">
        <ele>1865.416</ele>
        <time>2025-02-06T11:21:16Z</time>
      </trkpt>
      <trkpt lat="45.13436" lon="5.90707">
        <ele>1866.419</ele>
        <time>2025-02-06T11:21:24Z</time>
      </trkpt>
      <trkpt lat="45.13433" lon="5.90712">
        <ele>1866.55</ele>
        <time>2025-02-06T11:21:45Z</time>
      </trkpt>
      <trkpt lat="45.13435" lon="5.90718">
        <ele>1867.377</ele>
        <time>2025-02-06T11:21:54Z</time>
      </trkpt>
      <trkpt lat="45.13436" lon="5.90723">
        <ele>1871.025</ele>
        <time>2025-02-06T11:22:05Z</time>
      </trkpt>
      <trkpt lat="45.13437" lon="5.90729">
        <ele>1873.143</ele>
        <time>2025-02-06T11:22:17Z</time>
      </trkpt>
      <trkpt lat="45.1344" lon="5.90734">
        <ele>1871.5</ele>
        <time>2025-02-06T11:22:26Z</time>
      </trkpt>
      <trkpt lat="45.13442" lon="5.9074">
        <ele>1872.109</ele>
        <time>2025-02-06T11:22:38Z</time>
      </trkpt>
      <trkpt lat="45.13445" lon="5.90744">
        <ele>1872.985</ele>
        <time>2025-02-06T11:22:52Z</time>
      </trkpt>
      <trkpt lat="45.13446" lon="5.9075">
        <ele>1874.61</ele>
        <time>2025-02-06T11:23:01Z</time>
      </trkpt>
      <trkpt lat="45.13448" lon="5.90757">
        <ele>1876.84</ele>
        <time>2025-02-06T11:23:11Z</time>
      </trkpt>
      <trkpt lat="45.1345" lon="5.90763">
        <ele>1879</ele>
        <time>2025-02-06T11:23:19Z</time>
      </trkpt>
      <trkpt lat="45.1345" lon="5.9077">
        <ele>1880.135</ele>
        <time>2025-02-06T11:23:30Z</time>
      </trkpt>
      <trkpt lat="45.13449" lon="5.90776">
        <ele>1879.742</ele>
        <time>2025-02-06T11:23:38Z</time>
      </trkpt>
      <trkpt lat="45.13448" lon="5.90783">
        <ele>1879.435</ele>
        <time>2025-02-06T11:23:53Z</time>
      </trkpt>
      <trkpt lat="45.13451" lon="5.90789">
        <ele>1879.816</ele>
        <time>2025-02-06T11:24:04Z</time>
      </trkpt>
      <trkpt lat="45.13451" lon="5.90795">
        <ele>1880.067</ele>
        <time>2025-02-06T11:24:17Z</time>
      </trkpt>
      <trkpt lat="45.13452" lon="5.90801">
        <ele>1883.473</ele>
        <time>2025-02-06T11:24:33Z</time>
      </trkpt>
      <trkpt lat="45.13449" lon="5.90806">
        <ele>1885.733</ele>
        <time>2025-02-06T11:24:47Z</time>
      </trkpt>
      <trkpt lat="45.13448" lon="5.90812">
        <ele>1888.101</ele>
        <time>2025-02-06T11:25:04Z</time>
      </trkpt>
      <trkpt lat="45.13447" lon="5.90818">
        <ele>1887.349</ele>
        <time>2025-02-06T11:25:21Z</time>
      </trkpt>
      <trkpt lat="45.13445" lon="5.90825">
        <ele>1887.916</ele>
        <time>2025-02-06T11:25:28Z</time>
      </trkpt>
      <trkpt lat="45.13446" lon="5.9083">
        <ele>1891.275</ele>
        <time>2025-02-06T11:25:35Z</time>
      </trkpt>
      <trkpt lat="45.13445" lon="5.90836">
        <ele>1891.719</ele>
        <time>2025-02-06T11:25:49Z</time>
      </trkpt>
      <trkpt lat="45.13448" lon="5.9084">
        <ele>1893.02</ele>
        <time>2025-02-06T11:25:59Z</time>
      </trkpt>
      <trkpt lat="45.13446" lon="5.90847">
        <ele>1892.363</ele>
        <time>2025-02-06T11:26:10Z</time>
      </trkpt>
      <trkpt lat="45.13443" lon="5.90851">
        <ele>1893</ele>
        <time>2025-02-06T11:26:30Z</time>
      </trkpt>
      <trkpt lat="45.1344" lon="5.90857">
        <ele>1895.904</ele>
        <time>2025-02-06T11:26:41Z</time>
      </trkpt>
      <trkpt lat="45.13437" lon="5.90861">
        <ele>1897.387</ele>
        <time>2025-02-06T11:26:48Z</time>
      </trkpt>
      <trkpt lat="45.13434" lon="5.90865">
        <ele>1900.253</ele>
        <time>2025-02-06T11:26:55Z</time>
      </trkpt>
      <trkpt lat="45.13434" lon="5.90868">
        <ele>1901.376</ele>
        <time>2025-02-06T11:27:15Z</time>
      </trkpt>
      <trkpt lat="45.13438" lon="5.90868">
        <ele>1904.541</ele>
        <time>2025-02-06T11:27:26Z</time>
      </trkpt>
      <trkpt lat="45.13443" lon="5.90867">
        <ele>1904.737</ele>
        <time>2025-02-06T11:27:35Z</time>
      </trkpt>
      <trkpt lat="45.13446" lon="5.90869">
        <ele>1906.903</ele>
        <time>2025-02-06T11:27:56Z</time>
      </trkpt>
      <trkpt lat="45.13449" lon="5.90875">
        <ele>1905.742</ele>
        <time>2025-02-06T11:28:05Z</time>
      </trkpt>
      <trkpt lat="45.13451" lon="5.9088">
        <ele>1906.045</ele>
        <time>2025-02-06T11:28:18Z</time>
      </trkpt>
      <trkpt lat="45.13452" lon="5.90886">
        <ele>1905.299</ele>
        <time>2025-02-06T11:28:33Z</time>
      </trkpt>
      <trkpt lat="45.13455" lon="5.9089">
        <ele>1908.047</ele>
        <time>2025-02-06T11:28:43Z</time>
      </trkpt>
      <trkpt lat="45.13457" lon="5.90893">
        <ele>1911.856</ele>
        <time>2025-02-06T11:28:53Z</time>
      </trkpt>
      <trkpt lat="45.1346" lon="5.90897">
        <ele>1914.807</ele>
        <time>2025-02-06T11:29:06Z</time>
      </trkpt>
      <trkpt lat="45.13465" lon="5.90896">
        <ele>1914.889</ele>
        <time>2025-02-06T11:29:22Z</time>
      </trkpt>
      <trkpt lat="45.1347" lon="5.90896">
        <ele>1915.574</ele>
        <time>2025-02-06T11:29:35Z</time>
      </trkpt>
      <trkpt lat="45.13474" lon="5.90896">
        <ele>1916.953</ele>
        <time>2025-02-06T11:29:44Z</time>
      </trkpt>
      <trkpt lat="45.13477" lon="5.909">
        <ele>1919.271</ele>
        <time>2025-02-06T11:30:00Z</time>
      </trkpt>
      <trkpt lat="45.1348" lon="5.90905">
        <ele>1920.059</ele>
        <time>2025-02-06T11:30:14Z</time>
      </trkpt>
      <trkpt lat="45.13482" lon="5.90911">
        <ele>1921.744</ele>
        <time>2025-02-06T11:30:27Z</time>
      </trkpt>
      <trkpt lat="45.13484" lon="5.90917">
        <ele>1922.273</ele>
        <time>2025-02-06T11:30:35Z</time>
      </trkpt>
      <trkpt lat="45.13485" lon="5.90923">
        <ele>1924.761</ele>
        <time>2025-02-06T11:30:47Z</time>
      </trkpt>
      <trkpt lat="45.13485" lon="5.90928">
        <ele>1926.917</ele>
        <time>2025-02-06T11:30:58Z</time>
      </trkpt>
      <trkpt lat="45.13484" lon="5.90935">
        <ele>1928.573</ele>
        <time>2025-02-06T11:31:08Z</time>
      </trkpt>
      <trkpt lat="45.13484" lon="5.90941">
        <ele>1927.458</ele>
        <time>2025-02-06T11:31:21Z</time>
      </trkpt>
      <trkpt lat="45.13482" lon="5.90947">
        <ele>1926.767</ele>
        <time>2025-02-06T11:31:31Z</time>
      </trkpt>
      <trkpt lat="45.13482" lon="5.90955">
        <ele>1925.926</ele>
        <time>2025-02-06T11:31:38Z</time>
      </trkpt>
      <trkpt lat="45.13484" lon="5.9096">
        <ele>1927.754</ele>
        <time>2025-02-06T11:31:45Z</time>
      </trkpt>
      <trkpt lat="45.13484" lon="5.90967">
        <ele>1929.06</ele>
        <time>2025-02-06T11:31:59Z</time>
      </trkpt>
      <trkpt lat="45.13488" lon="5.90969">
        <ele>1930.953</ele>
        <time>2025-02-06T11:32:19Z</time>
      </trkpt>
      <trkpt lat="45.1349" lon="5.90972">
        <ele>1931.969</ele>
        <time>2025-02-06T11:32:39Z</time>
      </trkpt>
      <trkpt lat="45.1349" lon="5.90977">
        <ele>1934.957</ele>
        <time>2025-02-06T11:32:47Z</time>
      </trkpt>
      <trkpt lat="45.13487" lon="5.90984">
        <ele>1934.38</ele>
        <time>2025-02-06T11:33:08Z</time>
      </trkpt>
      <trkpt lat="45.1349" lon="5.90989">
        <ele>1934.478</ele>
        <time>2025-02-06T11:33:16Z</time>
      </trkpt>
      <trkpt lat="45.13494" lon="5.90993">
        <ele>1937.066</ele>
        <time>2025-02-06T11:33:28Z</time>
      </trkpt>
      <trkpt lat="45.13496" lon="5.90997">
        <ele>1940.883</ele>
        <time>2025-02-06T11:33:42Z</time>
      </trkpt>
      <trkpt lat="45.13499" lon="5.91001">
        <ele>1941.42</ele>
        <time>2025-02-06T11:33:54Z</time>
      </trkpt>
      <trkpt lat="45.13503" lon="5.91005">
        <ele>1943.557</ele>
        <time>2025-02-06T11:34:07Z</time>
      </trkpt>
      <trkpt lat="45.13504" lon="5.91011">
        <ele>1945.307</ele>
        <time>2025-02-06T11:34:19Z</time>
      </trkpt>
      <trkpt lat="45.13506" lon="5.91017">
        <ele>1944.346</ele>
        <time>2025-02-06T11:34:29Z</time>
      </trkpt>
      <trkpt lat="45.13505" lon="5.9102">
        <ele>1948.231</ele>
        <time>2025-02-06T11:34:42Z</time>
      </trkpt>
      <trkpt lat="45.135" lon="5.91023">
        <ele>1946.801</ele>
        <time>2025-02-06T11:34:56Z</time>
      </trkpt>
      <trkpt lat="45.135" lon="5.91023">
        <ele>1946.607</ele>
        <time>2025-02-06T11:35:16Z</time>
      </trkpt>
      <trkpt lat="45.13499" lon="5.91024">
        <ele>1946.568</ele>
        <time>2025-02-06T11:35:37Z</time>
      </trkpt>
      <trkpt lat="45.13498" lon="5.91026">
        <ele>1946.287</ele>
        <time>2025-02-06T11:35:57Z</time>
      </trkpt>
      <trkpt lat="45.13498" lon="5.91032">
        <ele>1946.376</ele>
        <time>2025-02-06T11:36:10Z</time>
      </trkpt>
      <trkpt lat="45.135" lon="5.91038">
        <ele>1947.703</ele>
        <time>2025-02-06T11:36:22Z</time>
      </trkpt>
      <trkpt lat="45.13503" lon="5.91042">
        <ele>1949.549</ele>
        <time>2025-02-06T11:36:35Z</time>
      </trkpt>
      <trkpt lat="45.13501" lon="5.91048">
        <ele>1951.558</ele>
        <time>2025-02-06T11:36:44Z</time>
      </trkpt>
      <trkpt lat="45.13502" lon="5.91054">
        <ele>1951.37</ele>
        <time>2025-02-06T11:36:57Z</time>
      </trkpt>
      <trkpt lat="45.13506" lon="5.91056">
        <ele>1954.317</ele>
        <time>2025-02-06T11:37:09Z</time>
      </trkpt>
      <trkpt lat="45.1351" lon="5.91059">
        <ele>1956.805</ele>
        <time>2025-02-06T11:37:25Z</time>
      </trkpt>
      <trkpt lat="45.13511" lon="5.91055">
        <ele>1958.739</ele>
        <time>2025-02-06T11:37:45Z</time>
      </trkpt>
      <trkpt lat="45.13513" lon="5.91049">
        <ele>1961.162</ele>
        <time>2025-02-06T11:37:55Z</time>
      </trkpt>
      <trkpt lat="45.13517" lon="5.91046">
        <ele>1961.84</ele>
        <time>2025-02-06T11:38:14Z</time>
      </trkpt>
      <trkpt lat="45.13519" lon="5.9104">
        <ele>1962.206</ele>
        <time>2025-02-06T11:38:27Z</time>
      </trkpt>
      <trkpt lat="45.13519" lon="5.9104">
        <ele>1962.952</ele>
        <time>2025-02-06T11:38:48Z</time>
      </trkpt>
      <trkpt lat="45.13519" lon="5.9104">
        <ele>1961.792</ele>
        <time>2025-02-06T11:39:08Z</time>
      </trkpt>
      <trkpt lat="45.13521" lon="5.91043">
        <ele>1961.52</ele>
        <time>2025-02-06T11:39:28Z</time>
      </trkpt>
      <trkpt lat="45.13521" lon="5.91044">
        <ele>1962.277</ele>
        <time>2025-02-06T11:39:49Z</time>
      </trkpt>
      <trkpt lat="45.13521" lon="5.91046">
        <ele>1963.185</ele>
        <time>2025-02-06T11:40:09Z</time>
      </trkpt>
      <trkpt lat="45.13524" lon="5.9105">
        <ele>1965.568</ele>
        <time>2025-02-06T11:40:18Z</time>
      </trkpt>
      <trkpt lat="45.13522" lon="5.91056">
        <ele>1964.333</ele>
        <time>2025-02-06T11:40:24Z</time>
      </trkpt>
      <trkpt lat="45.13522" lon="5.91062">
        <ele>1962.721</ele>
        <time>2025-02-06T11:40:34Z</time>
      </trkpt>
      <trkpt lat="45.13522" lon="5.91069">
        <ele>1964.212</ele>
        <time>2025-02-06T11:40:49Z</time>
      </trkpt>
      <trkpt lat="45.13524" lon="5.91072">
        <ele>1968.942</ele>
        <time>2025-02-06T11:41:01Z</time>
      </trkpt>
      <trkpt lat="45.13526" lon="5.91075">
        <ele>1972.895</ele>
        <time>2025-02-06T11:41:07Z</time>
      </trkpt>
      <trkpt lat="45.13529" lon="5.91081">
        <ele>1974.263</ele>
        <time>2025-02-06T11:41:19Z</time>
      </trkpt>
      <trkpt lat="45.13533" lon="5.91082">
        <ele>1973.768</ele>
        <time>2025-02-06T11:41:32Z</time>
      </trkpt>
      <trkpt lat="45.13538" lon="5.91082">
        <ele>1975.237</ele>
        <time>2025-02-06T11:41:46Z</time>
      </trkpt>
      <trkpt lat="45.13542" lon="5.91081">
        <ele>1977.532</ele>
        <time>2025-02-06T11:41:58Z</time>
      </trkpt>
      <trkpt lat="45.13544" lon="5.91087">
        <ele>1974.53</ele>
        <time>2025-02-06T11:42:14Z</time>
      </trkpt>
      <trkpt lat="45.13541" lon="5.91095">
        <ele>1974.397</ele>
        <time>2025-02-06T11:42:22Z</time>
      </trkpt>
      <trkpt lat="45.13541" lon="5.91101">
        <ele>1973.368</ele>
        <time>2025-02-06T11:42:30Z</time>
      </trkpt>
      <trkpt lat="45.13538" lon="5.91106">
        <ele>1974.942</ele>
        <time>2025-02-06T11:42:45Z</time>
      </trkpt>
      <trkpt lat="45.13534" lon="5.91109">
        <ele>1975.589</ele>
        <time>2025-02-06T11:42:53Z</time>
      </trkpt>
      <trkpt lat="45.13532" lon="5.91115">
        <ele>1978.301</ele>
        <time>2025-02-06T11:43:04Z</time>
      </trkpt>
      <trkpt lat="45.13533" lon="5.91118">
        <ele>1973.71</ele>
        <time>2025-02-06T11:43:10Z</time>
      </trkpt>
      <trkpt lat="45.1353" lon="5.91121">
        <ele>1973.921</ele>
        <time>2025-02-06T11:43:30Z</time>
      </trkpt>
      <trkpt lat="45.1353" lon="5.91128">
        <ele>1973.367</ele>
        <time>2025-02-06T11:43:39Z</time>
      </trkpt>
      <trkpt lat="45.13526" lon="5.91129">
        <ele>1975.868</ele>
        <time>2025-02-06T11:43:51Z</time>
      </trkpt>
      <trkpt lat="45.13524" lon="5.91134">
        <ele>1979.122</ele>
        <time>2025-02-06T11:44:08Z</time>
      </trkpt>
      <trkpt lat="45.13522" lon="5.91139">
        <ele>1980.769</ele>
        <time>2025-02-06T11:44:23Z</time>
      </trkpt>
      <trkpt lat="45.13518" lon="5.91139">
        <ele>1983.208</ele>
        <time>2025-02-06T11:44:36Z</time>
      </trkpt>
      <trkpt lat="45.13518" lon="5.91142">
        <ele>1978.636</ele>
        <time>2025-02-06T11:44:46Z</time>
      </trkpt>
      <trkpt lat="45.13519" lon="5.91138">
        <ele>1983.006</ele>
        <time>2025-02-06T11:44:53Z</time>
      </trkpt>
      <trkpt lat="45.13523" lon="5.91137">
        <ele>1985.743</ele>
        <time>2025-02-06T11:45:08Z</time>
      </trkpt>
      <trkpt lat="45.13525" lon="5.91137">
        <ele>1990.238</ele>
        <time>2025-02-06T11:45:16Z</time>
      </trkpt>
      <trkpt lat="45.13529" lon="5.91134">
        <ele>1992.88</ele>
        <time>2025-02-06T11:45:23Z</time>
      </trkpt>
      <trkpt lat="45.13533" lon="5.91132">
        <ele>1994.952</ele>
        <time>2025-02-06T11:45:36Z</time>
      </trkpt>
      <trkpt lat="45.13532" lon="5.91138">
        <ele>1991.881</ele>
        <time>2025-02-06T11:45:49Z</time>
      </trkpt>
      <trkpt lat="45.13531" lon="5.91144">
        <ele>1991.411</ele>
        <time>2025-02-06T11:45:54Z</time>
      </trkpt>
      <trkpt lat="45.1353" lon="5.91149">
        <ele>1988.209</ele>
        <time>2025-02-06T11:46:01Z</time>
      </trkpt>
      <trkpt lat="45.1353" lon="5.91156">
        <ele>1986.105</ele>
        <time>2025-02-06T11:46:11Z</time>
      </trkpt>
      <trkpt lat="45.13529" lon="5.91162">
        <ele>1987.704</ele>
        <time>2025-02-06T11:46:26Z</time>
      </trkpt>
      <trkpt lat="45.13525" lon="5.91165">
        <ele>1990.276</ele>
        <time>2025-02-06T11:46:33Z</time>
      </trkpt>
      <trkpt lat="45.13521" lon="5.91165">
        <ele>1988.455</ele>
        <time>2025-02-06T11:46:46Z</time>
      </trkpt>
      <trkpt lat="45.13517" lon="5.91165">
        <ele>1991.884</ele>
        <time>2025-02-06T11:46:54Z</time>
      </trkpt>
      <trkpt lat="45.13512" lon="5.91165">
        <ele>1992.791</ele>
        <time>2025-02-06T11:47:04Z</time>
      </trkpt>
      <trkpt lat="45.1351" lon="5.91166">
        <ele>1996.931</ele>
        <time>2025-02-06T11:47:12Z</time>
      </trkpt>
      <trkpt lat="45.13505" lon="5.91164">
        <ele>1999.556</ele>
        <time>2025-02-06T11:47:19Z</time>
      </trkpt>
      <trkpt lat="45.13501" lon="5.91165">
        <ele>2003.42</ele>
        <time>2025-02-06T11:47:30Z</time>
      </trkpt>
      <trkpt lat="45.13501" lon="5.91165">
        <ele>1997.21</ele>
        <time>2025-02-06T11:47:33Z</time>
      </trkpt>
      <trkpt lat="45.13496" lon="5.91165">
        <ele>1998.082</ele>
        <time>2025-02-06T11:47:45Z</time>
      </trkpt>
      <trkpt lat="45.13493" lon="5.91164">
        <ele>2002.347</ele>
        <time>2025-02-06T11:47:52Z</time>
      </trkpt>
      <trkpt lat="45.13489" lon="5.91161">
        <ele>2002.244</ele>
        <time>2025-02-06T11:48:05Z</time>
      </trkpt>
      <trkpt lat="45.1349" lon="5.91166">
        <ele>1999.085</ele>
        <time>2025-02-06T11:48:19Z</time>
      </trkpt>
      <trkpt lat="45.13491" lon="5.9117">
        <ele>2003.094</ele>
        <time>2025-02-06T11:48:29Z</time>
      </trkpt>
      <trkpt lat="45.13494" lon="5.91176">
        <ele>2005.346</ele>
        <time>2025-02-06T11:48:40Z</time>
      </trkpt>
      <trkpt lat="45.13498" lon="5.91178">
        <ele>2007.351</ele>
        <time>2025-02-06T11:48:52Z</time>
      </trkpt>
      <trkpt lat="45.13503" lon="5.91179">
        <ele>2007.51</ele>
        <time>2025-02-06T11:49:01Z</time>
      </trkpt>
      <trkpt lat="45.13508" lon="5.91181">
        <ele>2010.128</ele>
        <time>2025-02-06T11:49:18Z</time>
      </trkpt>
      <trkpt lat="45.13511" lon="5.91185">
        <ele>2011.653</ele>
        <time>2025-02-06T11:49:29Z</time>
      </trkpt>
      <trkpt lat="45.13514" lon="5.9119">
        <ele>2010.555</ele>
        <time>2025-02-06T11:49:36Z</time>
      </trkpt>
      <trkpt lat="45.13513" lon="5.91196">
        <ele>2008.04</ele>
        <time>2025-02-06T11:49:44Z</time>
      </trkpt>
      <trkpt lat="45.13513" lon="5.91202">
        <ele>2009.638</ele>
        <time>2025-02-06T11:49:57Z</time>
      </trkpt>
      <trkpt lat="45.13516" lon="5.91207">
        <ele>2008.083</ele>
        <time>2025-02-06T11:50:14Z</time>
      </trkpt>
      <trkpt lat="45.13521" lon="5.91208">
        <ele>2010.794</ele>
        <time>2025-02-06T11:50:24Z</time>
      </trkpt>
      <trkpt lat="45.13525" lon="5.9121">
        <ele>2011.939</ele>
        <time>2025-02-06T11:50:31Z</time>
      </trkpt>
      <trkpt lat="45.13529" lon="5.91214">
        <ele>2012.906</ele>
        <time>2025-02-06T11:50:39Z</time>
      </trkpt>
      <trkpt lat="45.13533" lon="5.91216">
        <ele>2016.09</ele>
        <time>2025-02-06T11:50:48Z</time>
      </trkpt>
      <trkpt lat="45.13537" lon="5.91218">
        <ele>2014.663</ele>
        <time>2025-02-06T11:51:08Z</time>
      </trkpt>
      <trkpt lat="45.13541" lon="5.91216">
        <ele>2015.401</ele>
        <time>2025-02-06T11:51:27Z</time>
      </trkpt>
      <trkpt lat="45.13541" lon="5.91216">
        <ele>2013.738</ele>
        <time>2025-02-06T11:51:48Z</time>
      </trkpt>
      <trkpt lat="45.13538" lon="5.91219">
        <ele>2014.546</ele>
        <time>2025-02-06T11:52:09Z</time>
      </trkpt>
      <trkpt lat="45.13535" lon="5.9122">
        <ele>2019.049</ele>
        <time>2025-02-06T11:52:16Z</time>
      </trkpt>
      <trkpt lat="45.13531" lon="5.9122">
        <ele>2022.412</ele>
        <time>2025-02-06T11:52:25Z</time>
      </trkpt>
      <trkpt lat="45.13526" lon="5.91221">
        <ele>2023.843</ele>
        <time>2025-02-06T11:52:31Z</time>
      </trkpt>
      <trkpt lat="45.13525" lon="5.91228">
        <ele>2021.196</ele>
        <time>2025-02-06T11:52:39Z</time>
      </trkpt>
      <trkpt lat="45.13527" lon="5.91233">
        <ele>2018.4</ele>
        <time>2025-02-06T11:52:43Z</time>
      </trkpt>
      <trkpt lat="45.13523" lon="5.91234">
        <ele>2020.123</ele>
        <time>2025-02-06T11:52:55Z</time>
      </trkpt>
      <trkpt lat="45.13518" lon="5.91234">
        <ele>2021.692</ele>
        <time>2025-02-06T11:53:09Z</time>
      </trkpt>
      <trkpt lat="45.13514" lon="5.91235">
        <ele>2023.353</ele>
        <time>2025-02-06T11:53:19Z</time>
      </trkpt>
      <trkpt lat="45.13511" lon="5.91233">
        <ele>2028.025</ele>
        <time>2025-02-06T11:53:27Z</time>
      </trkpt>
      <trkpt lat="45.13508" lon="5.91236">
        <ele>2025.276</ele>
        <time>2025-02-06T11:53:40Z</time>
      </trkpt>
      <trkpt lat="45.13504" lon="5.91238">
        <ele>2024.165</ele>
        <time>2025-02-06T11:53:53Z</time>
      </trkpt>
      <trkpt lat="45.13499" lon="5.91239">
        <ele>2025.724</ele>
        <time>2025-02-06T11:54:05Z</time>
      </trkpt>
      <trkpt lat="45.13495" lon="5.91241">
        <ele>2024.077</ele>
        <time>2025-02-06T11:54:18Z</time>
      </trkpt>
      <trkpt lat="45.13491" lon="5.91245">
        <ele>2025.315</ele>
        <time>2025-02-06T11:54:28Z</time>
      </trkpt>
      <trkpt lat="45.13487" lon="5.91248">
        <ele>2027.476</ele>
        <time>2025-02-06T11:54:45Z</time>
      </trkpt>
      <trkpt lat="45.13487" lon="5.91248">
        <ele>2027.387</ele>
        <time>2025-02-06T11:55:05Z</time>
      </trkpt>
      <trkpt lat="45.13483" lon="5.91251">
        <ele>2029.874</ele>
        <time>2025-02-06T11:55:16Z</time>
      </trkpt>
      <trkpt lat="45.1348" lon="5.91255">
        <ele>2032.186</ele>
        <time>2025-02-06T11:55:25Z</time>
      </trkpt>
      <trkpt lat="45.13477" lon="5.91261">
        <ele>2032.155</ele>
        <time>2025-02-06T11:55:37Z</time>
      </trkpt>
      <trkpt lat="45.13474" lon="5.91266">
        <ele>2033.772</ele>
        <time>2025-02-06T11:55:45Z</time>
      </trkpt>
      <trkpt lat="45.13473" lon="5.91271">
        <ele>2032.789</ele>
        <time>2025-02-06T11:55:53Z</time>
      </trkpt>
      <trkpt lat="45.1347" lon="5.91277">
        <ele>2032.594</ele>
        <time>2025-02-06T11:56:02Z</time>
      </trkpt>
      <trkpt lat="45.13468" lon="5.91283">
        <ele>2033.131</ele>
        <time>2025-02-06T11:56:10Z</time>
      </trkpt>
      <trkpt lat="45.13464" lon="5.91288">
        <ele>2033.958</ele>
        <time>2025-02-06T11:56:18Z</time>
      </trkpt>
      <trkpt lat="45.13462" lon="5.91293">
        <ele>2033.952</ele>
        <time>2025-02-06T11:56:29Z</time>
      </trkpt>
      <trkpt lat="45.1346" lon="5.913">
        <ele>2033.253</ele>
        <time>2025-02-06T11:56:39Z</time>
      </trkpt>
      <trkpt lat="45.13458" lon="5.91305">
        <ele>2035.979</ele>
        <time>2025-02-06T11:56:46Z</time>
      </trkpt>
      <trkpt lat="45.13457" lon="5.91311">
        <ele>2037.722</ele>
        <time>2025-02-06T11:56:57Z</time>
      </trkpt>
      <trkpt lat="45.13455" lon="5.91317">
        <ele>2038.561</ele>
        <time>2025-02-06T11:57:08Z</time>
      </trkpt>
      <trkpt lat="45.13452" lon="5.91322">
        <ele>2038.921</ele>
        <time>2025-02-06T11:57:24Z</time>
      </trkpt>
      <trkpt lat="45.13449" lon="5.91327">
        <ele>2040.011</ele>
        <time>2025-02-06T11:57:33Z</time>
      </trkpt>
      <trkpt lat="45.13447" lon="5.91333">
        <ele>2041.288</ele>
        <time>2025-02-06T11:57:43Z</time>
      </trkpt>
      <trkpt lat="45.13446" lon="5.91334">
        <ele>2038.594</ele>
        <time>2025-02-06T11:58:04Z</time>
      </trkpt>
      <trkpt lat="45.13446" lon="5.91334">
        <ele>2038.859</ele>
        <time>2025-02-06T11:58:24Z</time>
      </trkpt>
      <trkpt lat="45.13446" lon="5.91334">
        <ele>2038.367</ele>
        <time>2025-02-06T11:58:44Z</time>
      </trkpt>
      <trkpt lat="45.13446" lon="5.91334">
        <ele>2038.194</ele>
        <time>2025-02-06T11:59:05Z</time>
      </trkpt>
      <trkpt lat="45.13446" lon="5.91334">
        <ele>2038.599</ele>
        <time>2025-02-06T11:59:25Z</time>
      </trkpt>
      <trkpt lat="45.13446" lon="5.91334">
        <ele>2038.522</ele>
        <time>2025-02-06T11:59:46Z</time>
      </trkpt>
      <trkpt lat="45.13446" lon="5.91334">
        <ele>2040.303</ele>
        <time>2025-02-06T12:00:05Z</time>
      </trkpt>
      <trkpt lat="45.13446" lon="5.91334">
        <ele>2041.85</ele>
        <time>2025-02-06T12:00:25Z</time>
      </trkpt>
      <trkpt lat="45.13452" lon="5.91338">
        <ele>2042.17</ele>
        <time>2025-02-06T12:00:46Z</time>
      </trkpt>
      <trkpt lat="45.13452" lon="5.91345">
        <ele>2041.228</ele>
        <time>2025-02-06T12:00:55Z</time>
      </trkpt>
      <trkpt lat="45.13451" lon="5.91352">
        <ele>2042.347</ele>
        <time>2025-02-06T12:01:08Z</time>
      </trkpt>
      <trkpt lat="45.13449" lon="5.91357">
        <ele>2044.4</ele>
        <time>2025-02-06T12:01:17Z</time>
      </trkpt>
      <trkpt lat="45.13453" lon="5.91356">
        <ele>2047.08</ele>
        <time>2025-02-06T12:01:23Z</time>
      </trkpt>
      <trkpt lat="45.13456" lon="5.91353">
        <ele>2050.123</ele>
        <time>2025-02-06T12:01:31Z</time>
      </trkpt>
      <trkpt lat="45.1346" lon="5.9135">
        <ele>2050.446</ele>
        <time>2025-02-06T12:01:43Z</time>
      </trkpt>
      <trkpt lat="45.13463" lon="5.91346">
        <ele>2053.865</ele>
        <time>2025-02-06T12:01:54Z</time>
      </trkpt>
      <trkpt lat="45.13467" lon="5.91344">
        <ele>2053.813</ele>
        <time>2025-02-06T12:02:05Z</time>
      </trkpt>
      <trkpt lat="45.13467" lon="5.91351">
        <ele>2052.276</ele>
        <time>2025-02-06T12:02:18Z</time>
      </trkpt>
      <trkpt lat="45.13465" lon="5.91357">
        <ele>2051.083</ele>
        <time>2025-02-06T12:02:35Z</time>
      </trkpt>
      <trkpt lat="45.13465" lon="5.91359">
        <ele>2051.86</ele>
        <time>2025-02-06T12:02:55Z</time>
      </trkpt>
      <trkpt lat="45.13465" lon="5.91365">
        <ele>2052.832</ele>
        <time>2025-02-06T12:03:13Z</time>
      </trkpt>
      <trkpt lat="45.13466" lon="5.91371">
        <ele>2053.905</ele>
        <time>2025-02-06T12:03:24Z</time>
      </trkpt>
      <trkpt lat="45.13466" lon="5.91378">
        <ele>2054.255</ele>
        <time>2025-02-06T12:03:40Z</time>
      </trkpt>
      <trkpt lat="45.13463" lon="5.91382">
        <ele>2057.799</ele>
        <time>2025-02-06T12:03:48Z</time>
      </trkpt>
      <trkpt lat="45.13461" lon="5.91387">
        <ele>2058.689</ele>
        <time>2025-02-06T12:04:04Z</time>
      </trkpt>
      <trkpt lat="45.13459" lon="5.91393">
        <ele>2060.571</ele>
        <time>2025-02-06T12:04:16Z</time>
      </trkpt>
      <trkpt lat="45.13458" lon="5.91399">
        <ele>2061.47</ele>
        <time>2025-02-06T12:04:35Z</time>
      </trkpt>
      <trkpt lat="45.13455" lon="5.91404">
        <ele>2062.559</ele>
        <time>2025-02-06T12:04:47Z</time>
      </trkpt>
      <trkpt lat="45.13455" lon="5.91403">
        <ele>2064.397</ele>
        <time>2025-02-06T12:05:07Z</time>
      </trkpt>
      <trkpt lat="45.13459" lon="5.91404">
        <ele>2066.717</ele>
        <time>2025-02-06T12:05:15Z</time>
      </trkpt>
      <trkpt lat="45.13463" lon="5.91401">
        <ele>2069.024</ele>
        <time>2025-02-06T12:05:22Z</time>
      </trkpt>
      <trkpt lat="45.13467" lon="5.91398">
        <ele>2072.343</ele>
        <time>2025-02-06T12:05:31Z</time>
      </trkpt>
      <trkpt lat="45.13472" lon="5.91397">
        <ele>2072.112</ele>
        <time>2025-02-06T12:05:42Z</time>
      </trkpt>
      <trkpt lat="45.13475" lon="5.91395">
        <ele>2069.258</ele>
        <time>2025-02-06T12:05:50Z</time>
      </trkpt>
      <trkpt lat="45.13479" lon="5.91396">
        <ele>2065.678</ele>
        <time>2025-02-06T12:05:59Z</time>
      </trkpt>
      <trkpt lat="45.13484" lon="5.91393">
        <ele>2067.577</ele>
        <time>2025-02-06T12:06:09Z</time>
      </trkpt>
      <trkpt lat="45.13484" lon="5.91386">
        <ele>2068.171</ele>
        <time>2025-02-06T12:06:26Z</time>
      </trkpt>
      <trkpt lat="45.13488" lon="5.91385">
        <ele>2070.564</ele>
        <time>2025-02-06T12:06:36Z</time>
      </trkpt>
      <trkpt lat="45.1349" lon="5.91389">
        <ele>2072.458</ele>
        <time>2025-02-06T12:06:56Z</time>
      </trkpt>
      <trkpt lat="45.13487" lon="5.91394">
        <ele>2074.079</ele>
        <time>2025-02-06T12:07:06Z</time>
      </trkpt>
      <trkpt lat="45.13486" lon="5.914">
        <ele>2076.167</ele>
        <time>2025-02-06T12:07:23Z</time>
      </trkpt>
      <trkpt lat="45.13484" lon="5.91405">
        <ele>2078.008</ele>
        <time>2025-02-06T12:07:36Z</time>
      </trkpt>
      <trkpt lat="45.13484" lon="5.91412">
        <ele>2077.219</ele>
        <time>2025-02-06T12:07:56Z</time>
      </trkpt>
      <trkpt lat="45.13482" lon="5.91419">
        <ele>2077.565</ele>
        <time>2025-02-06T12:08:15Z</time>
      </trkpt>
      <trkpt lat="45.1348" lon="5.91424">
        <ele>2079.553</ele>
        <time>2025-02-06T12:08:29Z</time>
      </trkpt>
      <trkpt lat="45.13475" lon="5.91422">
        <ele>2082.885</ele>
        <time>2025-02-06T12:08:36Z</time>
      </trkpt>
      <trkpt lat="45.13476" lon="5.91423">
        <ele>2077.7</ele>
        <time>2025-02-06T12:08:41Z</time>
      </trkpt>
      <trkpt lat="45.13479" lon="5.91421">
        <ele>2081.429</ele>
        <time>2025-02-06T12:08:49Z</time>
      </trkpt>
      <trkpt lat="45.13484" lon="5.9142">
        <ele>2082.184</ele>
        <time>2025-02-06T12:08:56Z</time>
      </trkpt>
      <trkpt lat="45.13488" lon="5.91418">
        <ele>2083.954</ele>
        <time>2025-02-06T12:09:07Z</time>
      </trkpt>
      <trkpt lat="45.13493" lon="5.91417">
        <ele>2082.641</ele>
        <time>2025-02-06T12:09:16Z</time>
      </trkpt>
      <trkpt lat="45.13497" lon="5.91416">
        <ele>2085.441</ele>
        <time>2025-02-06T12:09:30Z</time>
      </trkpt>
      <trkpt lat="45.13498" lon="5.91417">
        <ele>2083.461</ele>
        <time>2025-02-06T12:09:50Z</time>
      </trkpt>
      <trkpt lat="45.13496" lon="5.91423">
        <ele>2084.488</ele>
        <time>2025-02-06T12:10:04Z</time>
      </trkpt>
      <trkpt lat="45.13493" lon="5.91428">
        <ele>2086.236</ele>
        <time>2025-02-06T12:10:19Z</time>
      </trkpt>
      <trkpt lat="45.13491" lon="5.91433">
        <ele>2089.61</ele>
        <time>2025-02-06T12:10:31Z</time>
      </trkpt>
      <trkpt lat="45.13489" lon="5.91439">
        <ele>2090.807</ele>
        <time>2025-02-06T12:10:41Z</time>
      </trkpt>
      <trkpt lat="45.13488" lon="5.91445">
        <ele>2092.894</ele>
        <time>2025-02-06T12:10:57Z</time>
      </trkpt>
      <trkpt lat="45.13488" lon="5.91451">
        <ele>2092.457</ele>
        <time>2025-02-06T12:11:13Z</time>
      </trkpt>
      <trkpt lat="45.13489" lon="5.91457">
        <ele>2095.323</ele>
        <time>2025-02-06T12:11:32Z</time>
      </trkpt>
      <trkpt lat="45.13491" lon="5.91462">
        <ele>2096.853</ele>
        <time>2025-02-06T12:11:49Z</time>
      </trkpt>
      <trkpt lat="45.13491" lon="5.91468">
        <ele>2099.031</ele>
        <time>2025-02-06T12:12:05Z</time>
      </trkpt>
      <trkpt lat="45.13492" lon="5.91475">
        <ele>2099.687</ele>
        <time>2025-02-06T12:12:26Z</time>
      </trkpt>
      <trkpt lat="45.13493" lon="5.91482">
        <ele>2099.61</ele>
        <time>2025-02-06T12:12:36Z</time>
      </trkpt>
      <trkpt lat="45.13496" lon="5.91486">
        <ele>2102.566</ele>
        <time>2025-02-06T12:12:54Z</time>
      </trkpt>
      <trkpt lat="45.13496" lon="5.91492">
        <ele>2102.549</ele>
        <time>2025-02-06T12:13:09Z</time>
      </trkpt>
      <trkpt lat="45.13496" lon="5.91494">
        <ele>2103.955</ele>
        <time>2025-02-06T12:13:30Z</time>
      </trkpt>
      <trkpt lat="45.13497" lon="5.915">
        <ele>2107.244</ele>
        <time>2025-02-06T12:13:39Z</time>
      </trkpt>
      <trkpt lat="45.13499" lon="5.91506">
        <ele>2107.361</ele>
        <time>2025-02-06T12:13:56Z</time>
      </trkpt>
      <trkpt lat="45.135" lon="5.91511">
        <ele>2108.716</ele>
        <time>2025-02-06T12:14:08Z</time>
      </trkpt>
      <trkpt lat="45.13502" lon="5.91518">
        <ele>2109.958</ele>
        <time>2025-02-06T12:14:23Z</time>
      </trkpt>
      <trkpt lat="45.13504" lon="5.91523">
        <ele>2111.688</ele>
        <time>2025-02-06T12:14:34Z</time>
      </trkpt>
      <trkpt lat="45.13508" lon="5.91527">
        <ele>2109.67</ele>
        <time>2025-02-06T12:14:54Z</time>
      </trkpt>
      <trkpt lat="45.13512" lon="5.9153">
        <ele>2111.225</ele>
        <time>2025-02-06T12:15:05Z</time>
      </trkpt>
      <trkpt lat="45.13512" lon="5.9153">
        <ele>2113.396</ele>
        <time>2025-02-06T12:15:16Z</time>
      </trkpt>
      <trkpt lat="45.13516" lon="5.91524">
        <ele>2111.655</ele>
        <time>2025-02-06T12:15:28Z</time>
      </trkpt>
      <trkpt lat="45.13519" lon="5.91519">
        <ele>2111.97</ele>
        <time>2025-02-06T12:15:42Z</time>
      </trkpt>
      <trkpt lat="45.13522" lon="5.91513">
        <ele>2113.559</ele>
        <time>2025-02-06T12:16:00Z</time>
      </trkpt>
      <trkpt lat="45.13526" lon="5.9151">
        <ele>2114.634</ele>
        <time>2025-02-06T12:16:14Z</time>
      </trkpt>
      <trkpt lat="45.13527" lon="5.91504">
        <ele>2117.418</ele>
        <time>2025-02-06T12:16:24Z</time>
      </trkpt>
      <trkpt lat="45.13531" lon="5.91499">
        <ele>2116.922</ele>
        <time>2025-02-06T12:16:36Z</time>
      </trkpt>
      <trkpt lat="45.13531" lon="5.91495">
        <ele>2121.573</ele>
        <time>2025-02-06T12:16:43Z</time>
      </trkpt>
      <trkpt lat="45.13532" lon="5.91489">
        <ele>2123.333</ele>
        <time>2025-02-06T12:16:53Z</time>
      </trkpt>
      <trkpt lat="45.13533" lon="5.91484">
        <ele>2125.82</ele>
        <time>2025-02-06T12:17:04Z</time>
      </trkpt>
      <trkpt lat="45.13535" lon="5.9149">
        <ele>2125.499</ele>
        <time>2025-02-06T12:17:23Z</time>
      </trkpt>
      <trkpt lat="45.13536" lon="5.91497">
        <ele>2128.178</ele>
        <time>2025-02-06T12:17:35Z</time>
      </trkpt>
      <trkpt lat="45.13536" lon="5.91503">
        <ele>2129.747</ele>
        <time>2025-02-06T12:17:44Z</time>
      </trkpt>
      <trkpt lat="45.13536" lon="5.91507">
        <ele>2133.639</ele>
        <time>2025-02-06T12:17:53Z</time>
      </trkpt>
      <trkpt lat="45.13537" lon="5.91512">
        <ele>2138.792</ele>
        <time>2025-02-06T12:18:01Z</time>
      </trkpt>
      <trkpt lat="45.13536" lon="5.91517">
        <ele>2138.137</ele>
        <time>2025-02-06T12:18:21Z</time>
      </trkpt>
      <trkpt lat="45.13539" lon="5.91517">
        <ele>2132.935</ele>
        <time>2025-02-06T12:18:34Z</time>
      </trkpt>
      <trkpt lat="45.13543" lon="5.91515">
        <ele>2132.157</ele>
        <time>2025-02-06T12:18:43Z</time>
      </trkpt>
      <trkpt lat="45.13545" lon="5.9151">
        <ele>2134.224</ele>
        <time>2025-02-06T12:18:54Z</time>
      </trkpt>
      <trkpt lat="45.13548" lon="5.91506">
        <ele>2136.905</ele>
        <time>2025-02-06T12:19:01Z</time>
      </trkpt>
      <trkpt lat="45.13549" lon="5.91499">
        <ele>2136.528</ele>
        <time>2025-02-06T12:19:17Z</time>
      </trkpt>
      <trkpt lat="45.13549" lon="5.91499">
        <ele>2135.235</ele>
        <time>2025-02-06T12:19:37Z</time>
      </trkpt>
      <trkpt lat="45.13549" lon="5.91499">
        <ele>2139.746</ele>
        <time>2025-02-06T12:19:44Z</time>
      </trkpt>
      <trkpt lat="45.13549" lon="5.91499">
        <ele>2140.707</ele>
        <time>2025-02-06T12:20:04Z</time>
      </trkpt>
      <trkpt lat="45.13549" lon="5.91499">
        <ele>2137.381</ele>
        <time>2025-02-06T12:20:25Z</time>
      </trkpt>
      <trkpt lat="45.13549" lon="5.91499">
        <ele>2142.311</ele>
        <time>2025-02-06T12:20:33Z</time>
      </trkpt>
      <trkpt lat="45.13549" lon="5.91499">
        <ele>2144.027</ele>
        <time>2025-02-06T12:20:48Z</time>
      </trkpt>
      <trkpt lat="45.13549" lon="5.91499">
        <ele>2145.755</ele>
        <time>2025-02-06T12:21:00Z</time>
      </trkpt>
      <trkpt lat="45.13549" lon="5.91499">
        <ele>2145.704</ele>
        <time>2025-02-06T12:21:20Z</time>
      </trkpt>
      <trkpt lat="45.13561" lon="5.91506">
        <ele>2144.486</ele>
        <time>2025-02-06T12:21:30Z</time>
      </trkpt>
      <trkpt lat="45.13561" lon="5.91511">
        <ele>2148.408</ele>
        <time>2025-02-06T12:21:39Z</time>
      </trkpt>
      <trkpt lat="45.13562" lon="5.91517">
        <ele>2149.135</ele>
        <time>2025-02-06T12:21:53Z</time>
      </trkpt>
      <trkpt lat="45.13564" lon="5.91523">
        <ele>2147.089</ele>
        <time>2025-02-06T12:22:04Z</time>
      </trkpt>
      <trkpt lat="45.13567" lon="5.91526">
        <ele>2149.924</ele>
        <time>2025-02-06T12:22:22Z</time>
      </trkpt>
      <trkpt lat="45.1357" lon="5.91521">
        <ele>2148.48</ele>
        <time>2025-02-06T12:22:39Z</time>
      </trkpt>
      <trkpt lat="45.13571" lon="5.91516">
        <ele>2151.981</ele>
        <time>2025-02-06T12:22:46Z</time>
      </trkpt>
      <trkpt lat="45.13572" lon="5.9151">
        <ele>2155.07</ele>
        <time>2025-02-06T12:22:56Z</time>
      </trkpt>
      <trkpt lat="45.13575" lon="5.91505">
        <ele>2154.276</ele>
        <time>2025-02-06T12:23:14Z</time>
      </trkpt>
      <trkpt lat="45.13578" lon="5.915">
        <ele>2155.892</ele>
        <time>2025-02-06T12:23:28Z</time>
      </trkpt>
      <trkpt lat="45.13577" lon="5.91497">
        <ele>2159.875</ele>
        <time>2025-02-06T12:23:32Z</time>
      </trkpt>
      <trkpt lat="45.13576" lon="5.91491">
        <ele>2163.261</ele>
        <time>2025-02-06T12:23:41Z</time>
      </trkpt>
      <trkpt lat="45.13575" lon="5.91486">
        <ele>2163.135</ele>
        <time>2025-02-06T12:24:01Z</time>
      </trkpt>
      <trkpt lat="45.13575" lon="5.9148">
        <ele>2166.598</ele>
        <time>2025-02-06T12:24:15Z</time>
      </trkpt>
      <trkpt lat="45.13575" lon="5.91474">
        <ele>2169.3</ele>
        <time>2025-02-06T12:24:28Z</time>
      </trkpt>
      <trkpt lat="45.13574" lon="5.91467">
        <ele>2171.517</ele>
        <time>2025-02-06T12:24:42Z</time>
      </trkpt>
      <trkpt lat="45.13579" lon="5.91469">
        <ele>2169.252</ele>
        <time>2025-02-06T12:24:50Z</time>
      </trkpt>
      <trkpt lat="45.13582" lon="5.91473">
        <ele>2167.904</ele>
        <time>2025-02-06T12:25:01Z</time>
      </trkpt>
      <trkpt lat="45.13581" lon="5.91477">
        <ele>2170.702</ele>
        <time>2025-02-06T12:25:22Z</time>
      </trkpt>
      <trkpt lat="45.13583" lon="5.91482">
        <ele>2172.752</ele>
        <time>2025-02-06T12:25:27Z</time>
      </trkpt>
      <trkpt lat="45.13587" lon="5.91485">
        <ele>2172.326</ele>
        <time>2025-02-06T12:25:37Z</time>
      </trkpt>
      <trkpt lat="45.13591" lon="5.9149">
        <ele>2173.338</ele>
        <time>2025-02-06T12:25:57Z</time>
      </trkpt>
      <trkpt lat="45.13593" lon="5.91495">
        <ele>2175.871</ele>
        <time>2025-02-06T12:26:06Z</time>
      </trkpt>
      <trkpt lat="45.13597" lon="5.91497">
        <ele>2173.235</ele>
        <time>2025-02-06T12:26:24Z</time>
      </trkpt>
      <trkpt lat="45.13598" lon="5.91503">
        <ele>2175.063</ele>
        <time>2025-02-06T12:26:35Z</time>
      </trkpt>
      <trkpt lat="45.13599" lon="5.9151">
        <ele>2175.416</ele>
        <time>2025-02-06T12:26:51Z</time>
      </trkpt>
      <trkpt lat="45.13601" lon="5.91513">
        <ele>2171.127</ele>
        <time>2025-02-06T12:27:01Z</time>
      </trkpt>
      <trkpt lat="45.13602" lon="5.91518">
        <ele>2175.001</ele>
        <time>2025-02-06T12:27:18Z</time>
      </trkpt>
      <trkpt lat="45.13606" lon="5.91522">
        <ele>2173.064</ele>
        <time>2025-02-06T12:27:30Z</time>
      </trkpt>
      <trkpt lat="45.13608" lon="5.91526">
        <ele>2170.119</ele>
        <time>2025-02-06T12:27:41Z</time>
      </trkpt>
      <trkpt lat="45.1361" lon="5.91533">
        <ele>2171.634</ele>
        <time>2025-02-06T12:27:54Z</time>
      </trkpt>
      <trkpt lat="45.1361" lon="5.91538">
        <ele>2173.425</ele>
        <time>2025-02-06T12:28:03Z</time>
      </trkpt>
      <trkpt lat="45.13609" lon="5.91545">
        <ele>2174.83</ele>
        <time>2025-02-06T12:28:13Z</time>
      </trkpt>
      <trkpt lat="45.13609" lon="5.91545">
        <ele>2175.541</ele>
        <time>2025-02-06T12:28:23Z</time>
      </trkpt>
      <trkpt lat="45.13609" lon="5.9154">
        <ele>2176.779</ele>
        <time>2025-02-06T12:28:30Z</time>
      </trkpt>
      <trkpt lat="45.1361" lon="5.91535">
        <ele>2180.343</ele>
        <time>2025-02-06T12:28:35Z</time>
      </trkpt>
      <trkpt lat="45.13612" lon="5.91529">
        <ele>2183.201</ele>
        <time>2025-02-06T12:28:48Z</time>
      </trkpt>
      <trkpt lat="45.13614" lon="5.91524">
        <ele>2185.79</ele>
        <time>2025-02-06T12:28:55Z</time>
      </trkpt>
      <trkpt lat="45.13613" lon="5.91517">
        <ele>2192.113</ele>
        <time>2025-02-06T12:29:03Z</time>
      </trkpt>
      <trkpt lat="45.13615" lon="5.91512">
        <ele>2189.213</ele>
        <time>2025-02-06T12:29:22Z</time>
      </trkpt>
      <trkpt lat="45.13616" lon="5.91508">
        <ele>2188.66</ele>
        <time>2025-02-06T12:29:43Z</time>
      </trkpt>
      <trkpt lat="45.13618" lon="5.91513">
        <ele>2188.219</ele>
        <time>2025-02-06T12:29:50Z</time>
      </trkpt>
      <trkpt lat="45.13622" lon="5.91516">
        <ele>2186.532</ele>
        <time>2025-02-06T12:30:06Z</time>
      </trkpt>
      <trkpt lat="45.13624" lon="5.91522">
        <ele>2188.588</ele>
        <time>2025-02-06T12:30:23Z</time>
      </trkpt>
      <trkpt lat="45.13626" lon="5.91527">
        <ele>2191.532</ele>
        <time>2025-02-06T12:30:34Z</time>
      </trkpt>
      <trkpt lat="45.13627" lon="5.91522">
        <ele>2194.983</ele>
        <time>2025-02-06T12:30:51Z</time>
      </trkpt>
      <trkpt lat="45.13627" lon="5.91516">
        <ele>2197.116</ele>
        <time>2025-02-06T12:31:08Z</time>
      </trkpt>
      <trkpt lat="45.13628" lon="5.91509">
        <ele>2199.069</ele>
        <time>2025-02-06T12:31:12Z</time>
      </trkpt>
      <trkpt lat="45.13629" lon="5.91504">
        <ele>2199.261</ele>
        <time>2025-02-06T12:31:32Z</time>
      </trkpt>
      <trkpt lat="45.1363" lon="5.91499">
        <ele>2201.287</ele>
        <time>2025-02-06T12:31:49Z</time>
      </trkpt>
      <trkpt lat="45.13634" lon="5.91497">
        <ele>2200.977</ele>
        <time>2025-02-06T12:32:07Z</time>
      </trkpt>
      <trkpt lat="45.13638" lon="5.915">
        <ele>2199.781</ele>
        <time>2025-02-06T12:32:23Z</time>
      </trkpt>
      <trkpt lat="45.13641" lon="5.91504">
        <ele>2201.542</ele>
        <time>2025-02-06T12:32:44Z</time>
      </trkpt>
      <trkpt lat="45.13645" lon="5.91508">
        <ele>2203.686</ele>
        <time>2025-02-06T12:33:01Z</time>
      </trkpt>
      <trkpt lat="45.13648" lon="5.91511">
        <ele>2206.133</ele>
        <time>2025-02-06T12:33:09Z</time>
      </trkpt>
      <trkpt lat="45.13652" lon="5.91515">
        <ele>2206.16</ele>
        <time>2025-02-06T12:33:22Z</time>
      </trkpt>
      <trkpt lat="45.13654" lon="5.9152">
        <ele>2206.999</ele>
        <time>2025-02-06T12:33:33Z</time>
      </trkpt>
      <trkpt lat="45.13655" lon="5.91525">
        <ele>2210.787</ele>
        <time>2025-02-06T12:33:53Z</time>
      </trkpt>
      <trkpt lat="45.13657" lon="5.9153">
        <ele>2211.824</ele>
        <time>2025-02-06T12:34:09Z</time>
      </trkpt>
      <trkpt lat="45.13659" lon="5.91536">
        <ele>2213.122</ele>
        <time>2025-02-06T12:34:28Z</time>
      </trkpt>
      <trkpt lat="45.13662" lon="5.91541">
        <ele>2214.405</ele>
        <time>2025-02-06T12:34:43Z</time>
      </trkpt>
      <trkpt lat="45.13665" lon="5.91548">
        <ele>2215.771</ele>
        <time>2025-02-06T12:35:00Z</time>
      </trkpt>
      <trkpt lat="45.13667" lon="5.91553">
        <ele>2217.415</ele>
        <time>2025-02-06T12:35:08Z</time>
      </trkpt>
      <trkpt lat="45.13671" lon="5.91553">
        <ele>2218.035</ele>
        <time>2025-02-06T12:35:28Z</time>
      </trkpt>
      <trkpt lat="45.13676" lon="5.91552">
        <ele>2218.666</ele>
        <time>2025-02-06T12:35:45Z</time>
      </trkpt>
      <trkpt lat="45.13681" lon="5.91551">
        <ele>2220.276</ele>
        <time>2025-02-06T12:36:00Z</time>
      </trkpt>
      <trkpt lat="45.13686" lon="5.91552">
        <ele>2221.566</ele>
        <time>2025-02-06T12:36:05Z</time>
      </trkpt>
      <trkpt lat="45.1369" lon="5.91552">
        <ele>2222.626</ele>
        <time>2025-02-06T12:36:12Z</time>
      </trkpt>
      <trkpt lat="45.13695" lon="5.91553">
        <ele>2224.735</ele>
        <time>2025-02-06T12:36:24Z</time>
      </trkpt>
      <trkpt lat="45.13699" lon="5.91555">
        <ele>2225.763</ele>
        <time>2025-02-06T12:36:31Z</time>
      </trkpt>
      <trkpt lat="45.13704" lon="5.91556">
        <ele>2226.824</ele>
        <time>2025-02-06T12:36:46Z</time>
      </trkpt>
      <trkpt lat="45.13709" lon="5.91556">
        <ele>2225.682</ele>
        <time>2025-02-06T12:37:00Z</time>
      </trkpt>
      <trkpt lat="45.13712" lon="5.91555">
        <ele>2226.664</ele>
        <time>2025-02-06T12:37:21Z</time>
      </trkpt>
      <trkpt lat="45.13712" lon="5.91555">
        <ele>2226.654</ele>
        <time>2025-02-06T12:37:41Z</time>
      </trkpt>
      <trkpt lat="45.13713" lon="5.91554">
        <ele>2225.26</ele>
        <time>2025-02-06T12:38:02Z</time>
      </trkpt>
      <trkpt lat="45.13713" lon="5.91554">
        <ele>2224.774</ele>
        <time>2025-02-06T12:38:23Z</time>
      </trkpt>
      <trkpt lat="45.13713" lon="5.91554">
        <ele>2224.777</ele>
        <time>2025-02-06T12:38:44Z</time>
      </trkpt>
      <trkpt lat="45.13713" lon="5.91554">
        <ele>2224.931</ele>
        <time>2025-02-06T12:39:05Z</time>
      </trkpt>
      <trkpt lat="45.13713" lon="5.91554">
        <ele>2224.741</ele>
        <time>2025-02-06T12:39:25Z</time>
      </trkpt>
      <trkpt lat="45.13713" lon="5.91554">
        <ele>2225.154</ele>
        <time>2025-02-06T12:39:45Z</time>
      </trkpt>
      <trkpt lat="45.13713" lon="5.91554">
        <ele>2225.408</ele>
        <time>2025-02-06T12:40:06Z</time>
      </trkpt>
      <trkpt lat="45.13713" lon="5.91554">
        <ele>2225.375</ele>
        <time>2025-02-06T12:40:27Z</time>
      </trkpt>
      <trkpt lat="45.13713" lon="5.91554">
        <ele>2225.419</ele>
        <time>2025-02-06T12:40:47Z</time>
      </trkpt>
      <trkpt lat="45.13713" lon="5.91554">
        <ele>2225.518</ele>
        <time>2025-02-06T12:41:08Z</time>
      </trkpt>
      <trkpt lat="45.13713" lon="5.91554">
        <ele>2225.56</ele>
        <time>2025-02-06T12:41:28Z</time>
      </trkpt>
      <trkpt lat="45.13713" lon="5.91554">
        <ele>2225.707</ele>
        <time>2025-02-06T12:41:49Z</time>
      </trkpt>
      <trkpt lat="45.13713" lon="5.91554">
        <ele>2225.906</ele>
        <time>2025-02-06T12:42:10Z</time>
      </trkpt>
      <trkpt lat="45.13713" lon="5.91554">
        <ele>2226.298</ele>
        <time>2025-02-06T12:42:31Z</time>
      </trkpt>
      <trkpt lat="45.13713" lon="5.91554">
        <ele>2226.434</ele>
        <time>2025-02-06T12:42:52Z</time>
      </trkpt>
      <trkpt lat="45.13713" lon="5.91554">
        <ele>2226.53</ele>
        <time>2025-02-06T12:43:12Z</time>
      </trkpt>
      <trkpt lat="45.13713" lon="5.91554">
        <ele>2226.71</ele>
        <time>2025-02-06T12:43:33Z</time>
      </trkpt>
      <trkpt lat="45.13713" lon="5.91554">
        <ele>2226.794</ele>
        <time>2025-02-06T12:43:53Z</time>
      </trkpt>
      <trkpt lat="45.13713" lon="5.91554">
        <ele>2226.901</ele>
        <time>2025-02-06T12:44:14Z</time>
      </trkpt>
      <trkpt lat="45.13713" lon="5.91554">
        <ele>2226.886</ele>
        <time>2025-02-06T12:44:35Z</time>
      </trkpt>
      <trkpt lat="45.13713" lon="5.91554">
        <ele>2226.969</ele>
        <time>2025-02-06T12:44:55Z</time>
      </trkpt>
      <trkpt lat="45.13713" lon="5.91554">
        <ele>2227.017</ele>
        <time>2025-02-06T12:45:16Z</time>
      </trkpt>
      <trkpt lat="45.13713" lon="5.91554">
        <ele>2227.15</ele>
        <time>2025-02-06T12:45:36Z</time>
      </trkpt>
      <trkpt lat="45.13713" lon="5.91554">
        <ele>2226.138</ele>
        <time>2025-02-06T12:45:57Z</time>
      </trkpt>
      <trkpt lat="45.13713" lon="5.91554">
        <ele>2224.997</ele>
        <time>2025-02-06T12:46:18Z</time>
      </trkpt>
      <trkpt lat="45.13713" lon="5.91554">
        <ele>2225.169</ele>
        <time>2025-02-06T12:46:38Z</time>
      </trkpt>
      <trkpt lat="45.13713" lon="5.91554">
        <ele>2225.449</ele>
        <time>2025-02-06T12:46:59Z</time>
      </trkpt>
      <trkpt lat="45.13713" lon="5.91554">
        <ele>2225.459</ele>
        <time>2025-02-06T12:47:19Z</time>
      </trkpt>
      <trkpt lat="45.13713" lon="5.91554">
        <ele>2225.488</ele>
        <time>2025-02-06T12:47:40Z</time>
      </trkpt>
      <trkpt lat="45.13713" lon="5.91554">
        <ele>2225.512</ele>
        <time>2025-02-06T12:48:01Z</time>
      </trkpt>
      <trkpt lat="45.13713" lon="5.91554">
        <ele>2225.616</ele>
        <time>2025-02-06T12:48:21Z</time>
      </trkpt>
      <trkpt lat="45.13713" lon="5.91554">
        <ele>2225.828</ele>
        <time>2025-02-06T12:48:41Z</time>
      </trkpt>
      <trkpt lat="45.13713" lon="5.91554">
        <ele>2226.011</ele>
        <time>2025-02-06T12:49:02Z</time>
      </trkpt>
      <trkpt lat="45.13713" lon="5.91554">
        <ele>2226.152</ele>
        <time>2025-02-06T12:49:23Z</time>
      </trkpt>
      <trkpt lat="45.13713" lon="5.91554">
        <ele>2226.149</ele>
        <time>2025-02-06T12:49:44Z</time>
      </trkpt>
      <trkpt lat="45.13713" lon="5.91554">
        <ele>2226.123</ele>
        <time>2025-02-06T12:50:05Z</time>
      </trkpt>
      <trkpt lat="45.13713" lon="5.91554">
        <ele>2226.141</ele>
        <time>2025-02-06T12:50:25Z</time>
      </trkpt>
      <trkpt lat="45.13713" lon="5.91554">
        <ele>2226.128</ele>
        <time>2025-02-06T12:50:46Z</time>
      </trkpt>
      <trkpt lat="45.13713" lon="5.91554">
        <ele>2226.107</ele>
        <time>2025-02-06T12:51:06Z</time>
      </trkpt>
      <trkpt lat="45.13713" lon="5.91554">
        <ele>2226.138</ele>
        <time>2025-02-06T12:51:26Z</time>
      </trkpt>
      <trkpt lat="45.13713" lon="5.91554">
        <ele>2226.066</ele>
        <time>2025-02-06T12:51:47Z</time>
      </trkpt>
      <trkpt lat="45.13713" lon="5.91554">
        <ele>2226.066</ele>
        <time>2025-02-06T12:52:08Z</time>
      </trkpt>
      <trkpt lat="45.13713" lon="5.91554">
        <ele>2225.993</ele>
        <time>2025-02-06T12:52:28Z</time>
      </trkpt>
      <trkpt lat="45.13713" lon="5.91554">
        <ele>2225.975</ele>
        <time>2025-02-06T12:52:48Z</time>
      </trkpt>
      <trkpt lat="45.13713" lon="5.91554">
        <ele>2225.962</ele>
        <time>2025-02-06T12:53:08Z</time>
      </trkpt>
      <trkpt lat="45.13713" lon="5.91554">
        <ele>2225.874</ele>
        <time>2025-02-06T12:53:28Z</time>
      </trkpt>
      <trkpt lat="45.13713" lon="5.91554">
        <ele>2225.868</ele>
        <time>2025-02-06T12:53:48Z</time>
      </trkpt>
      <trkpt lat="45.13713" lon="5.91554">
        <ele>2225.875</ele>
        <time>2025-02-06T12:54:09Z</time>
      </trkpt>
      <trkpt lat="45.13713" lon="5.91554">
        <ele>2225.874</ele>
        <time>2025-02-06T12:54:30Z</time>
      </trkpt>
      <trkpt lat="45.13713" lon="5.91554">
        <ele>2225.867</ele>
        <time>2025-02-06T12:54:51Z</time>
      </trkpt>
      <trkpt lat="45.13713" lon="5.91554">
        <ele>2225.849</ele>
        <time>2025-02-06T12:55:11Z</time>
      </trkpt>
      <trkpt lat="45.13713" lon="5.91554">
        <ele>2225.857</ele>
        <time>2025-02-06T12:55:32Z</time>
      </trkpt>
      <trkpt lat="45.13713" lon="5.91554">
        <ele>2225.839</ele>
        <time>2025-02-06T12:55:53Z</time>
      </trkpt>
      <trkpt lat="45.13713" lon="5.91554">
        <ele>2225.829</ele>
        <time>2025-02-06T12:56:13Z</time>
      </trkpt>
      <trkpt lat="45.13713" lon="5.91554">
        <ele>2225.796</ele>
        <time>2025-02-06T12:56:34Z</time>
      </trkpt>
      <trkpt lat="45.13713" lon="5.91554">
        <ele>2225.745</ele>
        <time>2025-02-06T12:56:54Z</time>
      </trkpt>
      <trkpt lat="45.13713" lon="5.91554">
        <ele>2225.711</ele>
        <time>2025-02-06T12:57:15Z</time>
      </trkpt>
      <trkpt lat="45.13713" lon="5.91554">
        <ele>2225.692</ele>
        <time>2025-02-06T12:57:36Z</time>
      </trkpt>
      <trkpt lat="45.13713" lon="5.91554">
        <ele>2225.672</ele>
        <time>2025-02-06T12:57:56Z</time>
      </trkpt>
      <trkpt lat="45.13713" lon="5.91554">
        <ele>2225.653</ele>
        <time>2025-02-06T12:58:17Z</time>
      </trkpt>
      <trkpt lat="45.13713" lon="5.91554">
        <ele>2225.638</ele>
        <time>2025-02-06T12:58:37Z</time>
      </trkpt>
      <trkpt lat="45.13713" lon="5.91554">
        <ele>2225.616</ele>
        <time>2025-02-06T12:58:58Z</time>
      </trkpt>
      <trkpt lat="45.13713" lon="5.91554">
        <ele>2225.6</ele>
        <time>2025-02-06T12:59:18Z</time>
      </trkpt>
      <trkpt lat="45.13713" lon="5.91554">
        <ele>2225.59</ele>
        <time>2025-02-06T12:59:39Z</time>
      </trkpt>
      <trkpt lat="45.13713" lon="5.91554">
        <ele>2225.575</ele>
        <time>2025-02-06T13:00:00Z</time>
      </trkpt>
      <trkpt lat="45.13713" lon="5.91554">
        <ele>2225.582</ele>
        <time>2025-02-06T13:00:20Z</time>
      </trkpt>
      <trkpt lat="45.13713" lon="5.91554">
        <ele>2225.584</ele>
        <time>2025-02-06T13:00:40Z</time>
      </trkpt>
      <trkpt lat="45.13713" lon="5.91554">
        <ele>2225.578</ele>
        <time>2025-02-06T13:01:00Z</time>
      </trkpt>
      <trkpt lat="45.13713" lon="5.91554">
        <ele>2225.545</ele>
        <time>2025-02-06T13:01:21Z</time>
      </trkpt>
      <trkpt lat="45.13713" lon="5.91554">
        <ele>2225.179</ele>
        <time>2025-02-06T13:01:41Z</time>
      </trkpt>
      <trkpt lat="45.13713" lon="5.91554">
        <ele>2225.14</ele>
        <time>2025-02-06T13:02:02Z</time>
      </trkpt>
      <trkpt lat="45.13713" lon="5.91554">
        <ele>2225.178</ele>
        <time>2025-02-06T13:02:23Z</time>
      </trkpt>
      <trkpt lat="45.13713" lon="5.91554">
        <ele>2225.16</ele>
        <time>2025-02-06T13:02:44Z</time>
      </trkpt>
      <trkpt lat="45.13713" lon="5.91554">
        <ele>2225.138</ele>
        <time>2025-02-06T13:03:05Z</time>
      </trkpt>
      <trkpt lat="45.13713" lon="5.91554">
        <ele>2225.121</ele>
        <time>2025-02-06T13:03:26Z</time>
      </trkpt>
      <trkpt lat="45.13713" lon="5.91554">
        <ele>2225.102</ele>
        <time>2025-02-06T13:03:47Z</time>
      </trkpt>
      <trkpt lat="45.13713" lon="5.91554">
        <ele>2225.107</ele>
        <time>2025-02-06T13:04:07Z</time>
      </trkpt>
      <trkpt lat="45.13713" lon="5.91554">
        <ele>2225.093</ele>
        <time>2025-02-06T13:04:28Z</time>
      </trkpt>
      <trkpt lat="45.13713" lon="5.91554">
        <ele>2225.118</ele>
        <time>2025-02-06T13:04:48Z</time>
      </trkpt>
      <trkpt lat="45.13713" lon="5.91554">
        <ele>2225.124</ele>
        <time>2025-02-06T13:05:09Z</time>
      </trkpt>
      <trkpt lat="45.13713" lon="5.91554">
        <ele>2225.138</ele>
        <time>2025-02-06T13:05:29Z</time>
      </trkpt>
      <trkpt lat="45.13713" lon="5.91554">
        <ele>2225.139</ele>
        <time>2025-02-06T13:05:50Z</time>
      </trkpt>
      <trkpt lat="45.13713" lon="5.91554">
        <ele>2225.13</ele>
        <time>2025-02-06T13:06:11Z</time>
      </trkpt>
      <trkpt lat="45.13713" lon="5.91554">
        <ele>2225.306</ele>
        <time>2025-02-06T13:06:32Z</time>
      </trkpt>
      <trkpt lat="45.13713" lon="5.91554">
        <ele>2225.294</ele>
        <time>2025-02-06T13:06:53Z</time>
      </trkpt>
      <trkpt lat="45.13713" lon="5.91554">
        <ele>2225.388</ele>
        <time>2025-02-06T13:07:13Z</time>
      </trkpt>
      <trkpt lat="45.13713" lon="5.91554">
        <ele>2225.47</ele>
        <time>2025-02-06T13:07:34Z</time>
      </trkpt>
      <trkpt lat="45.13713" lon="5.91554">
        <ele>2225.19</ele>
        <time>2025-02-06T13:07:54Z</time>
      </trkpt>
      <trkpt lat="45.13713" lon="5.91554">
        <ele>2225.234</ele>
        <time>2025-02-06T13:08:14Z</time>
      </trkpt>
      <trkpt lat="45.13713" lon="5.91554">
        <ele>2225.198</ele>
        <time>2025-02-06T13:08:35Z</time>
      </trkpt>
      <trkpt lat="45.13713" lon="5.91554">
        <ele>2225.175</ele>
        <time>2025-02-06T13:08:55Z</time>
      </trkpt>
      <trkpt lat="45.13713" lon="5.91554">
        <ele>2225.155</ele>
        <time>2025-02-06T13:09:15Z</time>
      </trkpt>
      <trkpt lat="45.13713" lon="5.91554">
        <ele>2225.224</ele>
        <time>2025-02-06T13:09:36Z</time>
      </trkpt>
      <trkpt lat="45.13713" lon="5.91554">
        <ele>2224.993</ele>
        <time>2025-02-06T13:09:56Z</time>
      </trkpt>
      <trkpt lat="45.13713" lon="5.91554">
        <ele>2224.907</ele>
        <time>2025-02-06T13:10:16Z</time>
      </trkpt>
      <trkpt lat="45.13713" lon="5.91554">
        <ele>2222.695</ele>
        <time>2025-02-06T13:10:37Z</time>
      </trkpt>
      <trkpt lat="45.13713" lon="5.91554">
        <ele>2225.049</ele>
        <time>2025-02-06T13:10:58Z</time>
      </trkpt>
      <trkpt lat="45.13713" lon="5.91554">
        <ele>2225.297</ele>
        <time>2025-02-06T13:11:16Z</time>
      </trkpt>
      <trkpt lat="45.13713" lon="5.91554">
        <ele>2226.131</ele>
        <time>2025-02-06T13:11:36Z</time>
      </trkpt>
      <trkpt lat="45.13713" lon="5.91554">
        <ele>2226.052</ele>
        <time>2025-02-06T13:11:56Z</time>
      </trkpt>
      <trkpt lat="45.13713" lon="5.91554">
        <ele>2226.389</ele>
        <time>2025-02-06T13:12:17Z</time>
      </trkpt>
      <trkpt lat="45.13713" lon="5.91554">
        <ele>2225.91</ele>
        <time>2025-02-06T13:12:38Z</time>
      </trkpt>
      <trkpt lat="45.13713" lon="5.91554">
        <ele>2225.621</ele>
        <time>2025-02-06T13:12:59Z</time>
      </trkpt>
      <trkpt lat="45.13713" lon="5.91554">
        <ele>2226.22</ele>
        <time>2025-02-06T13:13:20Z</time>
      </trkpt>
      <trkpt lat="45.13713" lon="5.91554">
        <ele>2225.692</ele>
        <time>2025-02-06T13:13:40Z</time>
      </trkpt>
      <trkpt lat="45.13713" lon="5.91554">
        <ele>2226.058</ele>
        <time>2025-02-06T13:14:01Z</time>
      </trkpt>
      <trkpt lat="45.13713" lon="5.91554">
        <ele>2227.221</ele>
        <time>2025-02-06T13:14:22Z</time>
      </trkpt>
      <trkpt lat="45.13712" lon="5.91554">
        <ele>2226.847</ele>
        <time>2025-02-06T13:14:42Z</time>
      </trkpt>
      <trkpt lat="45.13711" lon="5.91554">
        <ele>2226.549</ele>
        <time>2025-02-06T13:15:02Z</time>
      </trkpt>
      <trkpt lat="45.13709" lon="5.91555">
        <ele>2226.304</ele>
        <time>2025-02-06T13:15:23Z</time>
      </trkpt>
      <trkpt lat="45.13702" lon="5.91555">
        <ele>2225.566</ele>
        <time>2025-02-06T13:15:26Z</time>
      </trkpt>
      <trkpt lat="45.13696" lon="5.91554">
        <ele>2225.107</ele>
        <time>2025-02-06T13:15:28Z</time>
      </trkpt>
      <trkpt lat="45.13692" lon="5.91552">
        <ele>2224.437</ele>
        <time>2025-02-06T13:15:30Z</time>
      </trkpt>
      <trkpt lat="45.13687" lon="5.91553">
        <ele>2223.374</ele>
        <time>2025-02-06T13:15:32Z</time>
      </trkpt>
      <trkpt lat="45.13683" lon="5.9155">
        <ele>2222.976</ele>
        <time>2025-02-06T13:15:34Z</time>
      </trkpt>
      <trkpt lat="45.13677" lon="5.91552">
        <ele>2221.014</ele>
        <time>2025-02-06T13:15:36Z</time>
      </trkpt>
      <trkpt lat="45.13673" lon="5.91551">
        <ele>2219.984</ele>
        <time>2025-02-06T13:15:38Z</time>
      </trkpt>
      <trkpt lat="45.13669" lon="5.91555">
        <ele>2218.411</ele>
        <time>2025-02-06T13:15:40Z</time>
      </trkpt>
      <trkpt lat="45.13664" lon="5.91558">
        <ele>2216.38</ele>
        <time>2025-02-06T13:15:42Z</time>
      </trkpt>
      <trkpt lat="45.13661" lon="5.91548">
        <ele>2216.075</ele>
        <time>2025-02-06T13:15:45Z</time>
      </trkpt>
      <trkpt lat="45.13655" lon="5.91545">
        <ele>2214.497</ele>
        <time>2025-02-06T13:15:53Z</time>
      </trkpt>
      <trkpt lat="45.13655" lon="5.91539">
        <ele>2213.156</ele>
        <time>2025-02-06T13:15:56Z</time>
      </trkpt>
      <trkpt lat="45.13653" lon="5.91532">
        <ele>2212.477</ele>
        <time>2025-02-06T13:16:01Z</time>
      </trkpt>
      <trkpt lat="45.13652" lon="5.91524">
        <ele>2211.733</ele>
        <time>2025-02-06T13:16:06Z</time>
      </trkpt>
      <trkpt lat="45.13649" lon="5.91517">
        <ele>2210.853</ele>
        <time>2025-02-06T13:16:10Z</time>
      </trkpt>
      <trkpt lat="45.13643" lon="5.91519">
        <ele>2207.14</ele>
        <time>2025-02-06T13:16:14Z</time>
      </trkpt>
      <trkpt lat="45.1364" lon="5.91514">
        <ele>2205.676</ele>
        <time>2025-02-06T13:16:17Z</time>
      </trkpt>
      <trkpt lat="45.13637" lon="5.91507">
        <ele>2203.987</ele>
        <time>2025-02-06T13:16:20Z</time>
      </trkpt>
      <trkpt lat="45.13633" lon="5.91504">
        <ele>2201.53</ele>
        <time>2025-02-06T13:16:23Z</time>
      </trkpt>
      <trkpt lat="45.13632" lon="5.91507">
        <ele>2197.045</ele>
        <time>2025-02-06T13:16:25Z</time>
      </trkpt>
      <trkpt lat="45.1363" lon="5.91513">
        <ele>2193.335</ele>
        <time>2025-02-06T13:16:28Z</time>
      </trkpt>
      <trkpt lat="45.13629" lon="5.91519">
        <ele>2192.778</ele>
        <time>2025-02-06T13:16:33Z</time>
      </trkpt>
      <trkpt lat="45.13626" lon="5.91525">
        <ele>2190.968</ele>
        <time>2025-02-06T13:16:37Z</time>
      </trkpt>
      <trkpt lat="45.13622" lon="5.91523">
        <ele>2189.337</ele>
        <time>2025-02-06T13:16:40Z</time>
      </trkpt>
      <trkpt lat="45.13619" lon="5.91519">
        <ele>2186.981</ele>
        <time>2025-02-06T13:16:43Z</time>
      </trkpt>
      <trkpt lat="45.13615" lon="5.91515">
        <ele>2184.881</ele>
        <time>2025-02-06T13:16:47Z</time>
      </trkpt>
      <trkpt lat="45.13611" lon="5.91515">
        <ele>2181.763</ele>
        <time>2025-02-06T13:16:51Z</time>
      </trkpt>
      <trkpt lat="45.13606" lon="5.91515">
        <ele>2179.915</ele>
        <time>2025-02-06T13:16:53Z</time>
      </trkpt>
      <trkpt lat="45.13603" lon="5.91511">
        <ele>2179.714</ele>
        <time>2025-02-06T13:16:56Z</time>
      </trkpt>
      <trkpt lat="45.136" lon="5.91512">
        <ele>2175.702</ele>
        <time>2025-02-06T13:17:08Z</time>
      </trkpt>
      <trkpt lat="45.136" lon="5.91512">
        <ele>2175.123</ele>
        <time>2025-02-06T13:17:28Z</time>
      </trkpt>
      <trkpt lat="45.13599" lon="5.9152">
        <ele>2172.363</ele>
        <time>2025-02-06T13:17:34Z</time>
      </trkpt>
      <trkpt lat="45.13596" lon="5.91526">
        <ele>2171.843</ele>
        <time>2025-02-06T13:17:36Z</time>
      </trkpt>
      <trkpt lat="45.1359" lon="5.91524">
        <ele>2169.578</ele>
        <time>2025-02-06T13:17:42Z</time>
      </trkpt>
      <trkpt lat="45.13585" lon="5.91523">
        <ele>2166.771</ele>
        <time>2025-02-06T13:17:46Z</time>
      </trkpt>
      <trkpt lat="45.1358" lon="5.91525">
        <ele>2164.113</ele>
        <time>2025-02-06T13:17:49Z</time>
      </trkpt>
      <trkpt lat="45.13577" lon="5.9153">
        <ele>2164.346</ele>
        <time>2025-02-06T13:17:52Z</time>
      </trkpt>
      <trkpt lat="45.13574" lon="5.91527">
        <ele>2161.274</ele>
        <time>2025-02-06T13:17:55Z</time>
      </trkpt>
      <trkpt lat="45.13573" lon="5.91521">
        <ele>2159.205</ele>
        <time>2025-02-06T13:17:57Z</time>
      </trkpt>
      <trkpt lat="45.13571" lon="5.91515">
        <ele>2157.525</ele>
        <time>2025-02-06T13:18:00Z</time>
      </trkpt>
      <trkpt lat="45.13568" lon="5.91519">
        <ele>2153.912</ele>
        <time>2025-02-06T13:18:03Z</time>
      </trkpt>
      <trkpt lat="45.13563" lon="5.91515">
        <ele>2152.216</ele>
        <time>2025-02-06T13:18:05Z</time>
      </trkpt>
      <trkpt lat="45.13562" lon="5.91509">
        <ele>2150.822</ele>
        <time>2025-02-06T13:18:09Z</time>
      </trkpt>
      <trkpt lat="45.1356" lon="5.91504">
        <ele>2149.852</ele>
        <time>2025-02-06T13:18:11Z</time>
      </trkpt>
      <trkpt lat="45.13558" lon="5.91499">
        <ele>2146.879</ele>
        <time>2025-02-06T13:18:15Z</time>
      </trkpt>
      <trkpt lat="45.13555" lon="5.91494">
        <ele>2146.693</ele>
        <time>2025-02-06T13:18:20Z</time>
      </trkpt>
      <trkpt lat="45.13551" lon="5.91496">
        <ele>2143.434</ele>
        <time>2025-02-06T13:18:23Z</time>
      </trkpt>
      <trkpt lat="45.13551" lon="5.91496">
        <ele>2142.449</ele>
        <time>2025-02-06T13:18:44Z</time>
      </trkpt>
      <trkpt lat="45.13551" lon="5.91496">
        <ele>2142.37</ele>
        <time>2025-02-06T13:19:05Z</time>
      </trkpt>
      <trkpt lat="45.13551" lon="5.91496">
        <ele>2142.471</ele>
        <time>2025-02-06T13:19:25Z</time>
      </trkpt>
      <trkpt lat="45.13551" lon="5.91496">
        <ele>2142.279</ele>
        <time>2025-02-06T13:19:45Z</time>
      </trkpt>
      <trkpt lat="45.13551" lon="5.91496">
        <ele>2141.24</ele>
        <time>2025-02-06T13:20:06Z</time>
      </trkpt>
      <trkpt lat="45.13552" lon="5.91498">
        <ele>2141.217</ele>
        <time>2025-02-06T13:20:26Z</time>
      </trkpt>
      <trkpt lat="45.13552" lon="5.91498">
        <ele>2141.191</ele>
        <time>2025-02-06T13:20:46Z</time>
      </trkpt>
      <trkpt lat="45.13552" lon="5.91498">
        <ele>2141.158</ele>
        <time>2025-02-06T13:21:07Z</time>
      </trkpt>
      <trkpt lat="45.13552" lon="5.915">
        <ele>2140.492</ele>
        <time>2025-02-06T13:21:27Z</time>
      </trkpt>
      <trkpt lat="45.1355" lon="5.91506">
        <ele>2137.61</ele>
        <time>2025-02-06T13:21:30Z</time>
      </trkpt>
      <trkpt lat="45.13547" lon="5.91513">
        <ele>2136.289</ele>
        <time>2025-02-06T13:21:32Z</time>
      </trkpt>
      <trkpt lat="45.13544" lon="5.91519">
        <ele>2135.351</ele>
        <time>2025-02-06T13:21:34Z</time>
      </trkpt>
      <trkpt lat="45.13541" lon="5.91523">
        <ele>2133.442</ele>
        <time>2025-02-06T13:21:37Z</time>
      </trkpt>
      <trkpt lat="45.13536" lon="5.91519">
        <ele>2130.292</ele>
        <time>2025-02-06T13:21:39Z</time>
      </trkpt>
      <trkpt lat="45.13536" lon="5.9151">
        <ele>2126.668</ele>
        <time>2025-02-06T13:21:41Z</time>
      </trkpt>
      <trkpt lat="45.13535" lon="5.91501">
        <ele>2124.593</ele>
        <time>2025-02-06T13:21:43Z</time>
      </trkpt>
      <trkpt lat="45.13532" lon="5.91494">
        <ele>2123.308</ele>
        <time>2025-02-06T13:21:45Z</time>
      </trkpt>
      <trkpt lat="45.13527" lon="5.91501">
        <ele>2120.813</ele>
        <time>2025-02-06T13:21:47Z</time>
      </trkpt>
      <trkpt lat="45.13524" lon="5.91509">
        <ele>2122.166</ele>
        <time>2025-02-06T13:21:49Z</time>
      </trkpt>
      <trkpt lat="45.13522" lon="5.91518">
        <ele>2121.917</ele>
        <time>2025-02-06T13:21:51Z</time>
      </trkpt>
      <trkpt lat="45.13516" lon="5.91516">
        <ele>2116.902</ele>
        <time>2025-02-06T13:21:53Z</time>
      </trkpt>
      <trkpt lat="45.13516" lon="5.91507">
        <ele>2115.014</ele>
        <time>2025-02-06T13:21:55Z</time>
      </trkpt>
      <trkpt lat="45.13514" lon="5.915">
        <ele>2112.084</ele>
        <time>2025-02-06T13:21:57Z</time>
      </trkpt>
      <trkpt lat="45.13507" lon="5.91505">
        <ele>2110.858</ele>
        <time>2025-02-06T13:21:59Z</time>
      </trkpt>
      <trkpt lat="45.13502" lon="5.91513">
        <ele>2110.167</ele>
        <time>2025-02-06T13:22:01Z</time>
      </trkpt>
      <trkpt lat="45.13495" lon="5.91506">
        <ele>2105.326</ele>
        <time>2025-02-06T13:22:03Z</time>
      </trkpt>
      <trkpt lat="45.13494" lon="5.91496">
        <ele>2105.325</ele>
        <time>2025-02-06T13:22:05Z</time>
      </trkpt>
      <trkpt lat="45.13491" lon="5.91486">
        <ele>2102.578</ele>
        <time>2025-02-06T13:22:08Z</time>
      </trkpt>
      <trkpt lat="45.1349" lon="5.91476">
        <ele>2100.916</ele>
        <time>2025-02-06T13:22:10Z</time>
      </trkpt>
      <trkpt lat="45.13485" lon="5.91476">
        <ele>2099.219</ele>
        <time>2025-02-06T13:22:12Z</time>
      </trkpt>
      <trkpt lat="45.13484" lon="5.91479">
        <ele>2099.329</ele>
        <time>2025-02-06T13:22:32Z</time>
      </trkpt>
      <trkpt lat="45.1348" lon="5.91477">
        <ele>2096.387</ele>
        <time>2025-02-06T13:22:43Z</time>
      </trkpt>
      <trkpt lat="45.13479" lon="5.91465">
        <ele>2095.608</ele>
        <time>2025-02-06T13:22:45Z</time>
      </trkpt>
      <trkpt lat="45.13482" lon="5.91457">
        <ele>2095.162</ele>
        <time>2025-02-06T13:22:47Z</time>
      </trkpt>
      <trkpt lat="45.13484" lon="5.91448">
        <ele>2094.016</ele>
        <time>2025-02-06T13:22:49Z</time>
      </trkpt>
      <trkpt lat="45.13489" lon="5.9144">
        <ele>2092.637</ele>
        <time>2025-02-06T13:22:51Z</time>
      </trkpt>
      <trkpt lat="45.13494" lon="5.91429">
        <ele>2091.412</ele>
        <time>2025-02-06T13:22:53Z</time>
      </trkpt>
      <trkpt lat="45.13498" lon="5.91421">
        <ele>2090.247</ele>
        <time>2025-02-06T13:22:56Z</time>
      </trkpt>
      <trkpt lat="45.13499" lon="5.91414">
        <ele>2090.135</ele>
        <time>2025-02-06T13:22:58Z</time>
      </trkpt>
      <trkpt lat="45.13496" lon="5.91409">
        <ele>2087.019</ele>
        <time>2025-02-06T13:23:00Z</time>
      </trkpt>
      <trkpt lat="45.13489" lon="5.91414">
        <ele>2084.727</ele>
        <time>2025-02-06T13:23:02Z</time>
      </trkpt>
      <trkpt lat="45.13482" lon="5.91419">
        <ele>2080.653</ele>
        <time>2025-02-06T13:23:04Z</time>
      </trkpt>
      <trkpt lat="45.13476" lon="5.91421">
        <ele>2079.173</ele>
        <time>2025-02-06T13:23:06Z</time>
      </trkpt>
      <trkpt lat="45.13471" lon="5.91416">
        <ele>2076.913</ele>
        <time>2025-02-06T13:23:08Z</time>
      </trkpt>
      <trkpt lat="45.13479" lon="5.91402">
        <ele>2074.518</ele>
        <time>2025-02-06T13:23:10Z</time>
      </trkpt>
      <trkpt lat="45.13481" lon="5.91395">
        <ele>2073.477</ele>
        <time>2025-02-06T13:23:12Z</time>
      </trkpt>
      <trkpt lat="45.13483" lon="5.91386">
        <ele>2072.229</ele>
        <time>2025-02-06T13:23:14Z</time>
      </trkpt>
      <trkpt lat="45.13484" lon="5.91377">
        <ele>2068.908</ele>
        <time>2025-02-06T13:23:16Z</time>
      </trkpt>
      <trkpt lat="45.13481" lon="5.91373">
        <ele>2065.89</ele>
        <time>2025-02-06T13:23:18Z</time>
      </trkpt>
      <trkpt lat="45.13475" lon="5.91379">
        <ele>2065.231</ele>
        <time>2025-02-06T13:23:20Z</time>
      </trkpt>
      <trkpt lat="45.13469" lon="5.91387">
        <ele>2064.136</ele>
        <time>2025-02-06T13:23:22Z</time>
      </trkpt>
      <trkpt lat="45.13462" lon="5.91391">
        <ele>2062.192</ele>
        <time>2025-02-06T13:23:24Z</time>
      </trkpt>
      <trkpt lat="45.13454" lon="5.91396">
        <ele>2060.596</ele>
        <time>2025-02-06T13:23:26Z</time>
      </trkpt>
      <trkpt lat="45.13448" lon="5.91398">
        <ele>2059.419</ele>
        <time>2025-02-06T13:23:28Z</time>
      </trkpt>
      <trkpt lat="45.13445" lon="5.91401">
        <ele>2058.762</ele>
        <time>2025-02-06T13:23:48Z</time>
      </trkpt>
      <trkpt lat="45.13443" lon="5.91392">
        <ele>2055.49</ele>
        <time>2025-02-06T13:23:55Z</time>
      </trkpt>
      <trkpt lat="45.13446" lon="5.91385">
        <ele>2053.971</ele>
        <time>2025-02-06T13:23:57Z</time>
      </trkpt>
      <trkpt lat="45.13451" lon="5.91377">
        <ele>2052.8</ele>
        <time>2025-02-06T13:23:59Z</time>
      </trkpt>
      <trkpt lat="45.13456" lon="5.91367">
        <ele>2052.077</ele>
        <time>2025-02-06T13:24:01Z</time>
      </trkpt>
      <trkpt lat="45.13459" lon="5.9136">
        <ele>2051.39</ele>
        <time>2025-02-06T13:24:03Z</time>
      </trkpt>
      <trkpt lat="45.13451" lon="5.91355">
        <ele>2048.958</ele>
        <time>2025-02-06T13:24:05Z</time>
      </trkpt>
      <trkpt lat="45.13447" lon="5.91356">
        <ele>2046.405</ele>
        <time>2025-02-06T13:24:07Z</time>
      </trkpt>
      <trkpt lat="45.13438" lon="5.91361">
        <ele>2043.855</ele>
        <time>2025-02-06T13:24:09Z</time>
      </trkpt>
      <trkpt lat="45.1343" lon="5.91361">
        <ele>2041.358</ele>
        <time>2025-02-06T13:24:11Z</time>
      </trkpt>
      <trkpt lat="45.13421" lon="5.91366">
        <ele>2038.913</ele>
        <time>2025-02-06T13:24:13Z</time>
      </trkpt>
      <trkpt lat="45.13412" lon="5.91371">
        <ele>2036.781</ele>
        <time>2025-02-06T13:24:15Z</time>
      </trkpt>
      <trkpt lat="45.13411" lon="5.91377">
        <ele>2036.569</ele>
        <time>2025-02-06T13:24:17Z</time>
      </trkpt>
      <trkpt lat="45.13409" lon="5.91385">
        <ele>2034.975</ele>
        <time>2025-02-06T13:24:23Z</time>
      </trkpt>
      <trkpt lat="45.13407" lon="5.91391">
        <ele>2033.305</ele>
        <time>2025-02-06T13:24:25Z</time>
      </trkpt>
      <trkpt lat="45.13407" lon="5.91399">
        <ele>2032.364</ele>
        <time>2025-02-06T13:24:28Z</time>
      </trkpt>
      <trkpt lat="45.13404" lon="5.91412">
        <ele>2030.537</ele>
        <time>2025-02-06T13:24:30Z</time>
      </trkpt>
      <trkpt lat="45.13399" lon="5.91425">
        <ele>2029.108</ele>
        <time>2025-02-06T13:24:32Z</time>
      </trkpt>
      <trkpt lat="45.13395" lon="5.91435">
        <ele>2029.078</ele>
        <time>2025-02-06T13:24:34Z</time>
      </trkpt>
      <trkpt lat="45.13393" lon="5.91438">
        <ele>2029.037</ele>
        <time>2025-02-06T13:24:55Z</time>
      </trkpt>
      <trkpt lat="45.1339" lon="5.91446">
        <ele>2029.8</ele>
        <time>2025-02-06T13:25:11Z</time>
      </trkpt>
      <trkpt lat="45.13387" lon="5.91451">
        <ele>2029.284</ele>
        <time>2025-02-06T13:25:18Z</time>
      </trkpt>
      <trkpt lat="45.13383" lon="5.91445">
        <ele>2024.573</ele>
        <time>2025-02-06T13:25:20Z</time>
      </trkpt>
      <trkpt lat="45.1338" lon="5.91437">
        <ele>2020.881</ele>
        <time>2025-02-06T13:25:23Z</time>
      </trkpt>
      <trkpt lat="45.13379" lon="5.91427">
        <ele>2018.757</ele>
        <time>2025-02-06T13:25:25Z</time>
      </trkpt>
      <trkpt lat="45.1338" lon="5.9142">
        <ele>2017.409</ele>
        <time>2025-02-06T13:25:27Z</time>
      </trkpt>
      <trkpt lat="45.13376" lon="5.91421">
        <ele>2014.03</ele>
        <time>2025-02-06T13:25:30Z</time>
      </trkpt>
      <trkpt lat="45.13372" lon="5.91428">
        <ele>2011.549</ele>
        <time>2025-02-06T13:25:32Z</time>
      </trkpt>
      <trkpt lat="45.13369" lon="5.91435">
        <ele>2009.564</ele>
        <time>2025-02-06T13:25:34Z</time>
      </trkpt>
      <trkpt lat="45.13363" lon="5.91443">
        <ele>2008.833</ele>
        <time>2025-02-06T13:25:36Z</time>
      </trkpt>
      <trkpt lat="45.1336" lon="5.91449">
        <ele>2007.927</ele>
        <time>2025-02-06T13:25:39Z</time>
      </trkpt>
      <trkpt lat="45.13356" lon="5.91454">
        <ele>2006.787</ele>
        <time>2025-02-06T13:25:44Z</time>
      </trkpt>
      <trkpt lat="45.13352" lon="5.9145">
        <ele>2005.828</ele>
        <time>2025-02-06T13:25:46Z</time>
      </trkpt>
      <trkpt lat="45.13351" lon="5.91442">
        <ele>2004.198</ele>
        <time>2025-02-06T13:25:48Z</time>
      </trkpt>
      <trkpt lat="45.13347" lon="5.91433">
        <ele>2001.925</ele>
        <time>2025-02-06T13:25:51Z</time>
      </trkpt>
      <trkpt lat="45.1334" lon="5.91442">
        <ele>1996.95</ele>
        <time>2025-02-06T13:25:53Z</time>
      </trkpt>
      <trkpt lat="45.13338" lon="5.91447">
        <ele>1995.771</ele>
        <time>2025-02-06T13:25:58Z</time>
      </trkpt>
      <trkpt lat="45.13338" lon="5.91453">
        <ele>1992.941</ele>
        <time>2025-02-06T13:26:04Z</time>
      </trkpt>
      <trkpt lat="45.13337" lon="5.91458">
        <ele>1990.356</ele>
        <time>2025-02-06T13:26:06Z</time>
      </trkpt>
      <trkpt lat="45.13329" lon="5.9146">
        <ele>1986.493</ele>
        <time>2025-02-06T13:26:08Z</time>
      </trkpt>
      <trkpt lat="45.13322" lon="5.91447">
        <ele>1987.492</ele>
        <time>2025-02-06T13:26:10Z</time>
      </trkpt>
      <trkpt lat="45.13323" lon="5.9144">
        <ele>1987.08</ele>
        <time>2025-02-06T13:26:12Z</time>
      </trkpt>
      <trkpt lat="45.1332" lon="5.91434">
        <ele>1985.478</ele>
        <time>2025-02-06T13:26:30Z</time>
      </trkpt>
      <trkpt lat="45.13315" lon="5.91436">
        <ele>1981.288</ele>
        <time>2025-02-06T13:26:38Z</time>
      </trkpt>
      <trkpt lat="45.13307" lon="5.91437">
        <ele>1980.158</ele>
        <time>2025-02-06T13:26:40Z</time>
      </trkpt>
      <trkpt lat="45.133" lon="5.9144">
        <ele>1979.462</ele>
        <time>2025-02-06T13:26:42Z</time>
      </trkpt>
      <trkpt lat="45.13298" lon="5.91445">
        <ele>1976.468</ele>
        <time>2025-02-06T13:26:47Z</time>
      </trkpt>
      <trkpt lat="45.13298" lon="5.91445">
        <ele>1976.552</ele>
        <time>2025-02-06T13:27:08Z</time>
      </trkpt>
      <trkpt lat="45.13298" lon="5.91445">
        <ele>1976.263</ele>
        <time>2025-02-06T13:27:28Z</time>
      </trkpt>
      <trkpt lat="45.13298" lon="5.91445">
        <ele>1978.437</ele>
        <time>2025-02-06T13:27:49Z</time>
      </trkpt>
      <trkpt lat="45.13298" lon="5.91445">
        <ele>1979.597</ele>
        <time>2025-02-06T13:28:09Z</time>
      </trkpt>
      <trkpt lat="45.13298" lon="5.91445">
        <ele>1979.967</ele>
        <time>2025-02-06T13:28:29Z</time>
      </trkpt>
      <trkpt lat="45.13298" lon="5.91445">
        <ele>1980.115</ele>
        <time>2025-02-06T13:28:50Z</time>
      </trkpt>
      <trkpt lat="45.13298" lon="5.91445">
        <ele>1980.106</ele>
        <time>2025-02-06T13:29:10Z</time>
      </trkpt>
      <trkpt lat="45.13298" lon="5.91445">
        <ele>1980.15</ele>
        <time>2025-02-06T13:29:31Z</time>
      </trkpt>
      <trkpt lat="45.13298" lon="5.91445">
        <ele>1980.163</ele>
        <time>2025-02-06T13:29:52Z</time>
      </trkpt>
      <trkpt lat="45.13298" lon="5.91445">
        <ele>1980.173</ele>
        <time>2025-02-06T13:30:13Z</time>
      </trkpt>
      <trkpt lat="45.13298" lon="5.91445">
        <ele>1980.229</ele>
        <time>2025-02-06T13:30:34Z</time>
      </trkpt>
      <trkpt lat="45.13298" lon="5.91445">
        <ele>1980.238</ele>
        <time>2025-02-06T13:30:54Z</time>
      </trkpt>
      <trkpt lat="45.13298" lon="5.91445">
        <ele>1980.268</ele>
        <time>2025-02-06T13:31:15Z</time>
      </trkpt>
      <trkpt lat="45.13298" lon="5.91445">
        <ele>1980.273</ele>
        <time>2025-02-06T13:31:35Z</time>
      </trkpt>
      <trkpt lat="45.13298" lon="5.91445">
        <ele>1979.212</ele>
        <time>2025-02-06T13:31:55Z</time>
      </trkpt>
      <trkpt lat="45.13298" lon="5.91445">
        <ele>1979.28</ele>
        <time>2025-02-06T13:32:15Z</time>
      </trkpt>
      <trkpt lat="45.13298" lon="5.91445">
        <ele>1983.063</ele>
        <time>2025-02-06T13:32:35Z</time>
      </trkpt>
      <trkpt lat="45.13298" lon="5.91445">
        <ele>1981.987</ele>
        <time>2025-02-06T13:32:55Z</time>
      </trkpt>
      <trkpt lat="45.13298" lon="5.91445">
        <ele>1981.648</ele>
        <time>2025-02-06T13:33:15Z</time>
      </trkpt>
      <trkpt lat="45.13298" lon="5.91445">
        <ele>1980.487</ele>
        <time>2025-02-06T13:33:36Z</time>
      </trkpt>
      <trkpt lat="45.13298" lon="5.91445">
        <ele>1980.384</ele>
        <time>2025-02-06T13:33:56Z</time>
      </trkpt>
      <trkpt lat="45.13298" lon="5.91445">
        <ele>1980.117</ele>
        <time>2025-02-06T13:34:17Z</time>
      </trkpt>
      <trkpt lat="45.13299" lon="5.91447">
        <ele>1978.491</ele>
        <time>2025-02-06T13:34:38Z</time>
      </trkpt>
      <trkpt lat="45.13299" lon="5.91447">
        <ele>1978.51</ele>
        <time>2025-02-06T13:34:58Z</time>
      </trkpt>
      <trkpt lat="45.13299" lon="5.91447">
        <ele>1978.469</ele>
        <time>2025-02-06T13:35:19Z</time>
      </trkpt>
      <trkpt lat="45.13297" lon="5.91446">
        <ele>1978.188</ele>
        <time>2025-02-06T13:35:40Z</time>
      </trkpt>
      <trkpt lat="45.13292" lon="5.91444">
        <ele>1978.524</ele>
        <time>2025-02-06T13:35:48Z</time>
      </trkpt>
      <trkpt lat="45.13288" lon="5.91441">
        <ele>1979.119</ele>
        <time>2025-02-06T13:35:54Z</time>
      </trkpt>
      <trkpt lat="45.13284" lon="5.9144">
        <ele>1979.393</ele>
        <time>2025-02-06T13:36:01Z</time>
      </trkpt>
      <trkpt lat="45.13279" lon="5.91436">
        <ele>1979.867</ele>
        <time>2025-02-06T13:36:08Z</time>
      </trkpt>
      <trkpt lat="45.13278" lon="5.91434">
        <ele>1981.034</ele>
        <time>2025-02-06T13:36:29Z</time>
      </trkpt>
      <trkpt lat="45.13274" lon="5.91431">
        <ele>1981.168</ele>
        <time>2025-02-06T13:36:36Z</time>
      </trkpt>
      <trkpt lat="45.13271" lon="5.91428">
        <ele>1977.4</ele>
        <time>2025-02-06T13:36:43Z</time>
      </trkpt>
      <trkpt lat="45.13267" lon="5.91423">
        <ele>1977.781</ele>
        <time>2025-02-06T13:36:50Z</time>
      </trkpt>
      <trkpt lat="45.13264" lon="5.91419">
        <ele>1977.335</ele>
        <time>2025-02-06T13:36:57Z</time>
      </trkpt>
      <trkpt lat="45.1326" lon="5.91416">
        <ele>1976.853</ele>
        <time>2025-02-06T13:37:04Z</time>
      </trkpt>
      <trkpt lat="45.13256" lon="5.91411">
        <ele>1977.063</ele>
        <time>2025-02-06T13:37:11Z</time>
      </trkpt>
      <trkpt lat="45.13253" lon="5.91407">
        <ele>1975.501</ele>
        <time>2025-02-06T13:37:16Z</time>
      </trkpt>
      <trkpt lat="45.1325" lon="5.91403">
        <ele>1977.123</ele>
        <time>2025-02-06T13:37:22Z</time>
      </trkpt>
      <trkpt lat="45.13246" lon="5.91397">
        <ele>1976.834</ele>
        <time>2025-02-06T13:37:28Z</time>
      </trkpt>
      <trkpt lat="45.13243" lon="5.91392">
        <ele>1977.448</ele>
        <time>2025-02-06T13:37:35Z</time>
      </trkpt>
      <trkpt lat="45.13241" lon="5.91386">
        <ele>1976.596</ele>
        <time>2025-02-06T13:37:42Z</time>
      </trkpt>
      <trkpt lat="45.13238" lon="5.9138">
        <ele>1977.891</ele>
        <time>2025-02-06T13:37:48Z</time>
      </trkpt>
      <trkpt lat="45.13235" lon="5.91374">
        <ele>1980.167</ele>
        <time>2025-02-06T13:37:55Z</time>
      </trkpt>
      <trkpt lat="45.13232" lon="5.91369">
        <ele>1979.625</ele>
        <time>2025-02-06T13:38:01Z</time>
      </trkpt>
      <trkpt lat="45.13229" lon="5.91364">
        <ele>1980.926</ele>
        <time>2025-02-06T13:38:08Z</time>
      </trkpt>
      <trkpt lat="45.13225" lon="5.91365">
        <ele>1978.568</ele>
        <time>2025-02-06T13:38:14Z</time>
      </trkpt>
      <trkpt lat="45.1322" lon="5.91365">
        <ele>1979.881</ele>
        <time>2025-02-06T13:38:25Z</time>
      </trkpt>
      <trkpt lat="45.13218" lon="5.91359">
        <ele>1981.837</ele>
        <time>2025-02-06T13:38:38Z</time>
      </trkpt>
      <trkpt lat="45.13215" lon="5.91354">
        <ele>1981.344</ele>
        <time>2025-02-06T13:38:45Z</time>
      </trkpt>
      <trkpt lat="45.13212" lon="5.91348">
        <ele>1983.271</ele>
        <time>2025-02-06T13:38:52Z</time>
      </trkpt>
      <trkpt lat="45.13209" lon="5.91343">
        <ele>1983.562</ele>
        <time>2025-02-06T13:38:57Z</time>
      </trkpt>
      <trkpt lat="45.13205" lon="5.91339">
        <ele>1982.968</ele>
        <time>2025-02-06T13:39:04Z</time>
      </trkpt>
      <trkpt lat="45.13201" lon="5.91336">
        <ele>1983.858</ele>
        <time>2025-02-06T13:39:10Z</time>
      </trkpt>
      <trkpt lat="45.13196" lon="5.91335">
        <ele>1982.548</ele>
        <time>2025-02-06T13:39:19Z</time>
      </trkpt>
      <trkpt lat="45.13192" lon="5.91333">
        <ele>1982.777</ele>
        <time>2025-02-06T13:39:28Z</time>
      </trkpt>
      <trkpt lat="45.13188" lon="5.91329">
        <ele>1983.936</ele>
        <time>2025-02-06T13:39:37Z</time>
      </trkpt>
      <trkpt lat="45.13184" lon="5.91326">
        <ele>1984.312</ele>
        <time>2025-02-06T13:39:46Z</time>
      </trkpt>
      <trkpt lat="45.1318" lon="5.91323">
        <ele>1983.576</ele>
        <time>2025-02-06T13:39:53Z</time>
      </trkpt>
      <trkpt lat="45.13176" lon="5.9132">
        <ele>1982.886</ele>
        <time>2025-02-06T13:40:01Z</time>
      </trkpt>
      <trkpt lat="45.13172" lon="5.91316">
        <ele>1983.584</ele>
        <time>2025-02-06T13:40:09Z</time>
      </trkpt>
      <trkpt lat="45.1317" lon="5.9131">
        <ele>1985.179</ele>
        <time>2025-02-06T13:40:17Z</time>
      </trkpt>
      <trkpt lat="45.13169" lon="5.91303">
        <ele>1984.956</ele>
        <time>2025-02-06T13:40:24Z</time>
      </trkpt>
      <trkpt lat="45.13169" lon="5.91297">
        <ele>1985.595</ele>
        <time>2025-02-06T13:40:33Z</time>
      </trkpt>
      <trkpt lat="45.1317" lon="5.9129">
        <ele>1986.624</ele>
        <time>2025-02-06T13:40:42Z</time>
      </trkpt>
      <trkpt lat="45.1317" lon="5.91284">
        <ele>1986.417</ele>
        <time>2025-02-06T13:40:49Z</time>
      </trkpt>
      <trkpt lat="45.13167" lon="5.91278">
        <ele>1987.244</ele>
        <time>2025-02-06T13:40:55Z</time>
      </trkpt>
      <trkpt lat="45.13165" lon="5.91272">
        <ele>1986.433</ele>
        <time>2025-02-06T13:41:05Z</time>
      </trkpt>
      <trkpt lat="45.13164" lon="5.91265">
        <ele>1985.951</ele>
        <time>2025-02-06T13:41:16Z</time>
      </trkpt>
      <trkpt lat="45.13162" lon="5.91259">
        <ele>1987.486</ele>
        <time>2025-02-06T13:41:24Z</time>
      </trkpt>
      <trkpt lat="45.13163" lon="5.91252">
        <ele>1986.603</ele>
        <time>2025-02-06T13:41:43Z</time>
      </trkpt>
      <trkpt lat="45.13162" lon="5.91244">
        <ele>1986.955</ele>
        <time>2025-02-06T13:41:52Z</time>
      </trkpt>
      <trkpt lat="45.13161" lon="5.91238">
        <ele>1987.364</ele>
        <time>2025-02-06T13:41:58Z</time>
      </trkpt>
      <trkpt lat="45.1316" lon="5.91231">
        <ele>1988.675</ele>
        <time>2025-02-06T13:42:05Z</time>
      </trkpt>
      <trkpt lat="45.13158" lon="5.91225">
        <ele>1990.743</ele>
        <time>2025-02-06T13:42:12Z</time>
      </trkpt>
      <trkpt lat="45.13156" lon="5.91219">
        <ele>1990.603</ele>
        <time>2025-02-06T13:42:18Z</time>
      </trkpt>
      <trkpt lat="45.13153" lon="5.91213">
        <ele>1990.66</ele>
        <time>2025-02-06T13:42:24Z</time>
      </trkpt>
      <trkpt lat="45.13151" lon="5.91208">
        <ele>1990.244</ele>
        <time>2025-02-06T13:42:32Z</time>
      </trkpt>
      <trkpt lat="45.13148" lon="5.91203">
        <ele>1991.866</ele>
        <time>2025-02-06T13:42:40Z</time>
      </trkpt>
      <trkpt lat="45.13146" lon="5.91197">
        <ele>1993.689</ele>
        <time>2025-02-06T13:42:48Z</time>
      </trkpt>
      <trkpt lat="45.13144" lon="5.91191">
        <ele>1994.12</ele>
        <time>2025-02-06T13:42:55Z</time>
      </trkpt>
      <trkpt lat="45.13141" lon="5.91186">
        <ele>1993.117</ele>
        <time>2025-02-06T13:43:00Z</time>
      </trkpt>
      <trkpt lat="45.13138" lon="5.91181">
        <ele>1990.708</ele>
        <time>2025-02-06T13:43:06Z</time>
      </trkpt>
      <trkpt lat="45.13134" lon="5.91178">
        <ele>1991.843</ele>
        <time>2025-02-06T13:43:15Z</time>
      </trkpt>
      <trkpt lat="45.1313" lon="5.91175">
        <ele>1992.258</ele>
        <time>2025-02-06T13:43:27Z</time>
      </trkpt>
      <trkpt lat="45.13126" lon="5.91173">
        <ele>1995.232</ele>
        <time>2025-02-06T13:43:37Z</time>
      </trkpt>
      <trkpt lat="45.13121" lon="5.91172">
        <ele>1996.351</ele>
        <time>2025-02-06T13:43:46Z</time>
      </trkpt>
      <trkpt lat="45.13117" lon="5.91171">
        <ele>1995.171</ele>
        <time>2025-02-06T13:43:59Z</time>
      </trkpt>
      <trkpt lat="45.13112" lon="5.91171">
        <ele>1997.631</ele>
        <time>2025-02-06T13:44:09Z</time>
      </trkpt>
      <trkpt lat="45.13108" lon="5.91172">
        <ele>1998.915</ele>
        <time>2025-02-06T13:44:19Z</time>
      </trkpt>
      <trkpt lat="45.13104" lon="5.9117">
        <ele>1996.83</ele>
        <time>2025-02-06T13:44:28Z</time>
      </trkpt>
      <trkpt lat="45.13099" lon="5.91171">
        <ele>1997.464</ele>
        <time>2025-02-06T13:44:37Z</time>
      </trkpt>
      <trkpt lat="45.13095" lon="5.91173">
        <ele>1997.656</ele>
        <time>2025-02-06T13:44:43Z</time>
      </trkpt>
      <trkpt lat="45.13091" lon="5.91176">
        <ele>1999.558</ele>
        <time>2025-02-06T13:44:53Z</time>
      </trkpt>
      <trkpt lat="45.13087" lon="5.91178">
        <ele>1997.228</ele>
        <time>2025-02-06T13:44:59Z</time>
      </trkpt>
      <trkpt lat="45.13083" lon="5.9118">
        <ele>1999.251</ele>
        <time>2025-02-06T13:45:08Z</time>
      </trkpt>
      <trkpt lat="45.1308" lon="5.91185">
        <ele>1999.979</ele>
        <time>2025-02-06T13:45:21Z</time>
      </trkpt>
      <trkpt lat="45.13076" lon="5.91187">
        <ele>2001.511</ele>
        <time>2025-02-06T13:45:38Z</time>
      </trkpt>
      <trkpt lat="45.13071" lon="5.91185">
        <ele>2003.457</ele>
        <time>2025-02-06T13:45:49Z</time>
      </trkpt>
      <trkpt lat="45.13067" lon="5.91185">
        <ele>2002.498</ele>
        <time>2025-02-06T13:45:55Z</time>
      </trkpt>
      <trkpt lat="45.13066" lon="5.9118">
        <ele>2001.64</ele>
        <time>2025-02-06T13:46:16Z</time>
      </trkpt>
      <trkpt lat="45.13066" lon="5.9118">
        <ele>2003.53</ele>
        <time>2025-02-06T13:46:37Z</time>
      </trkpt>
      <trkpt lat="45.13068" lon="5.91175">
        <ele>2002.467</ele>
        <time>2025-02-06T13:46:58Z</time>
      </trkpt>
      <trkpt lat="45.13072" lon="5.91172">
        <ele>1999.728</ele>
        <time>2025-02-06T13:47:16Z</time>
      </trkpt>
      <trkpt lat="45.13073" lon="5.91166">
        <ele>2002.459</ele>
        <time>2025-02-06T13:47:28Z</time>
      </trkpt>
      <trkpt lat="45.13074" lon="5.9116">
        <ele>2000.387</ele>
        <time>2025-02-06T13:47:41Z</time>
      </trkpt>
      <trkpt lat="45.13075" lon="5.91153">
        <ele>2001.999</ele>
        <time>2025-02-06T13:47:58Z</time>
      </trkpt>
      <trkpt lat="45.13074" lon="5.9115">
        <ele>2006.897</ele>
        <time>2025-02-06T13:48:07Z</time>
      </trkpt>
      <trkpt lat="45.13072" lon="5.91146">
        <ele>2010.335</ele>
        <time>2025-02-06T13:48:15Z</time>
      </trkpt>
      <trkpt lat="45.13074" lon="5.91141">
        <ele>2013.741</ele>
        <time>2025-02-06T13:48:24Z</time>
      </trkpt>
      <trkpt lat="45.13078" lon="5.91138">
        <ele>2011.14</ele>
        <time>2025-02-06T13:48:35Z</time>
      </trkpt>
      <trkpt lat="45.13078" lon="5.91132">
        <ele>2013.024</ele>
        <time>2025-02-06T13:48:49Z</time>
      </trkpt>
      <trkpt lat="45.13075" lon="5.91125">
        <ele>2016.127</ele>
        <time>2025-02-06T13:49:04Z</time>
      </trkpt>
      <trkpt lat="45.13077" lon="5.91123">
        <ele>2021.246</ele>
        <time>2025-02-06T13:49:11Z</time>
      </trkpt>
      <trkpt lat="45.1308" lon="5.91125">
        <ele>2020.8</ele>
        <time>2025-02-06T13:49:32Z</time>
      </trkpt>
      <trkpt lat="45.1308" lon="5.91125">
        <ele>2019.626</ele>
        <time>2025-02-06T13:49:52Z</time>
      </trkpt>
      <trkpt lat="45.13079" lon="5.91125">
        <ele>2018.717</ele>
        <time>2025-02-06T13:50:13Z</time>
      </trkpt>
      <trkpt lat="45.13074" lon="5.91128">
        <ele>2020.367</ele>
        <time>2025-02-06T13:50:24Z</time>
      </trkpt>
      <trkpt lat="45.1307" lon="5.91131">
        <ele>2020.99</ele>
        <time>2025-02-06T13:50:33Z</time>
      </trkpt>
      <trkpt lat="45.13066" lon="5.91131">
        <ele>2023.744</ele>
        <time>2025-02-06T13:50:45Z</time>
      </trkpt>
      <trkpt lat="45.13061" lon="5.9113">
        <ele>2024.165</ele>
        <time>2025-02-06T13:50:58Z</time>
      </trkpt>
      <trkpt lat="45.13058" lon="5.91131">
        <ele>2023.935</ele>
        <time>2025-02-06T13:51:18Z</time>
      </trkpt>
      <trkpt lat="45.13053" lon="5.9113">
        <ele>2025.554</ele>
        <time>2025-02-06T13:51:30Z</time>
      </trkpt>
      <trkpt lat="45.13048" lon="5.9113">
        <ele>2027.205</ele>
        <time>2025-02-06T13:51:37Z</time>
      </trkpt>
      <trkpt lat="45.13044" lon="5.91128">
        <ele>2028.809</ele>
        <time>2025-02-06T13:51:54Z</time>
      </trkpt>
      <trkpt lat="45.1304" lon="5.91127">
        <ele>2029.715</ele>
        <time>2025-02-06T13:52:04Z</time>
      </trkpt>
      <trkpt lat="45.13036" lon="5.91125">
        <ele>2032.48</ele>
        <time>2025-02-06T13:52:09Z</time>
      </trkpt>
      <trkpt lat="45.13031" lon="5.91125">
        <ele>2032.226</ele>
        <time>2025-02-06T13:52:15Z</time>
      </trkpt>
      <trkpt lat="45.13027" lon="5.91124">
        <ele>2033.188</ele>
        <time>2025-02-06T13:52:27Z</time>
      </trkpt>
      <trkpt lat="45.13022" lon="5.91124">
        <ele>2033.768</ele>
        <time>2025-02-06T13:52:41Z</time>
      </trkpt>
      <trkpt lat="45.13017" lon="5.91125">
        <ele>2034.663</ele>
        <time>2025-02-06T13:52:53Z</time>
      </trkpt>
      <trkpt lat="45.13013" lon="5.91126">
        <ele>2037.347</ele>
        <time>2025-02-06T13:53:07Z</time>
      </trkpt>
      <trkpt lat="45.13009" lon="5.91126">
        <ele>2040.889</ele>
        <time>2025-02-06T13:53:12Z</time>
      </trkpt>
      <trkpt lat="45.13004" lon="5.91126">
        <ele>2041.154</ele>
        <time>2025-02-06T13:53:23Z</time>
      </trkpt>
      <trkpt lat="45.13" lon="5.91127">
        <ele>2040.731</ele>
        <time>2025-02-06T13:53:35Z</time>
      </trkpt>
      <trkpt lat="45.12996" lon="5.91128">
        <ele>2039.431</ele>
        <time>2025-02-06T13:53:46Z</time>
      </trkpt>
      <trkpt lat="45.12991" lon="5.91129">
        <ele>2041.141</ele>
        <time>2025-02-06T13:54:00Z</time>
      </trkpt>
      <trkpt lat="45.12987" lon="5.91129">
        <ele>2039.979</ele>
        <time>2025-02-06T13:54:20Z</time>
      </trkpt>
      <trkpt lat="45.12983" lon="5.91129">
        <ele>2043.332</ele>
        <time>2025-02-06T13:54:29Z</time>
      </trkpt>
      <trkpt lat="45.12978" lon="5.91129">
        <ele>2044.216</ele>
        <time>2025-02-06T13:54:38Z</time>
      </trkpt>
      <trkpt lat="45.12973" lon="5.9113">
        <ele>2044.891</ele>
        <time>2025-02-06T13:54:48Z</time>
      </trkpt>
      <trkpt lat="45.1297" lon="5.91128">
        <ele>2048.077</ele>
        <time>2025-02-06T13:55:03Z</time>
      </trkpt>
      <trkpt lat="45.12965" lon="5.91125">
        <ele>2047.339</ele>
        <time>2025-02-06T13:55:12Z</time>
      </trkpt>
      <trkpt lat="45.12962" lon="5.91121">
        <ele>2048.869</ele>
        <time>2025-02-06T13:55:23Z</time>
      </trkpt>
      <trkpt lat="45.12958" lon="5.91118">
        <ele>2048.212</ele>
        <time>2025-02-06T13:55:39Z</time>
      </trkpt>
      <trkpt lat="45.12954" lon="5.91116">
        <ele>2050.058</ele>
        <time>2025-02-06T13:55:50Z</time>
      </trkpt>
      <trkpt lat="45.1295" lon="5.91115">
        <ele>2046.312</ele>
        <time>2025-02-06T13:56:01Z</time>
      </trkpt>
      <trkpt lat="45.12948" lon="5.91113">
        <ele>2050.1</ele>
        <time>2025-02-06T13:56:09Z</time>
      </trkpt>
      <trkpt lat="45.12944" lon="5.91109">
        <ele>2050.861</ele>
        <time>2025-02-06T13:56:27Z</time>
      </trkpt>
      <trkpt lat="45.1294" lon="5.91108">
        <ele>2055.216</ele>
        <time>2025-02-06T13:56:36Z</time>
      </trkpt>
      <trkpt lat="45.12936" lon="5.91105">
        <ele>2055.75</ele>
        <time>2025-02-06T13:56:43Z</time>
      </trkpt>
      <trkpt lat="45.12931" lon="5.91105">
        <ele>2054.268</ele>
        <time>2025-02-06T13:56:57Z</time>
      </trkpt>
      <trkpt lat="45.12932" lon="5.91099">
        <ele>2053.012</ele>
        <time>2025-02-06T13:57:10Z</time>
      </trkpt>
      <trkpt lat="45.12934" lon="5.91094">
        <ele>2049.667</ele>
        <time>2025-02-06T13:57:17Z</time>
      </trkpt>
      <trkpt lat="45.12934" lon="5.91088">
        <ele>2051.064</ele>
        <time>2025-02-06T13:57:30Z</time>
      </trkpt>
      <trkpt lat="45.12932" lon="5.91086">
        <ele>2055.255</ele>
        <time>2025-02-06T13:57:38Z</time>
      </trkpt>
      <trkpt lat="45.12927" lon="5.91086">
        <ele>2057.947</ele>
        <time>2025-02-06T13:57:49Z</time>
      </trkpt>
      <trkpt lat="45.12923" lon="5.91086">
        <ele>2060.142</ele>
        <time>2025-02-06T13:58:02Z</time>
      </trkpt>
      <trkpt lat="45.12919" lon="5.91089">
        <ele>2061.249</ele>
        <time>2025-02-06T13:58:22Z</time>
      </trkpt>
      <trkpt lat="45.12916" lon="5.91092">
        <ele>2064.018</ele>
        <time>2025-02-06T13:58:33Z</time>
      </trkpt>
      <trkpt lat="45.12913" lon="5.91097">
        <ele>2061.957</ele>
        <time>2025-02-06T13:58:43Z</time>
      </trkpt>
      <trkpt lat="45.12912" lon="5.91097">
        <ele>2062.023</ele>
        <time>2025-02-06T13:59:04Z</time>
      </trkpt>
      <trkpt lat="45.12909" lon="5.91093">
        <ele>2059.804</ele>
        <time>2025-02-06T13:59:14Z</time>
      </trkpt>
      <trkpt lat="45.12907" lon="5.91087">
        <ele>2061.815</ele>
        <time>2025-02-06T13:59:30Z</time>
      </trkpt>
      <trkpt lat="45.12906" lon="5.91081">
        <ele>2060.297</ele>
        <time>2025-02-06T13:59:41Z</time>
      </trkpt>
      <trkpt lat="45.12907" lon="5.91074">
        <ele>2062.074</ele>
        <time>2025-02-06T13:59:53Z</time>
      </trkpt>
      <trkpt lat="45.12906" lon="5.91069">
        <ele>2066.056</ele>
        <time>2025-02-06T14:00:01Z</time>
      </trkpt>
      <trkpt lat="45.12905" lon="5.91065">
        <ele>2070.34</ele>
        <time>2025-02-06T14:00:09Z</time>
      </trkpt>
      <trkpt lat="45.12904" lon="5.91059">
        <ele>2069.476</ele>
        <time>2025-02-06T14:00:21Z</time>
      </trkpt>
      <trkpt lat="45.12903" lon="5.91062">
        <ele>2069.843</ele>
        <time>2025-02-06T14:00:42Z</time>
      </trkpt>
      <trkpt lat="45.12898" lon="5.91063">
        <ele>2072.349</ele>
        <time>2025-02-06T14:01:01Z</time>
      </trkpt>
      <trkpt lat="45.12893" lon="5.91063">
        <ele>2074.895</ele>
        <time>2025-02-06T14:01:18Z</time>
      </trkpt>
      <trkpt lat="45.12891" lon="5.91065">
        <ele>2076.935</ele>
        <time>2025-02-06T14:01:38Z</time>
      </trkpt>
      <trkpt lat="45.12891" lon="5.91065">
        <ele>2077.339</ele>
        <time>2025-02-06T14:01:59Z</time>
      </trkpt>
      <trkpt lat="45.12888" lon="5.91063">
        <ele>2076.086</ele>
        <time>2025-02-06T14:02:06Z</time>
      </trkpt>
      <trkpt lat="45.12884" lon="5.91058">
        <ele>2076.192</ele>
        <time>2025-02-06T14:02:16Z</time>
      </trkpt>
      <trkpt lat="45.12883" lon="5.91052">
        <ele>2077.383</ele>
        <time>2025-02-06T14:02:24Z</time>
      </trkpt>
      <trkpt lat="45.12882" lon="5.91045">
        <ele>2078.424</ele>
        <time>2025-02-06T14:02:33Z</time>
      </trkpt>
      <trkpt lat="45.12883" lon="5.91041">
        <ele>2082.045</ele>
        <time>2025-02-06T14:02:40Z</time>
      </trkpt>
      <trkpt lat="45.12881" lon="5.91045">
        <ele>2085.364</ele>
        <time>2025-02-06T14:02:59Z</time>
      </trkpt>
      <trkpt lat="45.12877" lon="5.91047">
        <ele>2084.744</ele>
        <time>2025-02-06T14:03:11Z</time>
      </trkpt>
      <trkpt lat="45.12872" lon="5.91048">
        <ele>2086.061</ele>
        <time>2025-02-06T14:03:22Z</time>
      </trkpt>
      <trkpt lat="45.12867" lon="5.91048">
        <ele>2087.516</ele>
        <time>2025-02-06T14:03:42Z</time>
      </trkpt>
      <trkpt lat="45.12863" lon="5.9105">
        <ele>2087.72</ele>
        <time>2025-02-06T14:03:53Z</time>
      </trkpt>
      <trkpt lat="45.12858" lon="5.91052">
        <ele>2089.419</ele>
        <time>2025-02-06T14:04:03Z</time>
      </trkpt>
      <trkpt lat="45.12854" lon="5.91051">
        <ele>2091.938</ele>
        <time>2025-02-06T14:04:12Z</time>
      </trkpt>
      <trkpt lat="45.1285" lon="5.91047">
        <ele>2092.321</ele>
        <time>2025-02-06T14:04:27Z</time>
      </trkpt>
      <trkpt lat="45.12845" lon="5.91045">
        <ele>2094.127</ele>
        <time>2025-02-06T14:04:41Z</time>
      </trkpt>
      <trkpt lat="45.1284" lon="5.91044">
        <ele>2094.698</ele>
        <time>2025-02-06T14:04:53Z</time>
      </trkpt>
      <trkpt lat="45.12836" lon="5.91042">
        <ele>2095.04</ele>
        <time>2025-02-06T14:05:14Z</time>
      </trkpt>
      <trkpt lat="45.12836" lon="5.91042">
        <ele>2095.388</ele>
        <time>2025-02-06T14:05:35Z</time>
      </trkpt>
      <trkpt lat="45.12835" lon="5.9104">
        <ele>2094.91</ele>
        <time>2025-02-06T14:05:56Z</time>
      </trkpt>
      <trkpt lat="45.12831" lon="5.91037">
        <ele>2095.008</ele>
        <time>2025-02-06T14:06:03Z</time>
      </trkpt>
      <trkpt lat="45.12827" lon="5.91033">
        <ele>2096.522</ele>
        <time>2025-02-06T14:06:10Z</time>
      </trkpt>
      <trkpt lat="45.12823" lon="5.9103">
        <ele>2097.201</ele>
        <time>2025-02-06T14:06:19Z</time>
      </trkpt>
      <trkpt lat="45.12819" lon="5.91026">
        <ele>2096.901</ele>
        <time>2025-02-06T14:06:28Z</time>
      </trkpt>
      <trkpt lat="45.12814" lon="5.91022">
        <ele>2098.196</ele>
        <time>2025-02-06T14:06:34Z</time>
      </trkpt>
      <trkpt lat="45.1281" lon="5.9102">
        <ele>2097.889</ele>
        <time>2025-02-06T14:06:41Z</time>
      </trkpt>
      <trkpt lat="45.12806" lon="5.91017">
        <ele>2099.683</ele>
        <time>2025-02-06T14:06:48Z</time>
      </trkpt>
      <trkpt lat="45.12802" lon="5.91014">
        <ele>2100.517</ele>
        <time>2025-02-06T14:06:56Z</time>
      </trkpt>
      <trkpt lat="45.12798" lon="5.91011">
        <ele>2100.978</ele>
        <time>2025-02-06T14:07:05Z</time>
      </trkpt>
      <trkpt lat="45.12793" lon="5.91007">
        <ele>2100.822</ele>
        <time>2025-02-06T14:07:15Z</time>
      </trkpt>
      <trkpt lat="45.12789" lon="5.91004">
        <ele>2101.705</ele>
        <time>2025-02-06T14:07:25Z</time>
      </trkpt>
      <trkpt lat="45.12785" lon="5.91001">
        <ele>2101.45</ele>
        <time>2025-02-06T14:07:33Z</time>
      </trkpt>
      <trkpt lat="45.12781" lon="5.90997">
        <ele>2102.7</ele>
        <time>2025-02-06T14:07:40Z</time>
      </trkpt>
      <trkpt lat="45.12778" lon="5.90994">
        <ele>2104.86</ele>
        <time>2025-02-06T14:07:50Z</time>
      </trkpt>
      <trkpt lat="45.12773" lon="5.90991">
        <ele>2104.73</ele>
        <time>2025-02-06T14:08:03Z</time>
      </trkpt>
      <trkpt lat="45.1277" lon="5.90987">
        <ele>2104.282</ele>
        <time>2025-02-06T14:08:10Z</time>
      </trkpt>
      <trkpt lat="45.12766" lon="5.90983">
        <ele>2106.501</ele>
        <time>2025-02-06T14:08:17Z</time>
      </trkpt>
      <trkpt lat="45.12764" lon="5.90977">
        <ele>2108.84</ele>
        <time>2025-02-06T14:08:34Z</time>
      </trkpt>
      <trkpt lat="45.12761" lon="5.90973">
        <ele>2110.842</ele>
        <time>2025-02-06T14:08:44Z</time>
      </trkpt>
      <trkpt lat="45.12758" lon="5.90969">
        <ele>2108.875</ele>
        <time>2025-02-06T14:08:56Z</time>
      </trkpt>
      <trkpt lat="45.12754" lon="5.90965">
        <ele>2111.24</ele>
        <time>2025-02-06T14:09:04Z</time>
      </trkpt>
      <trkpt lat="45.12752" lon="5.9096">
        <ele>2112.746</ele>
        <time>2025-02-06T14:09:17Z</time>
      </trkpt>
      <trkpt lat="45.12748" lon="5.90955">
        <ele>2113.361</ele>
        <time>2025-02-06T14:09:29Z</time>
      </trkpt>
      <trkpt lat="45.12747" lon="5.9095">
        <ele>2116.077</ele>
        <time>2025-02-06T14:09:39Z</time>
      </trkpt>
      <trkpt lat="45.12744" lon="5.90945">
        <ele>2116.001</ele>
        <time>2025-02-06T14:09:50Z</time>
      </trkpt>
      <trkpt lat="45.12742" lon="5.90939">
        <ele>2118.634</ele>
        <time>2025-02-06T14:10:01Z</time>
      </trkpt>
      <trkpt lat="45.12738" lon="5.90934">
        <ele>2118.297</ele>
        <time>2025-02-06T14:10:18Z</time>
      </trkpt>
      <trkpt lat="45.12736" lon="5.9093">
        <ele>2121.765</ele>
        <time>2025-02-06T14:10:29Z</time>
      </trkpt>
      <trkpt lat="45.12734" lon="5.90925">
        <ele>2124.6</ele>
        <time>2025-02-06T14:10:40Z</time>
      </trkpt>
      <trkpt lat="45.1273" lon="5.9092">
        <ele>2125.782</ele>
        <time>2025-02-06T14:10:48Z</time>
      </trkpt>
      <trkpt lat="45.12728" lon="5.90916">
        <ele>2127.332</ele>
        <time>2025-02-06T14:11:03Z</time>
      </trkpt>
      <trkpt lat="45.12725" lon="5.90911">
        <ele>2127.012</ele>
        <time>2025-02-06T14:11:17Z</time>
      </trkpt>
      <trkpt lat="45.12723" lon="5.90906">
        <ele>2130.664</ele>
        <time>2025-02-06T14:11:25Z</time>
      </trkpt>
      <trkpt lat="45.12723" lon="5.909">
        <ele>2129.386</ele>
        <time>2025-02-06T14:11:38Z</time>
      </trkpt>
      <trkpt lat="45.12722" lon="5.90896">
        <ele>2124.474</ele>
        <time>2025-02-06T14:11:54Z</time>
      </trkpt>
      <trkpt lat="45.12722" lon="5.90896">
        <ele>2127.064</ele>
        <time>2025-02-06T14:11:56Z</time>
      </trkpt>
      <trkpt lat="45.12722" lon="5.90896">
        <ele>2127.078</ele>
        <time>2025-02-06T14:12:17Z</time>
      </trkpt>
      <trkpt lat="45.12722" lon="5.90896">
        <ele>2127.15</ele>
        <time>2025-02-06T14:12:38Z</time>
      </trkpt>
      <trkpt lat="45.12722" lon="5.90896">
        <ele>2128.064</ele>
        <time>2025-02-06T14:12:58Z</time>
      </trkpt>
      <trkpt lat="45.12722" lon="5.90896">
        <ele>2127.617</ele>
        <time>2025-02-06T14:13:19Z</time>
      </trkpt>
      <trkpt lat="45.12722" lon="5.90896">
        <ele>2127.604</ele>
        <time>2025-02-06T14:13:40Z</time>
      </trkpt>
      <trkpt lat="45.12722" lon="5.90896">
        <ele>2124.723</ele>
        <time>2025-02-06T14:14:01Z</time>
      </trkpt>
      <trkpt lat="45.12722" lon="5.90896">
        <ele>2123.442</ele>
        <time>2025-02-06T14:14:06Z</time>
      </trkpt>
      <trkpt lat="45.12725" lon="5.90896">
        <ele>2122.719</ele>
        <time>2025-02-06T14:14:26Z</time>
      </trkpt>
      <trkpt lat="45.12726" lon="5.9089">
        <ele>2124.785</ele>
        <time>2025-02-06T14:14:40Z</time>
      </trkpt>
      <trkpt lat="45.12726" lon="5.90884">
        <ele>2127.859</ele>
        <time>2025-02-06T14:14:53Z</time>
      </trkpt>
      <trkpt lat="45.1273" lon="5.90881">
        <ele>2129.606</ele>
        <time>2025-02-06T14:15:14Z</time>
      </trkpt>
      <trkpt lat="45.12735" lon="5.90881">
        <ele>2130.757</ele>
        <time>2025-02-06T14:15:30Z</time>
      </trkpt>
      <trkpt lat="45.12739" lon="5.90878">
        <ele>2132.191</ele>
        <time>2025-02-06T14:15:46Z</time>
      </trkpt>
      <trkpt lat="45.12743" lon="5.90879">
        <ele>2135.958</ele>
        <time>2025-02-06T14:16:00Z</time>
      </trkpt>
      <trkpt lat="45.12747" lon="5.90878">
        <ele>2138.838</ele>
        <time>2025-02-06T14:16:10Z</time>
      </trkpt>
      <trkpt lat="45.12747" lon="5.90871">
        <ele>2136.768</ele>
        <time>2025-02-06T14:16:28Z</time>
      </trkpt>
      <trkpt lat="45.12747" lon="5.90871">
        <ele>2137.063</ele>
        <time>2025-02-06T14:16:49Z</time>
      </trkpt>
      <trkpt lat="45.12747" lon="5.90871">
        <ele>2139.336</ele>
        <time>2025-02-06T14:17:09Z</time>
      </trkpt>
      <trkpt lat="45.12747" lon="5.90871">
        <ele>2140.393</ele>
        <time>2025-02-06T14:17:22Z</time>
      </trkpt>
      <trkpt lat="45.12747" lon="5.90871">
        <ele>2141.9</ele>
        <time>2025-02-06T14:17:42Z</time>
      </trkpt>
      <trkpt lat="45.12747" lon="5.90871">
        <ele>2142.452</ele>
        <time>2025-02-06T14:18:03Z</time>
      </trkpt>
      <trkpt lat="45.12747" lon="5.90871">
        <ele>2143.709</ele>
        <time>2025-02-06T14:18:20Z</time>
      </trkpt>
      <trkpt lat="45.12747" lon="5.90871">
        <ele>2146.257</ele>
        <time>2025-02-06T14:18:31Z</time>
      </trkpt>
      <trkpt lat="45.12752" lon="5.90857">
        <ele>2148.052</ele>
        <time>2025-02-06T14:18:52Z</time>
      </trkpt>
      <trkpt lat="45.1275" lon="5.90851">
        <ele>2147.239</ele>
        <time>2025-02-06T14:19:07Z</time>
      </trkpt>
      <trkpt lat="45.12747" lon="5.90847">
        <ele>2148.776</ele>
        <time>2025-02-06T14:19:19Z</time>
      </trkpt>
      <trkpt lat="45.12744" lon="5.90842">
        <ele>2149.671</ele>
        <time>2025-02-06T14:19:29Z</time>
      </trkpt>
      <trkpt lat="45.12743" lon="5.90841">
        <ele>2150.484</ele>
        <time>2025-02-06T14:19:50Z</time>
      </trkpt>
      <trkpt lat="45.1274" lon="5.90838">
        <ele>2152.846</ele>
        <time>2025-02-06T14:20:10Z</time>
      </trkpt>
      <trkpt lat="45.12738" lon="5.90835">
        <ele>2154.414</ele>
        <time>2025-02-06T14:20:31Z</time>
      </trkpt>
      <trkpt lat="45.12735" lon="5.9083">
        <ele>2154.323</ele>
        <time>2025-02-06T14:20:52Z</time>
      </trkpt>
      <trkpt lat="45.12732" lon="5.90825">
        <ele>2156.101</ele>
        <time>2025-02-06T14:21:10Z</time>
      </trkpt>
      <trkpt lat="45.12729" lon="5.90822">
        <ele>2157.128</ele>
        <time>2025-02-06T14:21:31Z</time>
      </trkpt>
      <trkpt lat="45.12726" lon="5.90818">
        <ele>2159.654</ele>
        <time>2025-02-06T14:21:43Z</time>
      </trkpt>
      <trkpt lat="45.12723" lon="5.90816">
        <ele>2160.647</ele>
        <time>2025-02-06T14:22:03Z</time>
      </trkpt>
      <trkpt lat="45.12722" lon="5.90812">
        <ele>2160.692</ele>
        <time>2025-02-06T14:22:23Z</time>
      </trkpt>
      <trkpt lat="45.1272" lon="5.90809">
        <ele>2162.187</ele>
        <time>2025-02-06T14:22:44Z</time>
      </trkpt>
      <trkpt lat="45.1272" lon="5.90809">
        <ele>2161.305</ele>
        <time>2025-02-06T14:23:04Z</time>
      </trkpt>
      <trkpt lat="45.1272" lon="5.90809">
        <ele>2159.049</ele>
        <time>2025-02-06T14:23:25Z</time>
      </trkpt>
      <trkpt lat="45.1272" lon="5.90809">
        <ele>2160.017</ele>
        <time>2025-02-06T14:23:46Z</time>
      </trkpt>
      <trkpt lat="45.1272" lon="5.90809">
        <ele>2161.547</ele>
        <time>2025-02-06T14:24:06Z</time>
      </trkpt>
      <trkpt lat="45.1272" lon="5.90809">
        <ele>2163.151</ele>
        <time>2025-02-06T14:24:27Z</time>
      </trkpt>
      <trkpt lat="45.1272" lon="5.90809">
        <ele>2165.204</ele>
        <time>2025-02-06T14:24:33Z</time>
      </trkpt>
      <trkpt lat="45.12714" lon="5.90796">
        <ele>2166.035</ele>
        <time>2025-02-06T14:24:53Z</time>
      </trkpt>
      <trkpt lat="45.12715" lon="5.90793">
        <ele>2166.24</ele>
        <time>2025-02-06T14:25:13Z</time>
      </trkpt>
      <trkpt lat="45.12715" lon="5.90789">
        <ele>2168.432</ele>
        <time>2025-02-06T14:25:34Z</time>
      </trkpt>
      <trkpt lat="45.12715" lon="5.90789">
        <ele>2168.545</ele>
        <time>2025-02-06T14:25:54Z</time>
      </trkpt>
      <trkpt lat="45.12715" lon="5.90789">
        <ele>2169.905</ele>
        <time>2025-02-06T14:26:15Z</time>
      </trkpt>
      <trkpt lat="45.12716" lon="5.90784">
        <ele>2171.39</ele>
        <time>2025-02-06T14:26:35Z</time>
      </trkpt>
      <trkpt lat="45.12716" lon="5.90784">
        <ele>2171.514</ele>
        <time>2025-02-06T14:26:55Z</time>
      </trkpt>
      <trkpt lat="45.12715" lon="5.90781">
        <ele>2172.915</ele>
        <time>2025-02-06T14:27:15Z</time>
      </trkpt>
      <trkpt lat="45.12715" lon="5.90779">
        <ele>2173.646</ele>
        <time>2025-02-06T14:27:36Z</time>
      </trkpt>
      <trkpt lat="45.12715" lon="5.90778">
        <ele>2173.914</ele>
        <time>2025-02-06T14:27:56Z</time>
      </trkpt>
      <trkpt lat="45.12716" lon="5.90777">
        <ele>2175.955</ele>
        <time>2025-02-06T14:28:17Z</time>
      </trkpt>
      <trkpt lat="45.12715" lon="5.90771">
        <ele>2179.205</ele>
        <time>2025-02-06T14:28:35Z</time>
      </trkpt>
      <trkpt lat="45.12713" lon="5.90768">
        <ele>2181.985</ele>
        <time>2025-02-06T14:28:56Z</time>
      </trkpt>
      <trkpt lat="45.12712" lon="5.90765">
        <ele>2183.431</ele>
        <time>2025-02-06T14:29:16Z</time>
      </trkpt>
      <trkpt lat="45.12711" lon="5.9076">
        <ele>2185.391</ele>
        <time>2025-02-06T14:29:37Z</time>
      </trkpt>
      <trkpt lat="45.1271" lon="5.90756">
        <ele>2185.328</ele>
        <time>2025-02-06T14:29:57Z</time>
      </trkpt>
      <trkpt lat="45.1271" lon="5.90754">
        <ele>2185.907</ele>
        <time>2025-02-06T14:30:18Z</time>
      </trkpt>
      <trkpt lat="45.12707" lon="5.90749">
        <ele>2187.002</ele>
        <time>2025-02-06T14:30:28Z</time>
      </trkpt>
      <trkpt lat="45.12707" lon="5.90743">
        <ele>2187.707</ele>
        <time>2025-02-06T14:30:48Z</time>
      </trkpt>
      <trkpt lat="45.12707" lon="5.90743">
        <ele>2186.351</ele>
        <time>2025-02-06T14:31:09Z</time>
      </trkpt>
      <trkpt lat="45.12707" lon="5.90743">
        <ele>2185.657</ele>
        <time>2025-02-06T14:31:30Z</time>
      </trkpt>
      <trkpt lat="45.12707" lon="5.90743">
        <ele>2185.478</ele>
        <time>2025-02-06T14:31:51Z</time>
      </trkpt>
      <trkpt lat="45.12707" lon="5.90743">
        <ele>2185.558</ele>
        <time>2025-02-06T14:32:11Z</time>
      </trkpt>
      <trkpt lat="45.12707" lon="5.90743">
        <ele>2185.695</ele>
        <time>2025-02-06T14:32:31Z</time>
      </trkpt>
      <trkpt lat="45.12707" lon="5.90743">
        <ele>2185.658</ele>
        <time>2025-02-06T14:32:51Z</time>
      </trkpt>
      <trkpt lat="45.12707" lon="5.90743">
        <ele>2183.58</ele>
        <time>2025-02-06T14:33:11Z</time>
      </trkpt>
      <trkpt lat="45.12707" lon="5.90743">
        <ele>2183.443</ele>
        <time>2025-02-06T14:33:31Z</time>
      </trkpt>
      <trkpt lat="45.12707" lon="5.90743">
        <ele>2183.413</ele>
        <time>2025-02-06T14:33:52Z</time>
      </trkpt>
      <trkpt lat="45.12707" lon="5.90743">
        <ele>2183.435</ele>
        <time>2025-02-06T14:34:13Z</time>
      </trkpt>
      <trkpt lat="45.12707" lon="5.90743">
        <ele>2183.499</ele>
        <time>2025-02-06T14:34:34Z</time>
      </trkpt>
      <trkpt lat="45.12707" lon="5.90743">
        <ele>2183.764</ele>
        <time>2025-02-06T14:34:54Z</time>
      </trkpt>
      <trkpt lat="45.12707" lon="5.90743">
        <ele>2183.806</ele>
        <time>2025-02-06T14:35:14Z</time>
      </trkpt>
      <trkpt lat="45.12707" lon="5.90743">
        <ele>2183.815</ele>
        <time>2025-02-06T14:35:35Z</time>
      </trkpt>
      <trkpt lat="45.12707" lon="5.90743">
        <ele>2183.823</ele>
        <time>2025-02-06T14:35:55Z</time>
      </trkpt>
      <trkpt lat="45.12707" lon="5.90743">
        <ele>2184.439</ele>
        <time>2025-02-06T14:36:16Z</time>
      </trkpt>
      <trkpt lat="45.12707" lon="5.90743">
        <ele>2184.423</ele>
        <time>2025-02-06T14:36:36Z</time>
      </trkpt>
      <trkpt lat="45.12707" lon="5.90743">
        <ele>2184.41</ele>
        <time>2025-02-06T14:36:57Z</time>
      </trkpt>
      <trkpt lat="45.12707" lon="5.90743">
        <ele>2184.413</ele>
        <time>2025-02-06T14:37:17Z</time>
      </trkpt>
      <trkpt lat="45.12707" lon="5.90743">
        <ele>2184.372</ele>
        <time>2025-02-06T14:37:38Z</time>
      </trkpt>
      <trkpt lat="45.12707" lon="5.90743">
        <ele>2184.865</ele>
        <time>2025-02-06T14:37:58Z</time>
      </trkpt>
      <trkpt lat="45.12707" lon="5.90743">
        <ele>2184.959</ele>
        <time>2025-02-06T14:38:19Z</time>
      </trkpt>
      <trkpt lat="45.12707" lon="5.90743">
        <ele>2185.164</ele>
        <time>2025-02-06T14:38:39Z</time>
      </trkpt>
      <trkpt lat="45.12707" lon="5.90743">
        <ele>2185.139</ele>
        <time>2025-02-06T14:39:00Z</time>
      </trkpt>
      <trkpt lat="45.12707" lon="5.90743">
        <ele>2185.122</ele>
        <time>2025-02-06T14:39:21Z</time>
      </trkpt>
      <trkpt lat="45.12707" lon="5.90743">
        <ele>2185.086</ele>
        <time>2025-02-06T14:39:41Z</time>
      </trkpt>
      <trkpt lat="45.12707" lon="5.90743">
        <ele>2184.924</ele>
        <time>2025-02-06T14:40:01Z</time>
      </trkpt>
      <trkpt lat="45.12707" lon="5.90743">
        <ele>2184.878</ele>
        <time>2025-02-06T14:40:22Z</time>
      </trkpt>
      <trkpt lat="45.12707" lon="5.90743">
        <ele>2184.878</ele>
        <time>2025-02-06T14:40:43Z</time>
      </trkpt>
      <trkpt lat="45.12707" lon="5.90743">
        <ele>2184.805</ele>
        <time>2025-02-06T14:41:03Z</time>
      </trkpt>
      <trkpt lat="45.12707" lon="5.90743">
        <ele>2184.753</ele>
        <time>2025-02-06T14:41:24Z</time>
      </trkpt>
      <trkpt lat="45.12707" lon="5.90743">
        <ele>2184.928</ele>
        <time>2025-02-06T14:41:44Z</time>
      </trkpt>
      <trkpt lat="45.12707" lon="5.90743">
        <ele>2184.862</ele>
        <time>2025-02-06T14:42:04Z</time>
      </trkpt>
      <trkpt lat="45.12707" lon="5.90743">
        <ele>2184.827</ele>
        <time>2025-02-06T14:42:25Z</time>
      </trkpt>
      <trkpt lat="45.12707" lon="5.90743">
        <ele>2184.75</ele>
        <time>2025-02-06T14:42:45Z</time>
      </trkpt>
      <trkpt lat="45.12707" lon="5.90743">
        <ele>2184.66</ele>
        <time>2025-02-06T14:43:05Z</time>
      </trkpt>
      <trkpt lat="45.12707" lon="5.90743">
        <ele>2184.527</ele>
        <time>2025-02-06T14:43:26Z</time>
      </trkpt>
      <trkpt lat="45.12707" lon="5.90743">
        <ele>2184.52</ele>
        <time>2025-02-06T14:43:46Z</time>
      </trkpt>
      <trkpt lat="45.12707" lon="5.90743">
        <ele>2184.499</ele>
        <time>2025-02-06T14:44:06Z</time>
      </trkpt>
      <trkpt lat="45.12707" lon="5.90743">
        <ele>2184.47</ele>
        <time>2025-02-06T14:44:27Z</time>
      </trkpt>
      <trkpt lat="45.12707" lon="5.90743">
        <ele>2184.33</ele>
        <time>2025-02-06T14:44:47Z</time>
      </trkpt>
      <trkpt lat="45.12707" lon="5.90743">
        <ele>2184.292</ele>
        <time>2025-02-06T14:45:07Z</time>
      </trkpt>
      <trkpt lat="45.12707" lon="5.90743">
        <ele>2184.293</ele>
        <time>2025-02-06T14:45:27Z</time>
      </trkpt>
      <trkpt lat="45.12707" lon="5.90743">
        <ele>2184.387</ele>
        <time>2025-02-06T14:45:47Z</time>
      </trkpt>
      <trkpt lat="45.12707" lon="5.90743">
        <ele>2184.443</ele>
        <time>2025-02-06T14:46:08Z</time>
      </trkpt>
      <trkpt lat="45.12707" lon="5.90743">
        <ele>2184.273</ele>
        <time>2025-02-06T14:46:29Z</time>
      </trkpt>
      <trkpt lat="45.12707" lon="5.90743">
        <ele>2184.294</ele>
        <time>2025-02-06T14:46:49Z</time>
      </trkpt>
      <trkpt lat="45.12707" lon="5.90743">
        <ele>2184.365</ele>
        <time>2025-02-06T14:47:09Z</time>
      </trkpt>
      <trkpt lat="45.12707" lon="5.90743">
        <ele>2180.755</ele>
        <time>2025-02-06T14:47:30Z</time>
      </trkpt>
      <trkpt lat="45.12707" lon="5.90743">
        <ele>2181.135</ele>
        <time>2025-02-06T14:47:51Z</time>
      </trkpt>
      <trkpt lat="45.12707" lon="5.90743">
        <ele>2182.062</ele>
        <time>2025-02-06T14:48:12Z</time>
      </trkpt>
      <trkpt lat="45.12707" lon="5.90743">
        <ele>2182.03</ele>
        <time>2025-02-06T14:48:32Z</time>
      </trkpt>
      <trkpt lat="45.12707" lon="5.90743">
        <ele>2180.828</ele>
        <time>2025-02-06T14:48:53Z</time>
      </trkpt>
      <trkpt lat="45.12707" lon="5.90743">
        <ele>2180.895</ele>
        <time>2025-02-06T14:49:14Z</time>
      </trkpt>
      <trkpt lat="45.12707" lon="5.90743">
        <ele>2181.412</ele>
        <time>2025-02-06T14:49:34Z</time>
      </trkpt>
      <trkpt lat="45.12707" lon="5.90743">
        <ele>2182.769</ele>
        <time>2025-02-06T14:49:55Z</time>
      </trkpt>
      <trkpt lat="45.12707" lon="5.90743">
        <ele>2182.777</ele>
        <time>2025-02-06T14:50:15Z</time>
      </trkpt>
      <trkpt lat="45.12712" lon="5.90738">
        <ele>2182.841</ele>
        <time>2025-02-06T14:50:20Z</time>
      </trkpt>
      <trkpt lat="45.1271" lon="5.9073">
        <ele>2182.283</ele>
        <time>2025-02-06T14:50:23Z</time>
      </trkpt>
      <trkpt lat="45.12713" lon="5.90723">
        <ele>2182.454</ele>
        <time>2025-02-06T14:50:25Z</time>
      </trkpt>
      <trkpt lat="45.12715" lon="5.90716">
        <ele>2180.737</ele>
        <time>2025-02-06T14:50:28Z</time>
      </trkpt>
      <trkpt lat="45.12712" lon="5.90709">
        <ele>2179.369</ele>
        <time>2025-02-06T14:50:30Z</time>
      </trkpt>
      <trkpt lat="45.12715" lon="5.90703">
        <ele>2177.368</ele>
        <time>2025-02-06T14:50:32Z</time>
      </trkpt>
      <trkpt lat="45.12718" lon="5.90699">
        <ele>2175.239</ele>
        <time>2025-02-06T14:50:34Z</time>
      </trkpt>
      <trkpt lat="45.12722" lon="5.90694">
        <ele>2174.445</ele>
        <time>2025-02-06T14:50:36Z</time>
      </trkpt>
      <trkpt lat="45.12721" lon="5.90686">
        <ele>2171.413</ele>
        <time>2025-02-06T14:50:38Z</time>
      </trkpt>
      <trkpt lat="45.12717" lon="5.90679">
        <ele>2169.862</ele>
        <time>2025-02-06T14:50:40Z</time>
      </trkpt>
      <trkpt lat="45.12714" lon="5.90674">
        <ele>2169.233</ele>
        <time>2025-02-06T14:50:42Z</time>
      </trkpt>
      <trkpt lat="45.12712" lon="5.90669">
        <ele>2167.038</ele>
        <time>2025-02-06T14:50:44Z</time>
      </trkpt>
      <trkpt lat="45.12717" lon="5.90664">
        <ele>2165.057</ele>
        <time>2025-02-06T14:50:46Z</time>
      </trkpt>
      <trkpt lat="45.12722" lon="5.90658">
        <ele>2162.743</ele>
        <time>2025-02-06T14:50:48Z</time>
      </trkpt>
      <trkpt lat="45.1272" lon="5.90651">
        <ele>2162.231</ele>
        <time>2025-02-06T14:50:50Z</time>
      </trkpt>
      <trkpt lat="45.12717" lon="5.90646">
        <ele>2161.711</ele>
        <time>2025-02-06T14:50:55Z</time>
      </trkpt>
      <trkpt lat="45.12721" lon="5.90639">
        <ele>2159.508</ele>
        <time>2025-02-06T14:51:03Z</time>
      </trkpt>
      <trkpt lat="45.12725" lon="5.90637">
        <ele>2158.57</ele>
        <time>2025-02-06T14:51:06Z</time>
      </trkpt>
      <trkpt lat="45.12729" lon="5.90635">
        <ele>2158.513</ele>
        <time>2025-02-06T14:51:10Z</time>
      </trkpt>
      <trkpt lat="45.12732" lon="5.90631">
        <ele>2155.22</ele>
        <time>2025-02-06T14:51:25Z</time>
      </trkpt>
      <trkpt lat="45.12729" lon="5.90624">
        <ele>2153.894</ele>
        <time>2025-02-06T14:51:39Z</time>
      </trkpt>
      <trkpt lat="45.12725" lon="5.9062">
        <ele>2152.909</ele>
        <time>2025-02-06T14:51:41Z</time>
      </trkpt>
      <trkpt lat="45.12722" lon="5.90615">
        <ele>2153.2</ele>
        <time>2025-02-06T14:51:43Z</time>
      </trkpt>
      <trkpt lat="45.12719" lon="5.9061">
        <ele>2151.189</ele>
        <time>2025-02-06T14:51:46Z</time>
      </trkpt>
      <trkpt lat="45.12718" lon="5.90604">
        <ele>2148.757</ele>
        <time>2025-02-06T14:51:48Z</time>
      </trkpt>
      <trkpt lat="45.1272" lon="5.90597">
        <ele>2143.861</ele>
        <time>2025-02-06T14:51:50Z</time>
      </trkpt>
      <trkpt lat="45.12727" lon="5.90596">
        <ele>2141.225</ele>
        <time>2025-02-06T14:51:52Z</time>
      </trkpt>
      <trkpt lat="45.12732" lon="5.90598">
        <ele>2138.187</ele>
        <time>2025-02-06T14:52:02Z</time>
      </trkpt>
      <trkpt lat="45.12736" lon="5.90594">
        <ele>2135.111</ele>
        <time>2025-02-06T14:52:06Z</time>
      </trkpt>
      <trkpt lat="45.12737" lon="5.90585">
        <ele>2131.815</ele>
        <time>2025-02-06T14:52:08Z</time>
      </trkpt>
      <trkpt lat="45.12736" lon="5.90579">
        <ele>2129.72</ele>
        <time>2025-02-06T14:52:10Z</time>
      </trkpt>
      <trkpt lat="45.12735" lon="5.90571">
        <ele>2127.339</ele>
        <time>2025-02-06T14:52:12Z</time>
      </trkpt>
      <trkpt lat="45.12737" lon="5.90566">
        <ele>2123.267</ele>
        <time>2025-02-06T14:52:14Z</time>
      </trkpt>
      <trkpt lat="45.12741" lon="5.90566">
        <ele>2122.234</ele>
        <time>2025-02-06T14:52:16Z</time>
      </trkpt>
      <trkpt lat="45.12747" lon="5.90562">
        <ele>2120.97</ele>
        <time>2025-02-06T14:52:18Z</time>
      </trkpt>
      <trkpt lat="45.12747" lon="5.90551">
        <ele>2119.624</ele>
        <time>2025-02-06T14:52:20Z</time>
      </trkpt>
      <trkpt lat="45.12744" lon="5.90539">
        <ele>2119.702</ele>
        <time>2025-02-06T14:52:22Z</time>
      </trkpt>
      <trkpt lat="45.12742" lon="5.90534">
        <ele>2116.835</ele>
        <time>2025-02-06T14:52:29Z</time>
      </trkpt>
      <trkpt lat="45.12745" lon="5.90527">
        <ele>2112.982</ele>
        <time>2025-02-06T14:52:34Z</time>
      </trkpt>
      <trkpt lat="45.12753" lon="5.90529">
        <ele>2110.111</ele>
        <time>2025-02-06T14:52:36Z</time>
      </trkpt>
      <trkpt lat="45.12761" lon="5.90536">
        <ele>2107.135</ele>
        <time>2025-02-06T14:52:38Z</time>
      </trkpt>
      <trkpt lat="45.1277" lon="5.90541">
        <ele>2108.678</ele>
        <time>2025-02-06T14:52:40Z</time>
      </trkpt>
      <trkpt lat="45.12777" lon="5.9054">
        <ele>2106.409</ele>
        <time>2025-02-06T14:52:42Z</time>
      </trkpt>
      <trkpt lat="45.12781" lon="5.90526">
        <ele>2103.191</ele>
        <time>2025-02-06T14:52:44Z</time>
      </trkpt>
      <trkpt lat="45.12791" lon="5.90522">
        <ele>2101.488</ele>
        <time>2025-02-06T14:52:46Z</time>
      </trkpt>
      <trkpt lat="45.12802" lon="5.90518">
        <ele>2099.324</ele>
        <time>2025-02-06T14:52:48Z</time>
      </trkpt>
      <trkpt lat="45.12799" lon="5.905">
        <ele>2097.797</ele>
        <time>2025-02-06T14:52:50Z</time>
      </trkpt>
      <trkpt lat="45.12801" lon="5.90484">
        <ele>2093.866</ele>
        <time>2025-02-06T14:52:52Z</time>
      </trkpt>
      <trkpt lat="45.12811" lon="5.90474">
        <ele>2093.906</ele>
        <time>2025-02-06T14:52:54Z</time>
      </trkpt>
      <trkpt lat="45.12814" lon="5.90466">
        <ele>2089.344</ele>
        <time>2025-02-06T14:52:56Z</time>
      </trkpt>
      <trkpt lat="45.12814" lon="5.90456">
        <ele>2088.717</ele>
        <time>2025-02-06T14:52:58Z</time>
      </trkpt>
      <trkpt lat="45.12824" lon="5.90449">
        <ele>2085.944</ele>
        <time>2025-02-06T14:53:00Z</time>
      </trkpt>
      <trkpt lat="45.12827" lon="5.90435">
        <ele>2080.212</ele>
        <time>2025-02-06T14:53:02Z</time>
      </trkpt>
      <trkpt lat="45.12827" lon="5.90429">
        <ele>2080.164</ele>
        <time>2025-02-06T14:53:05Z</time>
      </trkpt>
      <trkpt lat="45.12829" lon="5.90424">
        <ele>2078.323</ele>
        <time>2025-02-06T14:53:20Z</time>
      </trkpt>
      <trkpt lat="45.12833" lon="5.90416">
        <ele>2076.434</ele>
        <time>2025-02-06T14:53:23Z</time>
      </trkpt>
      <trkpt lat="45.1284" lon="5.90413">
        <ele>2073.713</ele>
        <time>2025-02-06T14:53:25Z</time>
      </trkpt>
      <trkpt lat="45.12844" lon="5.904">
        <ele>2070.954</ele>
        <time>2025-02-06T14:53:27Z</time>
      </trkpt>
      <trkpt lat="45.12853" lon="5.90398">
        <ele>2067.821</ele>
        <time>2025-02-06T14:53:29Z</time>
      </trkpt>
      <trkpt lat="45.12858" lon="5.90386">
        <ele>2066.204</ele>
        <time>2025-02-06T14:53:31Z</time>
      </trkpt>
      <trkpt lat="45.12858" lon="5.9038">
        <ele>2064.146</ele>
        <time>2025-02-06T14:53:33Z</time>
      </trkpt>
      <trkpt lat="45.12863" lon="5.90379">
        <ele>2062.753</ele>
        <time>2025-02-06T14:53:38Z</time>
      </trkpt>
      <trkpt lat="45.12869" lon="5.90383">
        <ele>2062.106</ele>
        <time>2025-02-06T14:53:40Z</time>
      </trkpt>
      <trkpt lat="45.12874" lon="5.90385">
        <ele>2061.653</ele>
        <time>2025-02-06T14:53:42Z</time>
      </trkpt>
      <trkpt lat="45.12879" lon="5.90386">
        <ele>2061.047</ele>
        <time>2025-02-06T14:53:45Z</time>
      </trkpt>
      <trkpt lat="45.12886" lon="5.90385">
        <ele>2058.865</ele>
        <time>2025-02-06T14:53:47Z</time>
      </trkpt>
      <trkpt lat="45.12888" lon="5.90383">
        <ele>2054.719</ele>
        <time>2025-02-06T14:53:52Z</time>
      </trkpt>
      <trkpt lat="45.12891" lon="5.9038">
        <ele>2051.639</ele>
        <time>2025-02-06T14:53:56Z</time>
      </trkpt>
      <trkpt lat="45.12895" lon="5.90375">
        <ele>2049.099</ele>
        <time>2025-02-06T14:54:00Z</time>
      </trkpt>
      <trkpt lat="45.12901" lon="5.90373">
        <ele>2045.994</ele>
        <time>2025-02-06T14:54:03Z</time>
      </trkpt>
      <trkpt lat="45.12906" lon="5.90372">
        <ele>2043.486</ele>
        <time>2025-02-06T14:54:06Z</time>
      </trkpt>
      <trkpt lat="45.12911" lon="5.90371">
        <ele>2039.937</ele>
        <time>2025-02-06T14:54:08Z</time>
      </trkpt>
      <trkpt lat="45.12915" lon="5.90372">
        <ele>2039.419</ele>
        <time>2025-02-06T14:54:10Z</time>
      </trkpt>
      <trkpt lat="45.12918" lon="5.90365">
        <ele>2041.405</ele>
        <time>2025-02-06T14:54:27Z</time>
      </trkpt>
      <trkpt lat="45.12916" lon="5.90356">
        <ele>2041.691</ele>
        <time>2025-02-06T14:54:30Z</time>
      </trkpt>
      <trkpt lat="45.12913" lon="5.90349">
        <ele>2040.976</ele>
        <time>2025-02-06T14:54:33Z</time>
      </trkpt>
      <trkpt lat="45.12915" lon="5.90346">
        <ele>2036.488</ele>
        <time>2025-02-06T14:54:42Z</time>
      </trkpt>
      <trkpt lat="45.12926" lon="5.90347">
        <ele>2034.812</ele>
        <time>2025-02-06T14:54:44Z</time>
      </trkpt>
      <trkpt lat="45.12933" lon="5.90346">
        <ele>2033.13</ele>
        <time>2025-02-06T14:54:46Z</time>
      </trkpt>
      <trkpt lat="45.12935" lon="5.90346">
        <ele>2031.311</ele>
        <time>2025-02-06T14:55:06Z</time>
      </trkpt>
      <trkpt lat="45.12937" lon="5.90344">
        <ele>2025.669</ele>
        <time>2025-02-06T14:55:23Z</time>
      </trkpt>
      <trkpt lat="45.12936" lon="5.90333">
        <ele>2020.14</ele>
        <time>2025-02-06T14:55:25Z</time>
      </trkpt>
      <trkpt lat="45.12934" lon="5.90324">
        <ele>2019.348</ele>
        <time>2025-02-06T14:55:27Z</time>
      </trkpt>
      <trkpt lat="45.12932" lon="5.90317">
        <ele>2019.144</ele>
        <time>2025-02-06T14:55:29Z</time>
      </trkpt>
      <trkpt lat="45.12934" lon="5.90309">
        <ele>2016.121</ele>
        <time>2025-02-06T14:55:32Z</time>
      </trkpt>
      <trkpt lat="45.12943" lon="5.90311">
        <ele>2015.052</ele>
        <time>2025-02-06T14:55:34Z</time>
      </trkpt>
      <trkpt lat="45.12947" lon="5.90314">
        <ele>2015.064</ele>
        <time>2025-02-06T14:55:36Z</time>
      </trkpt>
      <trkpt lat="45.1295" lon="5.90314">
        <ele>2010.312</ele>
        <time>2025-02-06T14:55:48Z</time>
      </trkpt>
      <trkpt lat="45.12954" lon="5.90309">
        <ele>2007.318</ele>
        <time>2025-02-06T14:55:51Z</time>
      </trkpt>
      <trkpt lat="45.12954" lon="5.90301">
        <ele>2004.475</ele>
        <time>2025-02-06T14:55:53Z</time>
      </trkpt>
      <trkpt lat="45.12952" lon="5.90294">
        <ele>2004.449</ele>
        <time>2025-02-06T14:55:55Z</time>
      </trkpt>
      <trkpt lat="45.12957" lon="5.90288">
        <ele>2002.97</ele>
        <time>2025-02-06T14:55:57Z</time>
      </trkpt>
      <trkpt lat="45.12963" lon="5.9029">
        <ele>2001.862</ele>
        <time>2025-02-06T14:55:59Z</time>
      </trkpt>
      <trkpt lat="45.1297" lon="5.9029">
        <ele>2001.373</ele>
        <time>2025-02-06T14:56:01Z</time>
      </trkpt>
      <trkpt lat="45.12971" lon="5.9028">
        <ele>1995.649</ele>
        <time>2025-02-06T14:56:03Z</time>
      </trkpt>
      <trkpt lat="45.12969" lon="5.90273">
        <ele>1991.33</ele>
        <time>2025-02-06T14:56:05Z</time>
      </trkpt>
      <trkpt lat="45.12967" lon="5.90265">
        <ele>1990.253</ele>
        <time>2025-02-06T14:56:07Z</time>
      </trkpt>
      <trkpt lat="45.12971" lon="5.90256">
        <ele>1986.25</ele>
        <time>2025-02-06T14:56:09Z</time>
      </trkpt>
      <trkpt lat="45.12977" lon="5.90256">
        <ele>1983.89</ele>
        <time>2025-02-06T14:56:11Z</time>
      </trkpt>
      <trkpt lat="45.12981" lon="5.90255">
        <ele>1983.006</ele>
        <time>2025-02-06T14:56:13Z</time>
      </trkpt>
      <trkpt lat="45.12982" lon="5.90245">
        <ele>1979.401</ele>
        <time>2025-02-06T14:56:15Z</time>
      </trkpt>
      <trkpt lat="45.1298" lon="5.90238">
        <ele>1977.957</ele>
        <time>2025-02-06T14:56:17Z</time>
      </trkpt>
      <trkpt lat="45.12982" lon="5.90233">
        <ele>1975.695</ele>
        <time>2025-02-06T14:56:25Z</time>
      </trkpt>
      <trkpt lat="45.12984" lon="5.90221">
        <ele>1975.771</ele>
        <time>2025-02-06T14:56:27Z</time>
      </trkpt>
      <trkpt lat="45.12983" lon="5.90206">
        <ele>1974.148</ele>
        <time>2025-02-06T14:56:29Z</time>
      </trkpt>
      <trkpt lat="45.1298" lon="5.90192">
        <ele>1972.429</ele>
        <time>2025-02-06T14:56:31Z</time>
      </trkpt>
      <trkpt lat="45.12981" lon="5.90178">
        <ele>1971.151</ele>
        <time>2025-02-06T14:56:33Z</time>
      </trkpt>
      <trkpt lat="45.12979" lon="5.90158">
        <ele>1969.011</ele>
        <time>2025-02-06T14:56:35Z</time>
      </trkpt>
      <trkpt lat="45.12975" lon="5.90135">
        <ele>1967.63</ele>
        <time>2025-02-06T14:56:37Z</time>
      </trkpt>
      <trkpt lat="45.12973" lon="5.90113">
        <ele>1967.701</ele>
        <time>2025-02-06T14:56:39Z</time>
      </trkpt>
      <trkpt lat="45.12972" lon="5.90091">
        <ele>1965.519</ele>
        <time>2025-02-06T14:56:41Z</time>
      </trkpt>
      <trkpt lat="45.12973" lon="5.90073">
        <ele>1962.739</ele>
        <time>2025-02-06T14:56:43Z</time>
      </trkpt>
      <trkpt lat="45.12975" lon="5.90056">
        <ele>1961.058</ele>
        <time>2025-02-06T14:56:45Z</time>
      </trkpt>
      <trkpt lat="45.12976" lon="5.9004">
        <ele>1962.646</ele>
        <time>2025-02-06T14:56:47Z</time>
      </trkpt>
      <trkpt lat="45.12976" lon="5.90026">
        <ele>1964.137</ele>
        <time>2025-02-06T14:56:49Z</time>
      </trkpt>
      <trkpt lat="45.12977" lon="5.90024">
        <ele>1964.985</ele>
        <time>2025-02-06T14:57:10Z</time>
      </trkpt>
      <trkpt lat="45.12978" lon="5.90024">
        <ele>1965.574</ele>
        <time>2025-02-06T14:57:31Z</time>
      </trkpt>
      <trkpt lat="45.12982" lon="5.9002">
        <ele>1964.272</ele>
        <time>2025-02-06T14:57:47Z</time>
      </trkpt>
      <trkpt lat="45.12981" lon="5.9001">
        <ele>1961.924</ele>
        <time>2025-02-06T14:57:50Z</time>
      </trkpt>
      <trkpt lat="45.12984" lon="5.9">
        <ele>1961.106</ele>
        <time>2025-02-06T14:57:52Z</time>
      </trkpt>
      <trkpt lat="45.12988" lon="5.8999">
        <ele>1958.533</ele>
        <time>2025-02-06T14:57:54Z</time>
      </trkpt>
      <trkpt lat="45.12996" lon="5.89974">
        <ele>1956.975</ele>
        <time>2025-02-06T14:57:56Z</time>
      </trkpt>
      <trkpt lat="45.12996" lon="5.89963">
        <ele>1957.181</ele>
        <time>2025-02-06T14:57:58Z</time>
      </trkpt>
      <trkpt lat="45.12997" lon="5.89952">
        <ele>1956.633</ele>
        <time>2025-02-06T14:58:00Z</time>
      </trkpt>
      <trkpt lat="45.12999" lon="5.89948">
        <ele>1955.294</ele>
        <time>2025-02-06T14:58:20Z</time>
      </trkpt>
      <trkpt lat="45.12999" lon="5.89949">
        <ele>1955.339</ele>
        <time>2025-02-06T14:58:41Z</time>
      </trkpt>
      <trkpt lat="45.13" lon="5.89949">
        <ele>1955.488</ele>
        <time>2025-02-06T14:59:01Z</time>
      </trkpt>
      <trkpt lat="45.13001" lon="5.89948">
        <ele>1954.746</ele>
        <time>2025-02-06T14:59:21Z</time>
      </trkpt>
      <trkpt lat="45.13006" lon="5.89951">
        <ele>1953.713</ele>
        <time>2025-02-06T14:59:31Z</time>
      </trkpt>
      <trkpt lat="45.1301" lon="5.89949">
        <ele>1952.072</ele>
        <time>2025-02-06T14:59:33Z</time>
      </trkpt>
      <trkpt lat="45.13012" lon="5.89937">
        <ele>1950.694</ele>
        <time>2025-02-06T14:59:35Z</time>
      </trkpt>
      <trkpt lat="45.13015" lon="5.89928">
        <ele>1950.114</ele>
        <time>2025-02-06T14:59:37Z</time>
      </trkpt>
      <trkpt lat="45.13018" lon="5.89922">
        <ele>1949.576</ele>
        <time>2025-02-06T14:59:39Z</time>
      </trkpt>
      <trkpt lat="45.13021" lon="5.89916">
        <ele>1947.735</ele>
        <time>2025-02-06T14:59:42Z</time>
      </trkpt>
      <trkpt lat="45.1302" lon="5.89908">
        <ele>1944.932</ele>
        <time>2025-02-06T14:59:44Z</time>
      </trkpt>
      <trkpt lat="45.13022" lon="5.89899">
        <ele>1944.343</ele>
        <time>2025-02-06T14:59:47Z</time>
      </trkpt>
      <trkpt lat="45.1302" lon="5.89893">
        <ele>1941.746</ele>
        <time>2025-02-06T14:59:50Z</time>
      </trkpt>
      <trkpt lat="45.13016" lon="5.89889">
        <ele>1939.261</ele>
        <time>2025-02-06T14:59:53Z</time>
      </trkpt>
      <trkpt lat="45.13013" lon="5.89882">
        <ele>1937.726</ele>
        <time>2025-02-06T14:59:56Z</time>
      </trkpt>
      <trkpt lat="45.13013" lon="5.89876">
        <ele>1934.666</ele>
        <time>2025-02-06T14:59:59Z</time>
      </trkpt>
      <trkpt lat="45.13019" lon="5.89873">
        <ele>1933.045</ele>
        <time>2025-02-06T15:00:02Z</time>
      </trkpt>
      <trkpt lat="45.13023" lon="5.8987">
        <ele>1931.597</ele>
        <time>2025-02-06T15:00:05Z</time>
      </trkpt>
      <trkpt lat="45.13029" lon="5.89869">
        <ele>1930.407</ele>
        <time>2025-02-06T15:00:16Z</time>
      </trkpt>
      <trkpt lat="45.13034" lon="5.89872">
        <ele>1930.372</ele>
        <time>2025-02-06T15:00:20Z</time>
      </trkpt>
      <trkpt lat="45.13033" lon="5.89864">
        <ele>1927.436</ele>
        <time>2025-02-06T15:00:27Z</time>
      </trkpt>
      <trkpt lat="45.13029" lon="5.89857">
        <ele>1924.97</ele>
        <time>2025-02-06T15:00:30Z</time>
      </trkpt>
      <trkpt lat="45.13026" lon="5.89851">
        <ele>1922.836</ele>
        <time>2025-02-06T15:00:32Z</time>
      </trkpt>
      <trkpt lat="45.13024" lon="5.89844">
        <ele>1920.783</ele>
        <time>2025-02-06T15:00:34Z</time>
      </trkpt>
      <trkpt lat="45.13021" lon="5.89838">
        <ele>1920.052</ele>
        <time>2025-02-06T15:00:36Z</time>
      </trkpt>
      <trkpt lat="45.1302" lon="5.89833">
        <ele>1917.098</ele>
        <time>2025-02-06T15:00:41Z</time>
      </trkpt>
      <trkpt lat="45.13017" lon="5.89828">
        <ele>1915.02</ele>
        <time>2025-02-06T15:00:43Z</time>
      </trkpt>
      <trkpt lat="45.13014" lon="5.89824">
        <ele>1912.066</ele>
        <time>2025-02-06T15:00:47Z</time>
      </trkpt>
      <trkpt lat="45.1301" lon="5.89821">
        <ele>1910.403</ele>
        <time>2025-02-06T15:00:50Z</time>
      </trkpt>
      <trkpt lat="45.13007" lon="5.89812">
        <ele>1909.047</ele>
        <time>2025-02-06T15:00:53Z</time>
      </trkpt>
      <trkpt lat="45.1301" lon="5.89807">
        <ele>1907.427</ele>
        <time>2025-02-06T15:00:56Z</time>
      </trkpt>
      <trkpt lat="45.13009" lon="5.89799">
        <ele>1905.431</ele>
        <time>2025-02-06T15:00:59Z</time>
      </trkpt>
      <trkpt lat="45.13007" lon="5.89792">
        <ele>1904.701</ele>
        <time>2025-02-06T15:01:01Z</time>
      </trkpt>
      <trkpt lat="45.13005" lon="5.89785">
        <ele>1903.387</ele>
        <time>2025-02-06T15:01:03Z</time>
      </trkpt>
      <trkpt lat="45.13005" lon="5.89776">
        <ele>1900.95</ele>
        <time>2025-02-06T15:01:05Z</time>
      </trkpt>
      <trkpt lat="45.13011" lon="5.89772">
        <ele>1900.712</ele>
        <time>2025-02-06T15:01:07Z</time>
      </trkpt>
      <trkpt lat="45.13012" lon="5.89763">
        <ele>1899.914</ele>
        <time>2025-02-06T15:01:09Z</time>
      </trkpt>
      <trkpt lat="45.13016" lon="5.89753">
        <ele>1896.686</ele>
        <time>2025-02-06T15:01:11Z</time>
      </trkpt>
      <trkpt lat="45.13013" lon="5.89745">
        <ele>1896.136</ele>
        <time>2025-02-06T15:01:21Z</time>
      </trkpt>
      <trkpt lat="45.13015" lon="5.89737">
        <ele>1893.33</ele>
        <time>2025-02-06T15:01:23Z</time>
      </trkpt>
      <trkpt lat="45.13014" lon="5.89727">
        <ele>1892.048</ele>
        <time>2025-02-06T15:01:25Z</time>
      </trkpt>
      <trkpt lat="45.13016" lon="5.89718">
        <ele>1891.463</ele>
        <time>2025-02-06T15:01:27Z</time>
      </trkpt>
      <trkpt lat="45.13017" lon="5.89705">
        <ele>1889.767</ele>
        <time>2025-02-06T15:01:29Z</time>
      </trkpt>
      <trkpt lat="45.13015" lon="5.89695">
        <ele>1887.342</ele>
        <time>2025-02-06T15:01:31Z</time>
      </trkpt>
      <trkpt lat="45.13019" lon="5.89682">
        <ele>1884.902</ele>
        <time>2025-02-06T15:01:33Z</time>
      </trkpt>
      <trkpt lat="45.13019" lon="5.89671">
        <ele>1884.09</ele>
        <time>2025-02-06T15:01:35Z</time>
      </trkpt>
      <trkpt lat="45.13019" lon="5.89663">
        <ele>1883.04</ele>
        <time>2025-02-06T15:01:38Z</time>
      </trkpt>
      <trkpt lat="45.13021" lon="5.89656">
        <ele>1881.087</ele>
        <time>2025-02-06T15:01:40Z</time>
      </trkpt>
      <trkpt lat="45.13024" lon="5.89645">
        <ele>1878.852</ele>
        <time>2025-02-06T15:01:42Z</time>
      </trkpt>
      <trkpt lat="45.13026" lon="5.89631">
        <ele>1877.003</ele>
        <time>2025-02-06T15:01:44Z</time>
      </trkpt>
      <trkpt lat="45.13028" lon="5.89611">
        <ele>1875.987</ele>
        <time>2025-02-06T15:01:46Z</time>
      </trkpt>
      <trkpt lat="45.13027" lon="5.89593">
        <ele>1874.497</ele>
        <time>2025-02-06T15:01:48Z</time>
      </trkpt>
      <trkpt lat="45.13027" lon="5.89576">
        <ele>1874.243</ele>
        <time>2025-02-06T15:01:50Z</time>
      </trkpt>
      <trkpt lat="45.13021" lon="5.89569">
        <ele>1873.993</ele>
        <time>2025-02-06T15:01:52Z</time>
      </trkpt>
      <trkpt lat="45.1302" lon="5.89562">
        <ele>1872.577</ele>
        <time>2025-02-06T15:01:54Z</time>
      </trkpt>
      <trkpt lat="45.13019" lon="5.89553">
        <ele>1871.204</ele>
        <time>2025-02-06T15:02:02Z</time>
      </trkpt>
      <trkpt lat="45.13017" lon="5.89541">
        <ele>1870.121</ele>
        <time>2025-02-06T15:02:04Z</time>
      </trkpt>
      <trkpt lat="45.13019" lon="5.89533">
        <ele>1868.395</ele>
        <time>2025-02-06T15:02:06Z</time>
      </trkpt>
      <trkpt lat="45.13019" lon="5.89525">
        <ele>1866.648</ele>
        <time>2025-02-06T15:02:08Z</time>
      </trkpt>
      <trkpt lat="45.1302" lon="5.89517">
        <ele>1867.168</ele>
        <time>2025-02-06T15:02:10Z</time>
      </trkpt>
      <trkpt lat="45.13017" lon="5.89515">
        <ele>1863.947</ele>
        <time>2025-02-06T15:02:12Z</time>
      </trkpt>
      <trkpt lat="45.13012" lon="5.89509">
        <ele>1860.687</ele>
        <time>2025-02-06T15:02:14Z</time>
      </trkpt>
      <trkpt lat="45.13013" lon="5.89501">
        <ele>1859.154</ele>
        <time>2025-02-06T15:02:16Z</time>
      </trkpt>
      <trkpt lat="45.13007" lon="5.89493">
        <ele>1857.815</ele>
        <time>2025-02-06T15:02:18Z</time>
      </trkpt>
      <trkpt lat="45.13007" lon="5.89484">
        <ele>1857.288</ele>
        <time>2025-02-06T15:02:20Z</time>
      </trkpt>
      <trkpt lat="45.13007" lon="5.89474">
        <ele>1854.393</ele>
        <time>2025-02-06T15:02:22Z</time>
      </trkpt>
      <trkpt lat="45.13003" lon="5.89469">
        <ele>1851.169</ele>
        <time>2025-02-06T15:02:24Z</time>
      </trkpt>
      <trkpt lat="45.13002" lon="5.89459">
        <ele>1849.049</ele>
        <time>2025-02-06T15:02:38Z</time>
      </trkpt>
      <trkpt lat="45.13001" lon="5.89446">
        <ele>1848.308</ele>
        <time>2025-02-06T15:02:40Z</time>
      </trkpt>
      <trkpt lat="45.12999" lon="5.89441">
        <ele>1845.041</ele>
        <time>2025-02-06T15:02:42Z</time>
      </trkpt>
      <trkpt lat="45.12991" lon="5.89439">
        <ele>1842.222</ele>
        <time>2025-02-06T15:02:44Z</time>
      </trkpt>
      <trkpt lat="45.12991" lon="5.89429">
        <ele>1840.645</ele>
        <time>2025-02-06T15:02:46Z</time>
      </trkpt>
      <trkpt lat="45.1299" lon="5.89421">
        <ele>1838.53</ele>
        <time>2025-02-06T15:02:48Z</time>
      </trkpt>
      <trkpt lat="45.12984" lon="5.89414">
        <ele>1834.494</ele>
        <time>2025-02-06T15:02:50Z</time>
      </trkpt>
      <trkpt lat="45.12988" lon="5.89406">
        <ele>1832.882</ele>
        <time>2025-02-06T15:02:52Z</time>
      </trkpt>
      <trkpt lat="45.12989" lon="5.89393">
        <ele>1829.981</ele>
        <time>2025-02-06T15:02:54Z</time>
      </trkpt>
      <trkpt lat="45.12987" lon="5.89372">
        <ele>1827.846</ele>
        <time>2025-02-06T15:02:56Z</time>
      </trkpt>
      <trkpt lat="45.12981" lon="5.89351">
        <ele>1828.291</ele>
        <time>2025-02-06T15:02:58Z</time>
      </trkpt>
      <trkpt lat="45.12989" lon="5.89343">
        <ele>1826.079</ele>
        <time>2025-02-06T15:03:00Z</time>
      </trkpt>
      <trkpt lat="45.12992" lon="5.89328">
        <ele>1823.242</ele>
        <time>2025-02-06T15:03:02Z</time>
      </trkpt>
      <trkpt lat="45.12994" lon="5.89311">
        <ele>1821.624</ele>
        <time>2025-02-06T15:03:04Z</time>
      </trkpt>
      <trkpt lat="45.12999" lon="5.893">
        <ele>1821.51</ele>
        <time>2025-02-06T15:03:06Z</time>
      </trkpt>
      <trkpt lat="45.12998" lon="5.89292">
        <ele>1820.972</ele>
        <time>2025-02-06T15:03:20Z</time>
      </trkpt>
      <trkpt lat="45.13" lon="5.89285">
        <ele>1820.706</ele>
        <time>2025-02-06T15:03:24Z</time>
      </trkpt>
      <trkpt lat="45.13003" lon="5.89279">
        <ele>1819.309</ele>
        <time>2025-02-06T15:03:26Z</time>
      </trkpt>
      <trkpt lat="45.13005" lon="5.89272">
        <ele>1818.803</ele>
        <time>2025-02-06T15:03:31Z</time>
      </trkpt>
      <trkpt lat="45.13001" lon="5.89266">
        <ele>1816.869</ele>
        <time>2025-02-06T15:03:35Z</time>
      </trkpt>
      <trkpt lat="45.13002" lon="5.89261">
        <ele>1815.083</ele>
        <time>2025-02-06T15:03:37Z</time>
      </trkpt>
      <trkpt lat="45.13007" lon="5.89257">
        <ele>1815.164</ele>
        <time>2025-02-06T15:03:39Z</time>
      </trkpt>
      <trkpt lat="45.13002" lon="5.89251">
        <ele>1813.351</ele>
        <time>2025-02-06T15:03:41Z</time>
      </trkpt>
      <trkpt lat="45.12997" lon="5.89248">
        <ele>1812.417</ele>
        <time>2025-02-06T15:03:43Z</time>
      </trkpt>
      <trkpt lat="45.12993" lon="5.89244">
        <ele>1810.851</ele>
        <time>2025-02-06T15:03:45Z</time>
      </trkpt>
      <trkpt lat="45.1299" lon="5.89238">
        <ele>1808.79</ele>
        <time>2025-02-06T15:03:47Z</time>
      </trkpt>
      <trkpt lat="45.12988" lon="5.89231">
        <ele>1806.473</ele>
        <time>2025-02-06T15:03:49Z</time>
      </trkpt>
      <trkpt lat="45.12995" lon="5.8923">
        <ele>1805.326</ele>
        <time>2025-02-06T15:03:51Z</time>
      </trkpt>
      <trkpt lat="45.13" lon="5.89228">
        <ele>1803.428</ele>
        <time>2025-02-06T15:03:53Z</time>
      </trkpt>
      <trkpt lat="45.13002" lon="5.89222">
        <ele>1801.219</ele>
        <time>2025-02-06T15:04:05Z</time>
      </trkpt>
      <trkpt lat="45.12995" lon="5.8921">
        <ele>1799.734</ele>
        <time>2025-02-06T15:04:07Z</time>
      </trkpt>
      <trkpt lat="45.1299" lon="5.89204">
        <ele>1799.17</ele>
        <time>2025-02-06T15:04:09Z</time>
      </trkpt>
      <trkpt lat="45.12985" lon="5.89202">
        <ele>1796.659</ele>
        <time>2025-02-06T15:04:11Z</time>
      </trkpt>
      <trkpt lat="45.12983" lon="5.89197">
        <ele>1792.604</ele>
        <time>2025-02-06T15:04:15Z</time>
      </trkpt>
      <trkpt lat="45.12982" lon="5.89187">
        <ele>1789.946</ele>
        <time>2025-02-06T15:04:17Z</time>
      </trkpt>
      <trkpt lat="45.12985" lon="5.89177">
        <ele>1787.52</ele>
        <time>2025-02-06T15:04:19Z</time>
      </trkpt>
      <trkpt lat="45.12978" lon="5.89167">
        <ele>1784.818</ele>
        <time>2025-02-06T15:04:21Z</time>
      </trkpt>
      <trkpt lat="45.1298" lon="5.89161">
        <ele>1783.025</ele>
        <time>2025-02-06T15:04:23Z</time>
      </trkpt>
      <trkpt lat="45.12976" lon="5.89155">
        <ele>1782.884</ele>
        <time>2025-02-06T15:04:32Z</time>
      </trkpt>
      <trkpt lat="45.12976" lon="5.89141">
        <ele>1780.298</ele>
        <time>2025-02-06T15:04:34Z</time>
      </trkpt>
      <trkpt lat="45.12982" lon="5.89136">
        <ele>1777.74</ele>
        <time>2025-02-06T15:04:36Z</time>
      </trkpt>
      <trkpt lat="45.12987" lon="5.89138">
        <ele>1774.766</ele>
        <time>2025-02-06T15:04:39Z</time>
      </trkpt>
      <trkpt lat="45.12992" lon="5.89141">
        <ele>1774.609</ele>
        <time>2025-02-06T15:04:41Z</time>
      </trkpt>
      <trkpt lat="45.12998" lon="5.89145">
        <ele>1773.668</ele>
        <time>2025-02-06T15:04:43Z</time>
      </trkpt>
      <trkpt lat="45.13003" lon="5.89144">
        <ele>1774.172</ele>
        <time>2025-02-06T15:04:45Z</time>
      </trkpt>
      <trkpt lat="45.13003" lon="5.89138">
        <ele>1771.698</ele>
        <time>2025-02-06T15:04:47Z</time>
      </trkpt>
      <trkpt lat="45.13" lon="5.8913">
        <ele>1768.914</ele>
        <time>2025-02-06T15:04:49Z</time>
      </trkpt>
      <trkpt lat="45.12997" lon="5.89121">
        <ele>1765.11</ele>
        <time>2025-02-06T15:04:51Z</time>
      </trkpt>
      <trkpt lat="45.13003" lon="5.89113">
        <ele>1763.167</ele>
        <time>2025-02-06T15:04:53Z</time>
      </trkpt>
      <trkpt lat="45.13007" lon="5.89106">
        <ele>1760.702</ele>
        <time>2025-02-06T15:05:12Z</time>
      </trkpt>
      <trkpt lat="45.13004" lon="5.89096">
        <ele>1759.025</ele>
        <time>2025-02-06T15:05:14Z</time>
      </trkpt>
      <trkpt lat="45.12997" lon="5.89085">
        <ele>1757.805</ele>
        <time>2025-02-06T15:05:16Z</time>
      </trkpt>
      <trkpt lat="45.13001" lon="5.89074">
        <ele>1755.116</ele>
        <time>2025-02-06T15:05:18Z</time>
      </trkpt>
      <trkpt lat="45.12997" lon="5.8906">
        <ele>1752.005</ele>
        <time>2025-02-06T15:05:20Z</time>
      </trkpt>
      <trkpt lat="45.12994" lon="5.89043">
        <ele>1749.446</ele>
        <time>2025-02-06T15:05:22Z</time>
      </trkpt>
      <trkpt lat="45.12995" lon="5.8903">
        <ele>1747.932</ele>
        <time>2025-02-06T15:05:24Z</time>
      </trkpt>
      <trkpt lat="45.12994" lon="5.89018">
        <ele>1748.093</ele>
        <time>2025-02-06T15:05:26Z</time>
      </trkpt>
      <trkpt lat="45.12991" lon="5.89007">
        <ele>1746.419</ele>
        <time>2025-02-06T15:05:28Z</time>
      </trkpt>
      <trkpt lat="45.12988" lon="5.88992">
        <ele>1746.026</ele>
        <time>2025-02-06T15:05:30Z</time>
      </trkpt>
      <trkpt lat="45.12988" lon="5.88977">
        <ele>1744.482</ele>
        <time>2025-02-06T15:05:32Z</time>
      </trkpt>
      <trkpt lat="45.12993" lon="5.88964">
        <ele>1743.452</ele>
        <time>2025-02-06T15:05:34Z</time>
      </trkpt>
      <trkpt lat="45.12997" lon="5.88951">
        <ele>1744.043</ele>
        <time>2025-02-06T15:05:36Z</time>
      </trkpt>
      <trkpt lat="45.13004" lon="5.88938">
        <ele>1743.15</ele>
        <time>2025-02-06T15:05:38Z</time>
      </trkpt>
      <trkpt lat="45.1301" lon="5.88928">
        <ele>1742.922</ele>
        <time>2025-02-06T15:05:40Z</time>
      </trkpt>
      <trkpt lat="45.13013" lon="5.88925">
        <ele>1743.365</ele>
        <time>2025-02-06T15:06:00Z</time>
      </trkpt>
      <trkpt lat="45.13018" lon="5.88922">
        <ele>1742.125</ele>
        <time>2025-02-06T15:06:11Z</time>
      </trkpt>
      <trkpt lat="45.13023" lon="5.88918">
        <ele>1741.579</ele>
        <time>2025-02-06T15:06:13Z</time>
      </trkpt>
      <trkpt lat="45.13028" lon="5.88913">
        <ele>1740.952</ele>
        <time>2025-02-06T15:06:15Z</time>
      </trkpt>
      <trkpt lat="45.13033" lon="5.8891">
        <ele>1741.895</ele>
        <time>2025-02-06T15:06:17Z</time>
      </trkpt>
      <trkpt lat="45.13038" lon="5.88907">
        <ele>1741.993</ele>
        <time>2025-02-06T15:06:19Z</time>
      </trkpt>
      <trkpt lat="45.13044" lon="5.88905">
        <ele>1741.222</ele>
        <time>2025-02-06T15:06:21Z</time>
      </trkpt>
      <trkpt lat="45.13049" lon="5.88901">
        <ele>1740.419</ele>
        <time>2025-02-06T15:06:23Z</time>
      </trkpt>
      <trkpt lat="45.13055" lon="5.88896">
        <ele>1739.579</ele>
        <time>2025-02-06T15:06:25Z</time>
      </trkpt>
      <trkpt lat="45.13061" lon="5.88889">
        <ele>1739.337</ele>
        <time>2025-02-06T15:06:27Z</time>
      </trkpt>
      <trkpt lat="45.13072" lon="5.88884">
        <ele>1737.789</ele>
        <time>2025-02-06T15:06:29Z</time>
      </trkpt>
      <trkpt lat="45.13081" lon="5.88888">
        <ele>1734.797</ele>
        <time>2025-02-06T15:06:31Z</time>
      </trkpt>
      <trkpt lat="45.13089" lon="5.8888">
        <ele>1732.704</ele>
        <time>2025-02-06T15:06:33Z</time>
      </trkpt>
      <trkpt lat="45.13097" lon="5.88882">
        <ele>1729.76</ele>
        <time>2025-02-06T15:06:35Z</time>
      </trkpt>
      <trkpt lat="45.13106" lon="5.88881">
        <ele>1727.225</ele>
        <time>2025-02-06T15:06:37Z</time>
      </trkpt>
      <trkpt lat="45.13116" lon="5.88879">
        <ele>1724.706</ele>
        <time>2025-02-06T15:06:39Z</time>
      </trkpt>
      <trkpt lat="45.13125" lon="5.88883">
        <ele>1721.084</ele>
        <time>2025-02-06T15:06:41Z</time>
      </trkpt>
      <trkpt lat="45.13136" lon="5.88876">
        <ele>1717.407</ele>
        <time>2025-02-06T15:06:43Z</time>
      </trkpt>
      <trkpt lat="45.13146" lon="5.88881">
        <ele>1714.475</ele>
        <time>2025-02-06T15:06:45Z</time>
      </trkpt>
      <trkpt lat="45.13156" lon="5.88883">
        <ele>1710.603</ele>
        <time>2025-02-06T15:06:47Z</time>
      </trkpt>
      <trkpt lat="45.1317" lon="5.88888">
        <ele>1706.702</ele>
        <time>2025-02-06T15:06:49Z</time>
      </trkpt>
      <trkpt lat="45.13182" lon="5.88897">
        <ele>1704.017</ele>
        <time>2025-02-06T15:06:51Z</time>
      </trkpt>
      <trkpt lat="45.13197" lon="5.889">
        <ele>1703.159</ele>
        <time>2025-02-06T15:06:53Z</time>
      </trkpt>
      <trkpt lat="45.13211" lon="5.88906">
        <ele>1701.858</ele>
        <time>2025-02-06T15:06:55Z</time>
      </trkpt>
      <trkpt lat="45.13223" lon="5.88914">
        <ele>1701.507</ele>
        <time>2025-02-06T15:06:57Z</time>
      </trkpt>
      <trkpt lat="45.1323" lon="5.88927">
        <ele>1700.333</ele>
        <time>2025-02-06T15:06:59Z</time>
      </trkpt>
      <trkpt lat="45.13232" lon="5.8894">
        <ele>1699.986</ele>
        <time>2025-02-06T15:07:01Z</time>
      </trkpt>
      <trkpt lat="45.13236" lon="5.88948">
        <ele>1698.14</ele>
        <time>2025-02-06T15:07:03Z</time>
      </trkpt>
      <trkpt lat="45.13238" lon="5.88947">
        <ele>1698.871</ele>
        <time>2025-02-06T15:07:23Z</time>
      </trkpt>
      <trkpt lat="45.13238" lon="5.88948">
        <ele>1698.757</ele>
        <time>2025-02-06T15:07:43Z</time>
      </trkpt>
      <trkpt lat="45.13243" lon="5.8895">
        <ele>1698.098</ele>
        <time>2025-02-06T15:07:58Z</time>
      </trkpt>
      <trkpt lat="45.13247" lon="5.8896">
        <ele>1695.992</ele>
        <time>2025-02-06T15:08:00Z</time>
      </trkpt>
      <trkpt lat="45.13256" lon="5.88968">
        <ele>1696.014</ele>
        <time>2025-02-06T15:08:02Z</time>
      </trkpt>
      <trkpt lat="45.13261" lon="5.88978">
        <ele>1693.798</ele>
        <time>2025-02-06T15:08:04Z</time>
      </trkpt>
      <trkpt lat="45.1327" lon="5.88988">
        <ele>1692.25</ele>
        <time>2025-02-06T15:08:06Z</time>
      </trkpt>
      <trkpt lat="45.13279" lon="5.88995">
        <ele>1688.621</ele>
        <time>2025-02-06T15:08:08Z</time>
      </trkpt>
      <trkpt lat="45.13289" lon="5.89008">
        <ele>1685.027</ele>
        <time>2025-02-06T15:08:10Z</time>
      </trkpt>
      <trkpt lat="45.13295" lon="5.8902">
        <ele>1682.983</ele>
        <time>2025-02-06T15:08:12Z</time>
      </trkpt>
      <trkpt lat="45.13304" lon="5.89023">
        <ele>1677.844</ele>
        <time>2025-02-06T15:08:14Z</time>
      </trkpt>
      <trkpt lat="45.13314" lon="5.89022">
        <ele>1673.53</ele>
        <time>2025-02-06T15:08:16Z</time>
      </trkpt>
      <trkpt lat="45.13324" lon="5.89017">
        <ele>1668.934</ele>
        <time>2025-02-06T15:08:18Z</time>
      </trkpt>
      <trkpt lat="45.13327" lon="5.89005">
        <ele>1666.379</ele>
        <time>2025-02-06T15:08:20Z</time>
      </trkpt>
      <trkpt lat="45.13334" lon="5.88999">
        <ele>1664.412</ele>
        <time>2025-02-06T15:08:22Z</time>
      </trkpt>
      <trkpt lat="45.13337" lon="5.88991">
        <ele>1662.271</ele>
        <time>2025-02-06T15:08:24Z</time>
      </trkpt>
      <trkpt lat="45.13337" lon="5.88989">
        <ele>1662.312</ele>
        <time>2025-02-06T15:08:45Z</time>
      </trkpt>
      <trkpt lat="45.13334" lon="5.88981">
        <ele>1659.305</ele>
        <time>2025-02-06T15:08:50Z</time>
      </trkpt>
      <trkpt lat="45.13337" lon="5.88973">
        <ele>1657.371</ele>
        <time>2025-02-06T15:08:52Z</time>
      </trkpt>
      <trkpt lat="45.13336" lon="5.88965">
        <ele>1654.35</ele>
        <time>2025-02-06T15:08:54Z</time>
      </trkpt>
      <trkpt lat="45.13329" lon="5.8896">
        <ele>1654.163</ele>
        <time>2025-02-06T15:08:57Z</time>
      </trkpt>
      <trkpt lat="45.13332" lon="5.88951">
        <ele>1649.617</ele>
        <time>2025-02-06T15:08:59Z</time>
      </trkpt>
      <trkpt lat="45.13335" lon="5.88946">
        <ele>1648.422</ele>
        <time>2025-02-06T15:09:01Z</time>
      </trkpt>
      <trkpt lat="45.13336" lon="5.88938">
        <ele>1648.193</ele>
        <time>2025-02-06T15:09:08Z</time>
      </trkpt>
      <trkpt lat="45.13331" lon="5.88934">
        <ele>1647</ele>
        <time>2025-02-06T15:09:10Z</time>
      </trkpt>
      <trkpt lat="45.13328" lon="5.88928">
        <ele>1645.934</ele>
        <time>2025-02-06T15:09:12Z</time>
      </trkpt>
      <trkpt lat="45.13327" lon="5.88922">
        <ele>1644.416</ele>
        <time>2025-02-06T15:09:14Z</time>
      </trkpt>
      <trkpt lat="45.13329" lon="5.88913">
        <ele>1641.995</ele>
        <time>2025-02-06T15:09:16Z</time>
      </trkpt>
      <trkpt lat="45.13334" lon="5.88905">
        <ele>1640.363</ele>
        <time>2025-02-06T15:09:18Z</time>
      </trkpt>
      <trkpt lat="45.13337" lon="5.88898">
        <ele>1636.823</ele>
        <time>2025-02-06T15:09:27Z</time>
      </trkpt>
      <trkpt lat="45.13334" lon="5.88892">
        <ele>1634.249</ele>
        <time>2025-02-06T15:09:31Z</time>
      </trkpt>
      <trkpt lat="45.13331" lon="5.88883">
        <ele>1632.837</ele>
        <time>2025-02-06T15:09:33Z</time>
      </trkpt>
      <trkpt lat="45.13325" lon="5.88873">
        <ele>1631.111</ele>
        <time>2025-02-06T15:09:35Z</time>
      </trkpt>
      <trkpt lat="45.1332" lon="5.88865">
        <ele>1630.899</ele>
        <time>2025-02-06T15:09:37Z</time>
      </trkpt>
      <trkpt lat="45.13324" lon="5.88855">
        <ele>1628.977</ele>
        <time>2025-02-06T15:09:39Z</time>
      </trkpt>
      <trkpt lat="45.1333" lon="5.88844">
        <ele>1627.285</ele>
        <time>2025-02-06T15:09:41Z</time>
      </trkpt>
      <trkpt lat="45.13327" lon="5.88832">
        <ele>1626.495</ele>
        <time>2025-02-06T15:09:43Z</time>
      </trkpt>
      <trkpt lat="45.13325" lon="5.88818">
        <ele>1625.554</ele>
        <time>2025-02-06T15:09:45Z</time>
      </trkpt>
      <trkpt lat="45.13323" lon="5.88803">
        <ele>1624.476</ele>
        <time>2025-02-06T15:09:47Z</time>
      </trkpt>
      <trkpt lat="45.13322" lon="5.8879">
        <ele>1622.163</ele>
        <time>2025-02-06T15:09:49Z</time>
      </trkpt>
      <trkpt lat="45.13323" lon="5.88781">
        <ele>1621.188</ele>
        <time>2025-02-06T15:09:51Z</time>
      </trkpt>
      <trkpt lat="45.13331" lon="5.8878">
        <ele>1619.52</ele>
        <time>2025-02-06T15:09:56Z</time>
      </trkpt>
      <trkpt lat="45.13336" lon="5.88786">
        <ele>1619.004</ele>
        <time>2025-02-06T15:09:58Z</time>
      </trkpt>
      <trkpt lat="45.13343" lon="5.8879">
        <ele>1616.752</ele>
        <time>2025-02-06T15:10:00Z</time>
      </trkpt>
      <trkpt lat="45.13345" lon="5.88787">
        <ele>1615.868</ele>
        <time>2025-02-06T15:10:21Z</time>
      </trkpt>
      <trkpt lat="45.13352" lon="5.88787">
        <ele>1613.702</ele>
        <time>2025-02-06T15:10:34Z</time>
      </trkpt>
      <trkpt lat="45.13361" lon="5.88787">
        <ele>1611.085</ele>
        <time>2025-02-06T15:10:36Z</time>
      </trkpt>
      <trkpt lat="45.1337" lon="5.88783">
        <ele>1608.36</ele>
        <time>2025-02-06T15:10:38Z</time>
      </trkpt>
      <trkpt lat="45.13378" lon="5.88789">
        <ele>1605.957</ele>
        <time>2025-02-06T15:10:40Z</time>
      </trkpt>
      <trkpt lat="45.13386" lon="5.88794">
        <ele>1602.707</ele>
        <time>2025-02-06T15:10:42Z</time>
      </trkpt>
      <trkpt lat="45.13393" lon="5.88786">
        <ele>1600.456</ele>
        <time>2025-02-06T15:10:44Z</time>
      </trkpt>
      <trkpt lat="45.13397" lon="5.88776">
        <ele>1596.876</ele>
        <time>2025-02-06T15:10:46Z</time>
      </trkpt>
      <trkpt lat="45.13405" lon="5.88781">
        <ele>1593.307</ele>
        <time>2025-02-06T15:10:48Z</time>
      </trkpt>
      <trkpt lat="45.13414" lon="5.88778">
        <ele>1587.773</ele>
        <time>2025-02-06T15:10:50Z</time>
      </trkpt>
      <trkpt lat="45.13419" lon="5.88771">
        <ele>1584.523</ele>
        <time>2025-02-06T15:10:52Z</time>
      </trkpt>
      <trkpt lat="45.13426" lon="5.88769">
        <ele>1581.033</ele>
        <time>2025-02-06T15:10:54Z</time>
      </trkpt>
      <trkpt lat="45.13432" lon="5.88777">
        <ele>1578.804</ele>
        <time>2025-02-06T15:10:56Z</time>
      </trkpt>
      <trkpt lat="45.13443" lon="5.88784">
        <ele>1574.891</ele>
        <time>2025-02-06T15:10:58Z</time>
      </trkpt>
      <trkpt lat="45.13453" lon="5.88781">
        <ele>1571.958</ele>
        <time>2025-02-06T15:11:00Z</time>
      </trkpt>
      <trkpt lat="45.13462" lon="5.88782">
        <ele>1569.799</ele>
        <time>2025-02-06T15:11:02Z</time>
      </trkpt>
      <trkpt lat="45.13468" lon="5.88794">
        <ele>1566.904</ele>
        <time>2025-02-06T15:11:04Z</time>
      </trkpt>
      <trkpt lat="45.13476" lon="5.888">
        <ele>1564.661</ele>
        <time>2025-02-06T15:11:06Z</time>
      </trkpt>
      <trkpt lat="45.13485" lon="5.88792">
        <ele>1561.894</ele>
        <time>2025-02-06T15:11:08Z</time>
      </trkpt>
      <trkpt lat="45.13494" lon="5.88787">
        <ele>1559.415</ele>
        <time>2025-02-06T15:11:10Z</time>
      </trkpt>
      <trkpt lat="45.13502" lon="5.88794">
        <ele>1557.099</ele>
        <time>2025-02-06T15:11:12Z</time>
      </trkpt>
      <trkpt lat="45.13511" lon="5.88802">
        <ele>1554.176</ele>
        <time>2025-02-06T15:11:14Z</time>
      </trkpt>
      <trkpt lat="45.13522" lon="5.88799">
        <ele>1549.879</ele>
        <time>2025-02-06T15:11:16Z</time>
      </trkpt>
      <trkpt lat="45.13534" lon="5.88805">
        <ele>1548.671</ele>
        <time>2025-02-06T15:11:18Z</time>
      </trkpt>
      <trkpt lat="45.13547" lon="5.88814">
        <ele>1542.076</ele>
        <time>2025-02-06T15:11:20Z</time>
      </trkpt>
      <trkpt lat="45.13558" lon="5.8881">
        <ele>1538.775</ele>
        <time>2025-02-06T15:11:22Z</time>
      </trkpt>
      <trkpt lat="45.13561" lon="5.88806">
        <ele>1537.578</ele>
        <time>2025-02-06T15:11:38Z</time>
      </trkpt>
      <trkpt lat="45.13569" lon="5.88809">
        <ele>1535.164</ele>
        <time>2025-02-06T15:11:40Z</time>
      </trkpt>
      <trkpt lat="45.13578" lon="5.88812">
        <ele>1532.329</ele>
        <time>2025-02-06T15:11:42Z</time>
      </trkpt>
      <trkpt lat="45.1359" lon="5.8881">
        <ele>1528.941</ele>
        <time>2025-02-06T15:11:44Z</time>
      </trkpt>
      <trkpt lat="45.13602" lon="5.88817">
        <ele>1525.82</ele>
        <time>2025-02-06T15:11:46Z</time>
      </trkpt>
      <trkpt lat="45.13616" lon="5.88815">
        <ele>1521.165</ele>
        <time>2025-02-06T15:11:48Z</time>
      </trkpt>
      <trkpt lat="45.13624" lon="5.88805">
        <ele>1518.028</ele>
        <time>2025-02-06T15:11:50Z</time>
      </trkpt>
      <trkpt lat="45.13635" lon="5.88807">
        <ele>1516.549</ele>
        <time>2025-02-06T15:11:52Z</time>
      </trkpt>
      <trkpt lat="45.13646" lon="5.88801">
        <ele>1510.835</ele>
        <time>2025-02-06T15:11:54Z</time>
      </trkpt>
      <trkpt lat="45.13657" lon="5.88793">
        <ele>1509.863</ele>
        <time>2025-02-06T15:11:56Z</time>
      </trkpt>
      <trkpt lat="45.13668" lon="5.88799">
        <ele>1507.479</ele>
        <time>2025-02-06T15:11:58Z</time>
      </trkpt>
      <trkpt lat="45.1368" lon="5.88803">
        <ele>1503.88</ele>
        <time>2025-02-06T15:12:00Z</time>
      </trkpt>
      <trkpt lat="45.1369" lon="5.88796">
        <ele>1502.289</ele>
        <time>2025-02-06T15:12:02Z</time>
      </trkpt>
      <trkpt lat="45.13697" lon="5.88792">
        <ele>1500.163</ele>
        <time>2025-02-06T15:12:04Z</time>
      </trkpt>
      <trkpt lat="45.13704" lon="5.88797">
        <ele>1496.413</ele>
        <time>2025-02-06T15:12:06Z</time>
      </trkpt>
      <trkpt lat="45.13714" lon="5.88804">
        <ele>1495.52</ele>
        <time>2025-02-06T15:12:08Z</time>
      </trkpt>
      <trkpt lat="45.13718" lon="5.88802">
        <ele>1490.931</ele>
        <time>2025-02-06T15:12:10Z</time>
      </trkpt>
      <trkpt lat="45.13724" lon="5.88803">
        <ele>1490.434</ele>
        <time>2025-02-06T15:12:28Z</time>
      </trkpt>
      <trkpt lat="45.13732" lon="5.88811">
        <ele>1489.201</ele>
        <time>2025-02-06T15:12:30Z</time>
      </trkpt>
      <trkpt lat="45.13745" lon="5.88803">
        <ele>1487.089</ele>
        <time>2025-02-06T15:12:32Z</time>
      </trkpt>
      <trkpt lat="45.13758" lon="5.88803">
        <ele>1480.93</ele>
        <time>2025-02-06T15:12:34Z</time>
      </trkpt>
      <trkpt lat="45.13768" lon="5.88814">
        <ele>1478.302</ele>
        <time>2025-02-06T15:12:36Z</time>
      </trkpt>
      <trkpt lat="45.13777" lon="5.88826">
        <ele>1475.852</ele>
        <time>2025-02-06T15:12:38Z</time>
      </trkpt>
      <trkpt lat="45.13791" lon="5.88829">
        <ele>1473.373</ele>
        <time>2025-02-06T15:12:40Z</time>
      </trkpt>
      <trkpt lat="45.13797" lon="5.88812">
        <ele>1467.846</ele>
        <time>2025-02-06T15:12:42Z</time>
      </trkpt>
      <trkpt lat="45.13803" lon="5.88803">
        <ele>1465.147</ele>
        <time>2025-02-06T15:12:44Z</time>
      </trkpt>
      <trkpt lat="45.13812" lon="5.88801">
        <ele>1461.645</ele>
        <time>2025-02-06T15:12:46Z</time>
      </trkpt>
      <trkpt lat="45.13823" lon="5.888">
        <ele>1458.326</ele>
        <time>2025-02-06T15:12:48Z</time>
      </trkpt>
      <trkpt lat="45.13836" lon="5.88804">
        <ele>1455.53</ele>
        <time>2025-02-06T15:12:50Z</time>
      </trkpt>
      <trkpt lat="45.13847" lon="5.88803">
        <ele>1451.215</ele>
        <time>2025-02-06T15:12:52Z</time>
      </trkpt>
      <trkpt lat="45.13859" lon="5.88811">
        <ele>1448.007</ele>
        <time>2025-02-06T15:12:54Z</time>
      </trkpt>
      <trkpt lat="45.13868" lon="5.88807">
        <ele>1444.081</ele>
        <time>2025-02-06T15:12:56Z</time>
      </trkpt>
      <trkpt lat="45.13873" lon="5.88805">
        <ele>1441.884</ele>
        <time>2025-02-06T15:13:04Z</time>
      </trkpt>
      <trkpt lat="45.13883" lon="5.88804">
        <ele>1438.799</ele>
        <time>2025-02-06T15:13:06Z</time>
      </trkpt>
      <trkpt lat="45.13896" lon="5.88799">
        <ele>1436.725</ele>
        <time>2025-02-06T15:13:08Z</time>
      </trkpt>
      <trkpt lat="45.13909" lon="5.88801">
        <ele>1433.297</ele>
        <time>2025-02-06T15:13:10Z</time>
      </trkpt>
      <trkpt lat="45.1392" lon="5.88795">
        <ele>1430.756</ele>
        <time>2025-02-06T15:13:12Z</time>
      </trkpt>
      <trkpt lat="45.13928" lon="5.88788">
        <ele>1428.221</ele>
        <time>2025-02-06T15:13:14Z</time>
      </trkpt>
      <trkpt lat="45.13938" lon="5.88794">
        <ele>1425.102</ele>
        <time>2025-02-06T15:13:16Z</time>
      </trkpt>
      <trkpt lat="45.13949" lon="5.88794">
        <ele>1422.271</ele>
        <time>2025-02-06T15:13:18Z</time>
      </trkpt>
      <trkpt lat="45.13959" lon="5.88785">
        <ele>1418.732</ele>
        <time>2025-02-06T15:13:20Z</time>
      </trkpt>
      <trkpt lat="45.13969" lon="5.88779">
        <ele>1415.973</ele>
        <time>2025-02-06T15:13:22Z</time>
      </trkpt>
      <trkpt lat="45.13979" lon="5.88786">
        <ele>1412.843</ele>
        <time>2025-02-06T15:13:24Z</time>
      </trkpt>
      <trkpt lat="45.13992" lon="5.88794">
        <ele>1411.471</ele>
        <time>2025-02-06T15:13:26Z</time>
      </trkpt>
      <trkpt lat="45.14001" lon="5.88792">
        <ele>1410.568</ele>
        <time>2025-02-06T15:13:28Z</time>
      </trkpt>
      <trkpt lat="45.14009" lon="5.88787">
        <ele>1409.789</ele>
        <time>2025-02-06T15:13:30Z</time>
      </trkpt>
      <trkpt lat="45.14012" lon="5.88792">
        <ele>1410.144</ele>
        <time>2025-02-06T15:13:37Z</time>
      </trkpt>
      <trkpt lat="45.14016" lon="5.88794">
        <ele>1408.438</ele>
        <time>2025-02-06T15:13:43Z</time>
      </trkpt>
      <trkpt lat="45.14016" lon="5.88801">
        <ele>1408.022</ele>
        <time>2025-02-06T15:13:47Z</time>
      </trkpt>
      <trkpt lat="45.14014" lon="5.88807">
        <ele>1407.241</ele>
        <time>2025-02-06T15:13:52Z</time>
      </trkpt>
      <trkpt lat="45.14011" lon="5.88812">
        <ele>1406.695</ele>
        <time>2025-02-06T15:13:56Z</time>
      </trkpt>
      <trkpt lat="45.14009" lon="5.88819">
        <ele>1406.829</ele>
        <time>2025-02-06T15:14:00Z</time>
      </trkpt>
      <trkpt lat="45.14005" lon="5.88827">
        <ele>1406.782</ele>
        <time>2025-02-06T15:14:03Z</time>
      </trkpt>
      <trkpt lat="45.14002" lon="5.88834">
        <ele>1406.54</ele>
        <time>2025-02-06T15:14:05Z</time>
      </trkpt>
      <trkpt lat="45.13999" lon="5.88841">
        <ele>1405.784</ele>
        <time>2025-02-06T15:14:07Z</time>
      </trkpt>
      <trkpt lat="45.13997" lon="5.88849">
        <ele>1404.758</ele>
        <time>2025-02-06T15:14:10Z</time>
      </trkpt>
      <trkpt lat="45.13993" lon="5.88857">
        <ele>1404.625</ele>
        <time>2025-02-06T15:14:13Z</time>
      </trkpt>
      <trkpt lat="45.13988" lon="5.8886">
        <ele>1403.587</ele>
        <time>2025-02-06T15:14:16Z</time>
      </trkpt>
      <trkpt lat="45.13984" lon="5.88864">
        <ele>1401.067</ele>
        <time>2025-02-06T15:14:20Z</time>
      </trkpt>
      <trkpt lat="45.13979" lon="5.88867">
        <ele>1401.642</ele>
        <time>2025-02-06T15:14:25Z</time>
      </trkpt>
      <trkpt lat="45.13975" lon="5.88873">
        <ele>1402.527</ele>
        <time>2025-02-06T15:14:28Z</time>
      </trkpt>
      <trkpt lat="45.13972" lon="5.88879">
        <ele>1400.167</ele>
        <time>2025-02-06T15:14:31Z</time>
      </trkpt>
      <trkpt lat="45.13971" lon="5.88886">
        <ele>1399.468</ele>
        <time>2025-02-06T15:14:39Z</time>
      </trkpt>
      <trkpt lat="45.1397" lon="5.88894">
        <ele>1400.942</ele>
        <time>2025-02-06T15:14:42Z</time>
      </trkpt>
      <trkpt lat="45.13968" lon="5.88901">
        <ele>1401.406</ele>
        <time>2025-02-06T15:14:45Z</time>
      </trkpt>
      <trkpt lat="45.13965" lon="5.88907">
        <ele>1401.737</ele>
        <time>2025-02-06T15:14:48Z</time>
      </trkpt>
      <trkpt lat="45.13963" lon="5.88914">
        <ele>1403.232</ele>
        <time>2025-02-06T15:14:52Z</time>
      </trkpt>
      <trkpt lat="45.1396" lon="5.8892">
        <ele>1402.788</ele>
        <time>2025-02-06T15:14:55Z</time>
      </trkpt>
      <trkpt lat="45.13958" lon="5.88927">
        <ele>1403.086</ele>
        <time>2025-02-06T15:14:59Z</time>
      </trkpt>
      <trkpt lat="45.13962" lon="5.88934">
        <ele>1403.213</ele>
        <time>2025-02-06T15:15:03Z</time>
      </trkpt>
      <trkpt lat="45.13967" lon="5.88938">
        <ele>1402.557</ele>
        <time>2025-02-06T15:15:06Z</time>
      </trkpt>
      <trkpt lat="45.13973" lon="5.88936">
        <ele>1400.235</ele>
        <time>2025-02-06T15:15:09Z</time>
      </trkpt>
      <trkpt lat="45.13977" lon="5.88931">
        <ele>1399.422</ele>
        <time>2025-02-06T15:15:12Z</time>
      </trkpt>
      <trkpt lat="45.1398" lon="5.88924">
        <ele>1399.311</ele>
        <time>2025-02-06T15:15:15Z</time>
      </trkpt>
      <trkpt lat="45.13983" lon="5.88919">
        <ele>1400.532</ele>
        <time>2025-02-06T15:15:17Z</time>
      </trkpt>
      <trkpt lat="45.13986" lon="5.88914">
        <ele>1401.861</ele>
        <time>2025-02-06T15:15:19Z</time>
      </trkpt>
      <trkpt lat="45.13991" lon="5.88909">
        <ele>1401.412</ele>
        <time>2025-02-06T15:15:21Z</time>
      </trkpt>
      <trkpt lat="45.13996" lon="5.88902">
        <ele>1400.638</ele>
        <time>2025-02-06T15:15:23Z</time>
      </trkpt>
      <trkpt lat="45.13999" lon="5.88896">
        <ele>1400.51</ele>
        <time>2025-02-06T15:15:32Z</time>
      </trkpt>
      <trkpt lat="45.14003" lon="5.88894">
        <ele>1397.642</ele>
        <time>2025-02-06T15:15:35Z</time>
      </trkpt>
      <trkpt lat="45.14007" lon="5.88891">
        <ele>1399.014</ele>
        <time>2025-02-06T15:15:37Z</time>
      </trkpt>
      <trkpt lat="45.1401" lon="5.88884">
        <ele>1399.671</ele>
        <time>2025-02-06T15:15:39Z</time>
      </trkpt>
      <trkpt lat="45.14014" lon="5.88878">
        <ele>1398.523</ele>
        <time>2025-02-06T15:15:41Z</time>
      </trkpt>
      <trkpt lat="45.14018" lon="5.88874">
        <ele>1398.963</ele>
        <time>2025-02-06T15:15:43Z</time>
      </trkpt>
      <trkpt lat="45.14023" lon="5.8887">
        <ele>1398.023</ele>
        <time>2025-02-06T15:15:45Z</time>
      </trkpt>
      <trkpt lat="45.14029" lon="5.88866">
        <ele>1398.062</ele>
        <time>2025-02-06T15:15:47Z</time>
      </trkpt>
      <trkpt lat="45.14035" lon="5.88863">
        <ele>1397.979</ele>
        <time>2025-02-06T15:15:49Z</time>
      </trkpt>
      <trkpt lat="45.14038" lon="5.88859">
        <ele>1396.654</ele>
        <time>2025-02-06T15:15:54Z</time>
      </trkpt>
      <trkpt lat="45.14044" lon="5.88855">
        <ele>1396.852</ele>
        <time>2025-02-06T15:15:57Z</time>
      </trkpt>
      <trkpt lat="45.14048" lon="5.88852">
        <ele>1395.769</ele>
        <time>2025-02-06T15:16:00Z</time>
      </trkpt>
      <trkpt lat="45.14048" lon="5.88847">
        <ele>1395.611</ele>
        <time>2025-02-06T15:16:21Z</time>
      </trkpt>
      <trkpt lat="45.14048" lon="5.88847">
        <ele>1393.527</ele>
        <time>2025-02-06T15:16:42Z</time>
      </trkpt>
      <trkpt lat="45.14048" lon="5.88847">
        <ele>1391.973</ele>
        <time>2025-02-06T15:17:02Z</time>
      </trkpt>
      <trkpt lat="45.14048" lon="5.88847">
        <ele>1391.864</ele>
        <time>2025-02-06T15:17:22Z</time>
      </trkpt>
      <trkpt lat="45.14048" lon="5.88847">
        <ele>1390.295</ele>
        <time>2025-02-06T15:17:43Z</time>
      </trkpt>
      <trkpt lat="45.14051" lon="5.88847">
        <ele>1390.401</ele>
        <time>2025-02-06T15:18:03Z</time>
      </trkpt>
      <trkpt lat="45.14055" lon="5.88844">
        <ele>1392.459</ele>
        <time>2025-02-06T15:18:11Z</time>
      </trkpt>
      <trkpt lat="45.1406" lon="5.88841">
        <ele>1392.496</ele>
        <time>2025-02-06T15:18:16Z</time>
      </trkpt>
      <trkpt lat="45.14063" lon="5.88837">
        <ele>1392.078</ele>
        <time>2025-02-06T15:18:21Z</time>
      </trkpt>
      <trkpt lat="45.14067" lon="5.88833">
        <ele>1391.433</ele>
        <time>2025-02-06T15:18:26Z</time>
      </trkpt>
      <trkpt lat="45.14071" lon="5.8883">
        <ele>1392.527</ele>
        <time>2025-02-06T15:18:32Z</time>
      </trkpt>
      <trkpt lat="45.14074" lon="5.88834">
        <ele>1390.879</ele>
        <time>2025-02-06T15:18:37Z</time>
      </trkpt>
      <trkpt lat="45.14073" lon="5.88838">
        <ele>1391.436</ele>
        <time>2025-02-06T15:18:58Z</time>
      </trkpt>
      <trkpt lat="45.14073" lon="5.88838">
        <ele>1389.768</ele>
        <time>2025-02-06T15:19:18Z</time>
      </trkpt>
      <trkpt lat="45.14073" lon="5.88838">
        <ele>1389.752</ele>
        <time>2025-02-06T15:19:39Z</time>
      </trkpt>
      <trkpt lat="45.14073" lon="5.88838">
        <ele>1389.654</ele>
        <time>2025-02-06T15:20:00Z</time>
      </trkpt>
      <trkpt lat="45.14073" lon="5.88838">
        <ele>1388.897</ele>
        <time>2025-02-06T15:20:21Z</time>
      </trkpt>
      <trkpt lat="45.14073" lon="5.88838">
        <ele>1389.257</ele>
        <time>2025-02-06T15:20:41Z</time>
      </trkpt>
      <trkpt lat="45.14073" lon="5.88836">
        <ele>1388.796</ele>
        <time>2025-02-06T15:21:02Z</time>
      </trkpt>
      <trkpt lat="45.14071" lon="5.88832">
        <ele>1387.891</ele>
        <time>2025-02-06T15:21:23Z</time>
      </trkpt>
    </trkseg>
  </trk>
</gpx>